| time (UTC) | temp F | wind direction | speed MPH | gust MPH | rain 1hr in | rain 24hr in | rain mn in | humidity % | barometer mb |
| 20260901020223 | 72 | 205 | 1.0 | 4.0 | 0.00 | 0.06 | 0.06 | 89 | 1014.2 |
| 20260901020131 | 72 | 164 | 2.0 | 4.0 | 0.00 | 0.06 | 0.06 | 89 | 1014.2 |
| 20260901020013 | 72 | 208 | 0.0 | 4.0 | 0.00 | 0.06 | 0.06 | 90 | 1014.2 |
| 20260901015943 | 72 | 222 | 1.0 | 4.0 | 0.00 | 0.06 | 0.06 | 90 | 1014.2 |
| 20260901015939 | 72 | 207 | 1.0 | 4.0 | 0.00 | 0.06 | 0.06 | 90 | 1014.2 |
| 20260901015931 | 72 | 195 | 1.0 | 4.0 | 0.00 | 0.06 | 0.06 | 90 | 1014.2 |
| 20260901015655 | 72 | 197 | 2.0 | 4.0 | 0.00 | 0.06 | 0.06 | 90 | 1014.2 |
| 20260901015549 | 72 | 199 | 1.0 | 4.0 | 0.00 | 0.06 | 0.06 | 90 | 1014.2 |
| 20260901015444 | 72 | 202 | 2.0 | 4.0 | 0.00 | 0.06 | 0.06 | 90 | 1014.2 |
| 20260901015338 | 72 | 217 | 2.0 | 4.0 | 0.00 | 0.06 | 0.06 | 90 | 1014.2 |
| 20260901015232 | 72 | 215 | 2.0 | 4.0 | 0.00 | 0.06 | 0.06 | 90 | 1014.6 |
| 20260901015206 | 72 | 200 | 1.0 | 4.0 | 0.00 | 0.06 | 0.06 | 90 | 1014.6 |
| 20260901015126 | 72 | 176 | 1.0 | 4.0 | 0.00 | 0.06 | 0.06 | 90 | 1014.2 |
| 20260901015021 | 72 | 201 | 2.0 | 4.0 | 0.00 | 0.06 | 0.06 | 90 | 1014.2 |
| 20260901014915 | 72 | 214 | 3.0 | 4.0 | 0.00 | 0.06 | 0.06 | 90 | 1014.2 |
| 20260901014810 | 72 | 193 | 2.0 | 3.0 | 0.00 | 0.06 | 0.06 | 90 | 1014.2 |
| 20260901014704 | 72 | 188 | 2.0 | 3.0 | 0.00 | 0.06 | 0.06 | 90 | 1014.2 |
| 20260901014558 | 72 | 191 | 2.0 | 3.0 | 0.00 | 0.06 | 0.06 | 90 | 1014.2 |
| 20260901014453 | 72 | 197 | 1.0 | 3.0 | 0.00 | 0.06 | 0.06 | 90 | 1014.2 |
| 20260901014347 | 72 | 197 | 3.0 | 3.0 | 0.00 | 0.06 | 0.06 | 90 | 1014.2 |
| 20260901014241 | 72 | 156 | 2.0 | 3.0 | 0.00 | 0.06 | 0.06 | 90 | 1014.2 |
| 20260901014153 | 72 | 189 | 3.0 | 3.0 | 0.00 | 0.06 | 0.06 | 90 | 1014.2 |
| 20260901014135 | 72 | 201 | 2.0 | 3.0 | 0.00 | 0.06 | 0.06 | 90 | 1014.2 |
| 20260901014030 | 72 | 215 | 2.0 | 3.0 | 0.00 | 0.06 | 0.06 | 90 | 1014.2 |
| 20260901013923 | 72 | 196 | 2.0 | 3.0 | 0.00 | 0.06 | 0.06 | 90 | 1014.2 |
| 20260901013818 | 72 | 187 | 1.0 | 3.0 | 0.00 | 0.06 | 0.06 | 90 | 1014.2 |
| 20260901013713 | 72 | 220 | 1.0 | 3.0 | 0.00 | 0.06 | 0.06 | 90 | 1014.2 |
| 20260901013646 | 72 | 205 | 1.0 | 3.0 | 0.00 | 0.06 | 0.06 | 90 | 1014.2 |
| 20260901013607 | 72 | 204 | 3.0 | 3.0 | 0.00 | 0.06 | 0.06 | 91 | 1014.6 |
| 20260901013501 | 72 | 204 | 2.0 | 4.0 | 0.00 | 0.06 | 0.06 | 91 | 1014.2 |
| 20260901013417 | 72 | 202 | 1.0 | 4.0 | 0.00 | 0.06 | 0.06 | 91 | 1014.2 |
| 20260901013409 | 72 | 191 | 2.0 | 6.0 | 0.00 | 0.06 | 0.06 | 91 | 1014.2 |
| 20260901013359 | 72 | 193 | 1.0 | 7.0 | 0.00 | 0.06 | 0.06 | 91 | 1014.2 |
| 20260901013038 | 72 | 181 | 0.0 | 7.0 | 0.00 | 0.06 | 0.06 | 91 | 1014.6 |
| 20260901012932 | 72 | 239 | 1.0 | 7.0 | 0.00 | 0.06 | 0.06 | 91 | 1014.2 |
| 20260901012918 | 72 | 197 | 3.0 | 7.0 | 0.00 | 0.06 | 0.06 | 91 | 1014.2 |
| 20260901012914 | 72 | 211 | 2.0 | 7.0 | 0.00 | 0.06 | 0.06 | 91 | 1014.2 |
| 20260901012905 | 72 | 158 | 2.0 | 7.0 | 0.00 | 0.06 | 0.06 | 91 | 1014.2 |
| 20260901012615 | 72 | 183 | 4.0 | 7.0 | 0.00 | 0.06 | 0.06 | 91 | 1014.2 |
| 20260901012509 | 72 | 165 | 1.0 | 7.0 | 0.00 | 0.06 | 0.06 | 91 | 1014.2 |
| 20260901012404 | 72 | 219 | 3.0 | 7.0 | 0.00 | 0.06 | 0.06 | 91 | 1014.2 |
| 20260901012259 | 72 | 209 | 2.0 | 7.0 | 0.00 | 0.06 | 0.06 | 91 | 1014.2 |
| 20260901012152 | 72 | 193 | 5.0 | 7.0 | 0.00 | 0.06 | 0.06 | 91 | 1014.2 |
| 20260901012126 | 72 | 212 | 0.0 | 4.0 | 0.00 | 0.06 | 0.06 | 91 | 1014.2 |
| 20260901012047 | 72 | 175 | 2.0 | 4.0 | 0.00 | 0.06 | 0.06 | 91 | 1014.2 |
| 20260901011942 | 72 | 197 | 2.0 | 4.0 | 0.00 | 0.06 | 0.06 | 91 | 1013.9 |
| 20260901011835 | 72 | 175 | 3.0 | 4.0 | 0.00 | 0.06 | 0.06 | 91 | 1014.2 |
| 20260901011730 | 72 | 221 | 2.0 | 4.0 | 0.00 | 0.06 | 0.06 | 91 | 1014.2 |
| 20260901011624 | 72 | 220 | 2.0 | 4.0 | 0.00 | 0.06 | 0.06 | 91 | 1014.2 |
| 20260901011518 | 72 | 180 | 0.0 | 4.0 | 0.00 | 0.06 | 0.06 | 91 | 1013.9 |
| 20260901011413 | 72 | 199 | 0.0 | 4.0 | 0.00 | 0.06 | 0.06 | 91 | 1014.2 |
| 20260901011320 | 72 | 211 | 0.0 | 4.0 | 0.00 | 0.06 | 0.06 | 91 | 1014.2 |
| 20260901011201 | 72 | 189 | 0.0 | 3.0 | 0.00 | 0.06 | 0.06 | 91 | 1014.2 |
| 20260901011113 | 72 | 184 | 0.0 | 3.0 | 0.00 | 0.06 | 0.06 | 91 | 1013.9 |
| 20260901011055 | 72 | 196 | 0.0 | 3.0 | 0.00 | 0.06 | 0.06 | 91 | 1013.9 |
| 20260901010950 | 72 | 201 | 0.0 | 3.0 | 0.00 | 0.06 | 0.06 | 91 | 1013.9 |
| 20260901010857 | 72 | 173 | 0.0 | 3.0 | 0.00 | 0.06 | 0.06 | 91 | 1014.2 |
| 20260901010738 | 72 | 211 | 0.0 | 3.0 | 0.00 | 0.06 | 0.06 | 91 | 1014.2 |
| 20260901010634 | 72 | 208 | 2.0 | 3.0 | 0.00 | 0.06 | 0.06 | 91 | 1013.9 |
| 20260901010606 | 72 | 211 | 2.0 | 3.0 | 0.00 | 0.06 | 0.06 | 91 | 1013.9 |
| 20260901010539 | 72 | 158 | 2.0 | 3.0 | 0.00 | 0.06 | 0.06 | 91 | 1014.2 |
| 20260901010421 | 72 | 191 | 2.0 | 3.0 | 0.00 | 0.06 | 0.06 | 91 | 1013.9 |
| 20260901010316 | 72 | 179 | 2.0 | 3.0 | 0.00 | 0.06 | 0.06 | 91 | 1013.9 |
| 20260901010208 | 72 | 215 | 1.0 | 3.0 | 0.00 | 0.06 | 0.06 | 91 | 1013.9 |
| 20260901010108 | 72 | 198 | 0.0 | 3.0 | 0.00 | 0.06 | 0.06 | 91 | 1013.9 |
| 20260901005957 | 72 | 213 | 1.0 | 3.0 | 0.00 | 0.06 | 0.06 | 91 | 1014.2 |
| 20260901005851 | 72 | 204 | 1.0 | 3.0 | 0.00 | 0.06 | 0.06 | 91 | 1013.9 |
| 20260901005745 | 72 | 222 | 0.0 | 3.0 | 0.00 | 0.06 | 0.06 | 91 | 1013.9 |
| 20260901005640 | 72 | 221 | 0.0 | 3.0 | 0.00 | 0.06 | 0.06 | 91 | 1013.5 |
| 20260901005552 | 72 | 221 | 0.0 | 3.0 | 0.00 | 0.06 | 0.06 | 91 | 1013.5 |
| 20260901005534 | 72 | 221 | 1.0 | 3.0 | 0.00 | 0.06 | 0.06 | 91 | 1013.9 |
| 20260901005428 | 72 | 198 | 1.0 | 3.0 | 0.00 | 0.06 | 0.06 | 91 | 1013.5 |
| 20260901005322 | 72 | 208 | 1.0 | 3.0 | 0.00 | 0.06 | 0.06 | 91 | 1013.5 |
| 20260901005217 | 72 | 196 | 2.0 | 3.0 | 0.00 | 0.06 | 0.06 | 91 | 1013.5 |
| 20260901005114 | 72 | 215 | 0.0 | 0.0 | 0.00 | 0.06 | 0.06 | 91 | 1013.9 |
| 20260901005045 | 72 | 215 | 0.0 | 0.0 | 0.00 | 0.06 | 0.06 | 91 | 1013.9 |
| 20260901005005 | 72 | 191 | 0.0 | 0.0 | 0.00 | 0.06 | 0.06 | 91 | 1013.5 |
| 20260901004900 | 72 | 189 | 0.0 | 0.0 | 0.00 | 0.06 | 0.06 | 91 | 1013.5 |
| 20260901004753 | 72 | 185 | 0.0 | 0.0 | 0.00 | 0.06 | 0.06 | 91 | 1013.9 |
| 20260901004648 | 72 | 155 | 0.0 | 0.0 | 0.00 | 0.06 | 0.06 | 91 | 1013.5 |
| 20260901004542 | 72 | 186 | 0.0 | 0.0 | 0.00 | 0.06 | 0.06 | 91 | 1013.5 |
| 20260901004436 | 72 | 211 | 0.0 | 0.0 | 0.00 | 0.06 | 0.06 | 91 | 1013.5 |
| 20260901004330 | 72 | 203 | 0.0 | 0.0 | 0.00 | 0.06 | 0.06 | 91 | 1013.5 |
| 20260901004225 | 72 | 210 | 0.0 | 0.0 | 0.00 | 0.06 | 0.06 | 91 | 1013.5 |
| 20260901004119 | 72 | 208 | 0.0 | 0.0 | 0.00 | 0.06 | 0.06 | 91 | 1013.5 |
| 20260901004031 | 72 | 206 | 0.0 | 0.0 | 0.00 | 0.06 | 0.06 | 90 | 1013.5 |
| 20260901004013 | 72 | 195 | 0.0 | 0.0 | 0.00 | 0.06 | 0.06 | 90 | 1013.5 |
| 20260901003908 | 72 | 193 | 0.0 | 0.0 | 0.00 | 0.06 | 0.06 | 90 | 1013.5 |
| 20260901003801 | 72 | 192 | 0.0 | 0.0 | 0.00 | 0.06 | 0.06 | 90 | 1013.5 |
| 20260901003656 | 72 | 154 | 0.0 | 0.0 | 0.00 | 0.06 | 0.06 | 91 | 1013.5 |
| 20260901003551 | 72 | 210 | 0.0 | 1.0 | 0.00 | 0.06 | 0.06 | 91 | 1013.5 |
| 20260901003524 | 72 | 210 | 0.0 | 2.0 | 0.00 | 0.06 | 0.06 | 91 | 1013.5 |
| 20260901003445 | 72 | 198 | 0.0 | 3.0 | 0.00 | 0.06 | 0.06 | 90 | 1013.5 |
| 20260901003338 | 72 | 202 | 0.0 | 3.0 | 0.00 | 0.06 | 0.06 | 90 | 1013.5 |
| 20260901003233 | 73 | 202 | 0.0 | 4.0 | 0.00 | 0.06 | 0.06 | 90 | 1013.5 |
| 20260901003128 | 73 | 196 | 0.0 | 4.0 | 0.00 | 0.06 | 0.06 | 90 | 1013.5 |
| 20260901003022 | 73 | 191 | 0.0 | 4.0 | 0.00 | 0.06 | 0.06 | 90 | 1013.5 |
| 20260901002916 | 73 | 149 | 0.0 | 4.0 | 0.00 | 0.06 | 0.06 | 90 | 1013.5 |
| 20260901002810 | 73 | 191 | 0.0 | 4.0 | 0.00 | 0.06 | 0.06 | 90 | 1013.5 |
| 20260901002705 | 73 | 188 | 0.0 | 4.0 | 0.00 | 0.06 | 0.06 | 90 | 1013.5 |
| 20260901002558 | 73 | 206 | 1.0 | 4.0 | 0.00 | 0.06 | 0.06 | 90 | 1013.5 |
| 20260901002510 | 73 | 191 | 3.0 | 4.0 | 0.00 | 0.06 | 0.06 | 90 | 1013.5 |
| 20260901002453 | 73 | 183 | 2.0 | 4.0 | 0.00 | 0.06 | 0.06 | 90 | 1013.5 |
| 20260901002347 | 73 | 202 | 2.0 | 4.0 | 0.00 | 0.06 | 0.06 | 90 | 1013.5 |
| 20260901002245 | 73 | 201 | 0.0 | 3.0 | 0.00 | 0.06 | 0.06 | 90 | 1013.5 |
| 20260901002241 | 73 | 167 | 1.0 | 4.0 | 0.00 | 0.06 | 0.06 | 90 | 1013.5 |
| 20260901002233 | 73 | 198 | 0.0 | 3.0 | 0.00 | 0.06 | 0.06 | 90 | 1013.5 |
| 20260901002224 | 73 | 203 | 0.0 | 3.0 | 0.00 | 0.06 | 0.06 | 90 | 1013.5 |
| 20260901001924 | 73 | 202 | 0.0 | 3.0 | 0.00 | 0.06 | 0.06 | 89 | 1013.5 |
| 20260901001819 | 73 | 200 | 0.0 | 3.0 | 0.00 | 0.06 | 0.06 | 89 | 1013.5 |
| 20260901001713 | 73 | 195 | 1.0 | 4.0 | 0.00 | 0.06 | 0.06 | 89 | 1013.5 |
| 20260901001607 | 73 | 185 | 2.0 | 4.0 | 0.00 | 0.06 | 0.06 | 89 | 1013.5 |
| 20260901001502 | 73 | 208 | 0.0 | 4.0 | 0.00 | 0.06 | 0.06 | 89 | 1013.5 |
| 20260901001356 | 73 | 210 | 0.0 | 4.0 | 0.00 | 0.06 | 0.06 | 89 | 1013.5 |
| 20260901001250 | 73 | 197 | 1.0 | 4.0 | 0.00 | 0.06 | 0.06 | 89 | 1013.5 |
| 20260901001145 | 73 | 174 | 1.0 | 4.0 | 0.00 | 0.06 | 0.06 | 89 | 1013.5 |
| 20260901001039 | 73 | 200 | 1.0 | 4.0 | 0.00 | 0.06 | 0.06 | 88 | 1013.5 |
| 20260901000951 | 73 | 205 | 1.0 | 4.0 | 0.00 | 0.06 | 0.06 | 88 | 1013.5 |
| 20260901000933 | 73 | 196 | 1.0 | 4.0 | 0.00 | 0.06 | 0.06 | 88 | 1013.5 |
| 20260901000827 | 73 | 195 | 2.0 | 4.0 | 0.00 | 0.06 | 0.06 | 88 | 1013.9 |
| 20260901000722 | 73 | 180 | 2.0 | 3.0 | 0.00 | 0.06 | 0.06 | 88 | 1013.5 |
| 20260901000616 | 73 | 192 | 2.0 | 6.0 | 0.00 | 0.06 | 0.06 | 88 | 1013.5 |
| 20260901000510 | 73 | 202 | 1.0 | 6.0 | 0.00 | 0.06 | 0.06 | 88 | 1013.5 |
| 20260901000444 | 73 | 203 | 1.0 | 6.0 | 0.00 | 0.06 | 0.06 | 88 | 1013.5 |
| 20260901000406 | 73 | 182 | 2.0 | 6.0 | 0.00 | 0.06 | 0.06 | 88 | 1013.5 |
| 20260901000259 | 73 | 198 | 0.0 | 6.0 | 0.00 | 0.06 | 0.06 | 88 | 1013.5 |
| 20260901000155 | 73 | 212 | 2.0 | 6.0 | 0.00 | 0.06 | 0.06 | 88 | 1013.5 |
| 20260831235938 | 74 | 184 | 1.0 | 6.0 | 0.00 | 0.06 | 0.06 | 88 | 1013.5 |
| 20260831235843 | 74 | 195 | 0.0 | 6.0 | 0.00 | 0.06 | 0.06 | 88 | 1013.5 |
| 20260831235737 | 74 | 206 | 2.0 | 6.0 | 0.00 | 0.06 | 0.06 | 88 | 1013.5 |
| 20260831235631 | 73 | 155 | 3.0 | 6.0 | 0.00 | 0.06 | 0.06 | 88 | 1013.5 |
| 20260831235526 | 73 | 215 | 2.0 | 4.0 | 0.00 | 0.06 | 0.06 | 88 | 1013.1 |
| 20260831235438 | 73 | 147 | 2.0 | 4.0 | 0.00 | 0.06 | 0.06 | 88 | 1013.1 |
| 20260831235420 | 74 | 184 | 2.0 | 4.0 | 0.00 | 0.06 | 0.06 | 88 | 1013.5 |
| 20260831235314 | 74 | 166 | 1.0 | 4.0 | 0.00 | 0.06 | 0.06 | 88 | 1013.5 |
| 20260831235208 | 74 | 165 | 2.0 | 4.0 | 0.00 | 0.06 | 0.06 | 88 | 1013.5 |
| 20260831235103 | 74 | 150 | 2.0 | 6.0 | 0.00 | 0.06 | 0.06 | 88 | 1013.5 |
| 20260831234957 | 74 | 188 | 0.0 | 6.0 | 0.00 | 0.06 | 0.06 | 88 | 1013.9 |
| 20260831234931 | 74 | 175 | 0.0 | 6.0 | 0.00 | 0.06 | 0.06 | 88 | 1013.5 |
| 20260831234852 | 74 | 166 | 1.0 | 6.0 | 0.00 | 0.06 | 0.06 | 87 | 1013.5 |
| 20260831234746 | 74 | 193 | 1.0 | 6.0 | 0.00 | 0.06 | 0.06 | 87 | 1013.5 |
| 20260831234701 | 74 | 213 | 2.0 | 6.0 | 0.00 | 0.06 | 0.06 | 87 | 1013.5 |
| 20260831234653 | 74 | 199 | 1.0 | 10.0 | 0.00 | 0.06 | 0.06 | 87 | 1013.9 |
| 20260831234643 | 74 | 203 | 2.0 | 11.0 | 0.00 | 0.06 | 0.06 | 87 | 1013.5 |
| 20260831234322 | 74 | 147 | 2.0 | 11.0 | 0.00 | 0.06 | 0.06 | 87 | 1013.5 |
| 20260831234217 | 74 | 204 | 4.0 | 11.0 | 0.00 | 0.06 | 0.06 | 87 | 1013.5 |
| 20260831234111 | 74 | 179 | 2.0 | 11.0 | 0.00 | 0.06 | 0.06 | 86 | 1013.5 |
| 20260831234005 | 74 | 187 | 2.0 | 11.0 | 0.00 | 0.06 | 0.06 | 86 | 1013.9 |
| 20260831233917 | 74 | 196 | 3.0 | 11.0 | 0.00 | 0.06 | 0.06 | 86 | 1013.5 |
| 20260831233900 | 74 | 159 | 4.0 | 11.0 | 0.00 | 0.06 | 0.06 | 86 | 1013.5 |
| 20260831233753 | 74 | 194 | 3.0 | 11.0 | 0.00 | 0.06 | 0.06 | 86 | 1013.9 |
| 20260831233648 | 74 | 186 | 3.0 | 11.0 | 0.01 | 0.06 | 0.06 | 86 | 1013.9 |
| 20260831233543 | 74 | 201 | 5.0 | 11.0 | 0.01 | 0.06 | 0.06 | 87 | 1013.9 |
| 20260831233437 | 74 | 212 | 2.0 | 6.0 | 0.01 | 0.06 | 0.06 | 87 | 1013.9 |
| 20260831233411 | 74 | 184 | 1.0 | 6.0 | 0.01 | 0.06 | 0.06 | 88 | 1013.9 |
| 20260831233332 | 74 | 179 | 4.0 | 6.0 | 0.01 | 0.06 | 0.06 | 87 | 1013.9 |
| 20260831233225 | 74 | 209 | 2.0 | 6.0 | 0.01 | 0.06 | 0.06 | 88 | 1013.9 |
| 20260831233118 | 74 | 179 | 2.0 | 4.0 | 0.01 | 0.06 | 0.06 | 88 | 1013.5 |
| 20260831233012 | 74 | 180 | 3.0 | 4.0 | 0.01 | 0.06 | 0.06 | 87 | 1013.5 |
| 20260831232919 | 74 | 192 | 2.0 | 4.0 | 0.01 | 0.06 | 0.06 | 88 | 1013.5 |
| 20260831232801 | 74 | 229 | 3.0 | 4.0 | 0.01 | 0.06 | 0.06 | 88 | 1014.2 |
| 20260831232656 | 74 | 178 | 3.0 | 4.0 | 0.01 | 0.06 | 0.06 | 88 | 1013.9 |
| 20260831232549 | 74 | 196 | 2.0 | 3.0 | 0.01 | 0.06 | 0.06 | 88 | 1013.9 |
| 20260831232444 | 74 | 167 | 2.0 | 3.0 | 0.01 | 0.06 | 0.06 | 88 | 1013.9 |
| 20260831232356 | 74 | 152 | 3.0 | 4.0 | 0.01 | 0.06 | 0.06 | 88 | 1013.9 |
| 20260831232338 | 74 | 188 | 2.0 | 4.0 | 0.01 | 0.06 | 0.06 | 88 | 1013.9 |
| 20260831232232 | 74 | 137 | 3.0 | 4.0 | 0.01 | 0.06 | 0.06 | 88 | 1013.9 |
| 20260831232127 | 74 | 191 | 2.0 | 4.0 | 0.01 | 0.06 | 0.06 | 88 | 1013.9 |
| 20260831232021 | 74 | 172 | 2.0 | 4.0 | 0.01 | 0.06 | 0.06 | 88 | 1013.9 |
| 20260831231916 | 74 | 182 | 2.0 | 4.0 | 0.01 | 0.06 | 0.06 | 88 | 1013.9 |
| 20260831231849 | 74 | 196 | 0.0 | 4.0 | 0.01 | 0.06 | 0.06 | 88 | 1013.9 |
| 20260831231810 | 74 | 195 | 1.0 | 4.0 | 0.01 | 0.06 | 0.06 | 88 | 1013.9 |
| 20260831231702 | 74 | 184 | 0.0 | 8.0 | 0.01 | 0.06 | 0.06 | 88 | 1013.9 |
| 20260831231619 | 74 | 188 | 2.0 | 8.0 | 0.01 | 0.06 | 0.06 | 88 | 1014.2 |
| 20260831231610 | 75 | 176 | 3.0 | 8.0 | 0.01 | 0.06 | 0.06 | 87 | 1014.2 |
| 20260831231600 | 75 | 179 | 3.0 | 8.0 | 0.01 | 0.06 | 0.06 | 87 | 1013.9 |
| 20260831231252 | 75 | 191 | 1.0 | 8.0 | 0.01 | 0.06 | 0.06 | 87 | 1013.9 |
| 20260831231134 | 75 | 191 | 1.0 | 8.0 | 0.01 | 0.06 | 0.06 | 87 | 1013.9 |
| 20260831231029 | 75 | 196 | 3.0 | 8.0 | 0.01 | 0.06 | 0.06 | 87 | 1013.9 |
| 20260831230923 | 75 | 189 | 2.0 | 8.0 | 0.01 | 0.06 | 0.06 | 87 | 1013.9 |
| 20260831230835 | 75 | 174 | 2.0 | 8.0 | 0.01 | 0.06 | 0.06 | 87 | 1013.9 |
| 20260831230817 | 75 | 186 | 1.0 | 8.0 | 0.01 | 0.06 | 0.06 | 87 | 1013.9 |
| 20260831230712 | 75 | 191 | 6.0 | 8.0 | 0.01 | 0.06 | 0.06 | 87 | 1013.9 |
| 20260831230619 | 75 | 146 | 1.0 | 7.0 | 0.01 | 0.06 | 0.06 | 88 | 1013.9 |
| 20260831230501 | 75 | 200 | 2.0 | 7.0 | 0.01 | 0.06 | 0.06 | 87 | 1013.9 |
| 20260831230354 | 75 | 205 | 3.0 | 7.0 | 0.01 | 0.06 | 0.06 | 87 | 1014.2 |
| 20260831230328 | 75 | 141 | 4.0 | 7.0 | 0.01 | 0.06 | 0.06 | 87 | 1014.2 |
| 20260831230248 | 75 | 187 | 2.0 | 7.0 | 0.01 | 0.06 | 0.06 | 87 | 1014.2 |
| 20260831230143 | 75 | 177 | 2.0 | 7.0 | 0.01 | 0.06 | 0.06 | 87 | 1013.9 |
| 20260831230037 | 75 | 166 | 2.0 | 7.0 | 0.01 | 0.06 | 0.06 | 87 | 1014.2 |
| 20260831225932 | 75 | 155 | 1.0 | 7.0 | 0.01 | 0.06 | 0.06 | 86 | 1014.2 |
| 20260831225826 | 75 | 182 | 1.0 | 7.0 | 0.01 | 0.06 | 0.06 | 86 | 1014.2 |
| 20260831225721 | 75 | 184 | 3.0 | 7.0 | 0.01 | 0.06 | 0.06 | 86 | 1014.2 |
| 20260831225614 | 75 | 214 | 2.0 | 7.0 | 0.01 | 0.06 | 0.06 | 86 | 1014.2 |
| 20260831225509 | 75 | 198 | 2.0 | 6.0 | 0.01 | 0.06 | 0.06 | 87 | 1014.2 |
| 20260831225403 | 75 | 168 | 2.0 | 6.0 | 0.01 | 0.06 | 0.06 | 87 | 1014.2 |
| 20260831225314 | 75 | 177 | 3.0 | 6.0 | 0.01 | 0.06 | 0.06 | 87 | 1014.2 |
| 20260831225258 | 75 | 131 | 0.0 | 4.0 | 0.01 | 0.06 | 0.06 | 88 | 1014.2 |
| 20260831225151 | 76 | 217 | 3.0 | 4.0 | 0.01 | 0.06 | 0.06 | 87 | 1013.9 |
| 20260831225046 | 76 | 128 | 3.0 | 4.0 | 0.01 | 0.06 | 0.06 | 87 | 1013.9 |
| 20260831224940 | 76 | 110 | 1.0 | 4.0 | 0.01 | 0.06 | 0.06 | 88 | 1014.2 |
| 20260831224836 | 76 | 158 | 1.0 | 4.0 | 0.01 | 0.06 | 0.06 | 88 | 1014.6 |
| 20260831224808 | 76 | 144 | 0.0 | 4.0 | 0.01 | 0.06 | 0.06 | 87 | 1014.6 |
| 20260831224729 | 76 | 204 | 1.0 | 4.0 | 0.01 | 0.06 | 0.06 | 87 | 1014.6 |
| 20260831224623 | 76 | 195 | 1.0 | 4.0 | 0.01 | 0.06 | 0.06 | 87 | 1014.2 |
| 20260831224518 | 76 | 212 | 1.0 | 4.0 | 0.01 | 0.06 | 0.06 | 87 | 1014.2 |
| 20260831224411 | 75 | 216 | 3.0 | 4.0 | 0.01 | 0.06 | 0.06 | 85 | 1014.6 |
| 20260831224305 | 75 | 229 | 1.0 | 3.0 | 0.01 | 0.06 | 0.06 | 86 | 1014.9 |
| 20260831224200 | 76 | 199 | 1.0 | 3.0 | 0.01 | 0.06 | 0.06 | 87 | 1014.6 |
| 20260831224054 | 76 | 144 | 1.0 | 3.0 | 0.01 | 0.06 | 0.06 | 87 | 1014.2 |
| 20260831223950 | 76 | 168 | 0.0 | 3.0 | 0.01 | 0.06 | 0.06 | 86 | 1014.6 |
| 20260831223843 | 76 | 149 | 0.0 | 3.0 | 0.01 | 0.06 | 0.06 | 86 | 1014.6 |
| 20260831223755 | 76 | 142 | 0.0 | 3.0 | 0.01 | 0.06 | 0.06 | 85 | 1014.6 |
| 20260831223737 | 76 | 231 | 0.0 | 3.0 | 0.01 | 0.06 | 0.06 | 85 | 1014.6 |
| 20260831223632 | 76 | 213 | 0.0 | 3.0 | 0.00 | 0.05 | 0.05 | 85 | 1014.6 |
| 20260831223530 | 76 | 204 | 2.0 | 6.0 | 0.00 | 0.05 | 0.05 | 83 | 1014.6 |
| 20260831223526 | 76 | 224 | 0.0 | 3.0 | 0.00 | 0.05 | 0.05 | 84 | 1014.6 |
| 20260831223517 | 76 | 218 | 2.0 | 6.0 | 0.00 | 0.05 | 0.05 | 83 | 1014.2 |
| 20260831223509 | 76 | 210 | 2.0 | 6.0 | 0.00 | 0.05 | 0.05 | 83 | 1014.6 |
| 20260831223209 | 76 | 195 | 2.0 | 6.0 | 0.00 | 0.05 | 0.05 | 83 | 1014.6 |
| 20260831223102 | 76 | 206 | 0.0 | 6.0 | 0.00 | 0.05 | 0.05 | 83 | 1014.6 |
| 20260831222957 | 76 | 193 | 2.0 | 6.0 | 0.00 | 0.05 | 0.05 | 83 | 1014.6 |
| 20260831222850 | 76 | 191 | 2.0 | 6.0 | 0.00 | 0.05 | 0.05 | 84 | 1014.9 |
| 20260831222745 | 76 | 193 | 2.0 | 6.0 | 0.00 | 0.05 | 0.05 | 84 | 1014.6 |
| 20260831222640 | 76 | 216 | 1.0 | 6.0 | 0.00 | 0.05 | 0.05 | 83 | 1014.2 |
| 20260831222533 | 75 | 230 | 2.0 | 6.0 | 0.00 | 0.05 | 0.05 | 83 | 1014.6 |
| 20260831222427 | 75 | 183 | 4.0 | 6.0 | 0.00 | 0.05 | 0.05 | 84 | 1014.6 |
| 20260831222323 | 75 | 196 | 2.0 | 6.0 | 0.00 | 0.05 | 0.05 | 84 | 1014.6 |
| 20260831222234 | 75 | 202 | 5.0 | 6.0 | 0.00 | 0.05 | 0.05 | 84 | 1014.6 |
| 20260831222216 | 75 | 223 | 1.0 | 3.0 | 0.00 | 0.05 | 0.05 | 85 | 1014.6 |
| 20260831222111 | 75 | 220 | 1.0 | 3.0 | 0.00 | 0.05 | 0.05 | 85 | 1014.6 |
| 20260831222007 | 75 | 220 | 1.0 | 4.0 | 0.00 | 0.05 | 0.05 | 85 | 1014.6 |
| 20260831221900 | 75 | 179 | 0.0 | 6.0 | 0.00 | 0.05 | 0.05 | 85 | 1014.9 |
| 20260831221753 | 75 | 201 | 1.0 | 6.0 | 0.00 | 0.05 | 0.05 | 85 | 1014.6 |
| 20260831221727 | 75 | 182 | 2.0 | 6.0 | 0.00 | 0.05 | 0.05 | 85 | 1014.6 |
| 20260831221648 | 75 | 160 | 3.0 | 6.0 | 0.00 | 0.05 | 0.05 | 85 | 1014.6 |
| 20260831221542 | 75 | 209 | 3.0 | 6.0 | 0.00 | 0.05 | 0.05 | 85 | 1014.6 |
| 20260831221437 | 75 | 203 | 2.0 | 6.0 | 0.00 | 0.05 | 0.05 | 85 | 1014.6 |
| 20260831221331 | 75 | 219 | 1.0 | 6.0 | 0.00 | 0.05 | 0.05 | 85 | 1014.6 |
| 20260831221225 | 75 | 216 | 1.0 | 6.0 | 0.00 | 0.05 | 0.05 | 85 | 1014.6 |
| 20260831221119 | 75 | 202 | 2.0 | 6.0 | 0.00 | 0.05 | 0.05 | 85 | 1014.6 |
| 20260831221014 | 75 | 223 | 5.0 | 6.0 | 0.00 | 0.05 | 0.05 | 85 | 1014.9 |
| 20260831220949 | 75 | 186 | 4.0 | 6.0 | 0.00 | 0.05 | 0.05 | 85 | 1014.9 |
| 20260831220941 | 75 | 207 | 3.0 | 6.0 | 0.00 | 0.05 | 0.05 | 85 | 1014.6 |
| 20260831220932 | 75 | 211 | 3.0 | 6.0 | 0.00 | 0.05 | 0.05 | 85 | 1014.9 |
| 20260831220656 | 75 | 210 | 4.0 | 6.0 | 0.00 | 0.05 | 0.05 | 85 | 1014.9 |
| 20260831220551 | 75 | 188 | 2.0 | 4.0 | 0.00 | 0.05 | 0.05 | 85 | 1014.9 |
| 20260831220449 | 75 | 320 | 2.0 | 6.0 | 0.00 | 0.05 | 0.05 | 85 | 1015.3 |
| 20260831220447 | 75 | 207 | 3.0 | 6.0 | 0.00 | 0.05 | 0.05 | 85 | 1014.9 |
| 20260831220435 | 75 | 194 | 0.0 | 6.0 | 0.00 | 0.05 | 0.05 | 85 | 1015.3 |
| 20260831220426 | 75 | 320 | 1.0 | 6.0 | 0.00 | 0.05 | 0.05 | 85 | 1015.3 |
| 20260831220128 | 75 | 29 | 1.0 | 6.0 | 0.00 | 0.05 | 0.05 | 85 | 1015.3 |
| 20260831220022 | 75 | 29 | 1.0 | 6.0 | 0.00 | 0.05 | 0.05 | 85 | 1015.3 |
| 20260831215917 | 75 | 208 | 2.0 | 7.0 | 0.00 | 0.05 | 0.05 | 85 | 1015.3 |
| 20260831215811 | 75 | 287 | 1.0 | 7.0 | 0.00 | 0.05 | 0.05 | 84 | 1015.3 |
| 20260831215705 | 75 | 204 | 2.0 | 7.0 | 0.00 | 0.05 | 0.05 | 84 | 1014.9 |
| 20260831215600 | 75 | 241 | 3.0 | 7.0 | 0.00 | 0.05 | 0.05 | 84 | 1014.6 |
| 20260831215454 | 75 | 215 | 1.0 | 7.0 | 0.00 | 0.05 | 0.05 | 84 | 1014.9 |
| 20260831215348 | 75 | 214 | 2.0 | 7.0 | 0.00 | 0.05 | 0.05 | 84 | 1014.2 |
| 20260831215242 | 75 | 213 | 2.0 | 7.0 | 0.00 | 0.05 | 0.05 | 84 | 1014.2 |
| 20260831215154 | 75 | 107 | 0.0 | 7.0 | 0.00 | 0.05 | 0.05 | 84 | 1014.2 |
| 20260831215137 | 75 | 167 | 2.0 | 7.0 | 0.00 | 0.05 | 0.05 | 84 | 1014.2 |
| 20260831215030 | 75 | 262 | 4.0 | 7.0 | 0.00 | 0.05 | 0.05 | 84 | 1014.2 |
| 20260831214925 | 75 | 196 | 2.0 | 7.0 | 0.00 | 0.05 | 0.05 | 84 | 1014.6 |
| 20260831214819 | 75 | 153 | 5.0 | 7.0 | 0.00 | 0.05 | 0.05 | 83 | 1014.2 |
| 20260831214714 | 75 | 143 | 4.0 | 7.0 | 0.00 | 0.05 | 0.05 | 83 | 1014.2 |
| 20260831214647 | 75 | 135 | 2.0 | 7.0 | 0.00 | 0.05 | 0.05 | 84 | 1014.2 |
| 20260831214609 | 75 | 174 | 3.0 | 7.0 | 0.00 | 0.05 | 0.05 | 84 | 1014.2 |
| 20260831214503 | 75 | 172 | 4.0 | 7.0 | 0.00 | 0.05 | 0.05 | 84 | 1014.2 |
| 20260831214419 | 75 | 176 | 4.0 | 7.0 | 0.00 | 0.05 | 0.05 | 84 | 1014.6 |
| 20260831214411 | 75 | 193 | 5.0 | 7.0 | 0.00 | 0.05 | 0.05 | 84 | 1014.6 |
| 20260831214400 | 75 | 206 | 2.0 | 8.0 | 0.00 | 0.05 | 0.05 | 84 | 1014.6 |
| 20260831214039 | 75 | 204 | 2.0 | 8.0 | 0.00 | 0.05 | 0.05 | 84 | 1014.2 |
| 20260831213934 | 75 | 177 | 2.0 | 8.0 | 0.00 | 0.05 | 0.05 | 85 | 1014.2 |
| 20260831213841 | 75 | 213 | 3.0 | 8.0 | 0.00 | 0.05 | 0.05 | 84 | 1014.6 |
| 20260831213723 | 75 | 111 | 2.0 | 8.0 | 0.00 | 0.05 | 0.05 | 84 | 1014.6 |
| 20260831213634 | 75 | 143 | 4.0 | 8.0 | 0.00 | 0.05 | 0.05 | 84 | 1014.6 |
| 20260831213617 | 75 | 178 | 2.0 | 8.0 | 0.00 | 0.05 | 0.05 | 84 | 1014.6 |
| 20260831213511 | 75 | 200 | 2.0 | 8.0 | 0.00 | 0.05 | 0.05 | 84 | 1014.6 |
| 20260831213405 | 75 | 130 | 6.0 | 8.0 | 0.00 | 0.05 | 0.05 | 84 | 1014.9 |
| 20260831213258 | 75 | 196 | 3.0 | 8.0 | 0.00 | 0.05 | 0.05 | 84 | 1014.9 |
| 20260831213126 | 75 | 157 | 2.0 | 8.0 | 0.00 | 0.05 | 0.05 | 84 | 1015.3 |
| 20260831213047 | 75 | 175 | 3.0 | 8.0 | 0.00 | 0.05 | 0.05 | 84 | 1015.3 |
| 20260831212940 | 75 | 186 | 4.0 | 8.0 | 0.00 | 0.05 | 0.05 | 84 | 1015.3 |
| 20260831212835 | 75 | 146 | 4.0 | 8.0 | 0.00 | 0.05 | 0.05 | 84 | 1015.3 |
| 20260831212729 | 75 | 182 | 2.0 | 8.0 | 0.00 | 0.05 | 0.05 | 84 | 1015.3 |
| 20260831212623 | 75 | 205 | 3.0 | 8.0 | 0.00 | 0.05 | 0.05 | 84 | 1015.3 |
| 20260831212518 | 75 | 200 | 5.0 | 8.0 | 0.00 | 0.05 | 0.05 | 84 | 1014.9 |
| 20260831212412 | 75 | 213 | 4.0 | 8.0 | 0.00 | 0.05 | 0.05 | 84 | 1014.9 |
| 20260831212307 | 75 | 184 | 3.0 | 7.0 | 0.00 | 0.05 | 0.05 | 84 | 1014.9 |
| 20260831212156 | 75 | 181 | 4.0 | 6.0 | 0.00 | 0.05 | 0.05 | 84 | 1015.3 |
| 20260831212119 | 75 | 166 | 3.0 | 6.0 | 0.00 | 0.05 | 0.05 | 84 | 1014.9 |
| 20260831212050 | 75 | 217 | 3.0 | 6.0 | 0.00 | 0.05 | 0.05 | 84 | 1014.9 |
| 20260831211945 | 75 | 185 | 3.0 | 8.0 | 0.00 | 0.05 | 0.05 | 84 | 1014.9 |
| 20260831211839 | 75 | 213 | 3.0 | 8.0 | 0.00 | 0.05 | 0.05 | 84 | 1014.9 |
| 20260831211734 | 75 | 204 | 2.0 | 8.0 | 0.00 | 0.05 | 0.05 | 84 | 1014.9 |
| 20260831211612 | 75 | 185 | 2.0 | 8.0 | 0.00 | 0.05 | 0.05 | 84 | 1014.9 |
| 20260831211522 | 75 | 191 | 1.0 | 11.0 | 0.00 | 0.05 | 0.05 | 84 | 1014.9 |
| 20260831211416 | 75 | 199 | 3.0 | 11.0 | 0.00 | 0.05 | 0.05 | 84 | 1014.9 |
| 20260831211338 | 75 | 199 | 2.0 | 11.0 | 0.00 | 0.05 | 0.05 | 84 | 1014.9 |
| 20260831211332 | 75 | 202 | 2.0 | 11.0 | 0.00 | 0.05 | 0.05 | 84 | 1014.9 |
| 20260831211323 | 75 | 213 | 3.0 | 11.0 | 0.00 | 0.05 | 0.05 | 84 | 1014.9 |
| 20260831211058 | 75 | 169 | 3.0 | 11.0 | 0.00 | 0.05 | 0.05 | 84 | 1014.9 |
| 20260831210953 | 75 | 135 | 5.0 | 11.0 | 0.00 | 0.05 | 0.05 | 84 | 1014.9 |
| 20260831210848 | 75 | 131 | 3.0 | 11.0 | 0.00 | 0.05 | 0.05 | 84 | 1014.9 |
| 20260831210741 | 75 | 189 | 3.0 | 11.0 | 0.00 | 0.05 | 0.05 | 84 | 1014.9 |
| 20260831210636 | 75 | 124 | 2.0 | 11.0 | 0.00 | 0.05 | 0.05 | 84 | 1014.9 |
| 20260831210558 | 75 | 214 | 8.0 | 11.0 | 0.00 | 0.05 | 0.05 | 84 | 1014.9 |
| 20260831210530 | 75 | 161 | 2.0 | 10.0 | 0.00 | 0.05 | 0.05 | 84 | 1014.9 |
| 20260831210425 | 75 | 130 | 4.0 | 10.0 | 0.00 | 0.05 | 0.05 | 84 | 1014.9 |
| 20260831210318 | 75 | 212 | 4.0 | 10.0 | 0.00 | 0.05 | 0.05 | 85 | 1014.9 |
| 20260831210212 | 75 | 153 | 4.0 | 10.0 | 0.00 | 0.05 | 0.05 | 84 | 1014.6 |
| 20260831210107 | 75 | 88 | 2.0 | 10.0 | 0.00 | 0.05 | 0.05 | 85 | 1014.9 |
| 20260831210050 | 75 | 111 | 2.0 | 10.0 | 0.00 | 0.05 | 0.05 | 84 | 1014.9 |
| 20260831210001 | 75 | 167 | 2.0 | 10.0 | 0.00 | 0.05 | 0.05 | 84 | 1014.9 |
| 20260831205853 | 75 | 64 | 4.0 | 10.0 | 0.00 | 0.05 | 0.05 | 84 | 1014.6 |
| 20260831205747 | 75 | 113 | 2.0 | 8.0 | 0.00 | 0.05 | 0.05 | 84 | 1014.9 |
| 20260831205642 | 75 | 152 | 2.0 | 8.0 | 0.00 | 0.05 | 0.05 | 84 | 1014.9 |
| 20260831205542 | 75 | 126 | 3.0 | 8.0 | 0.00 | 0.05 | 0.05 | 84 | 1014.9 |
| 20260831205536 | 75 | 153 | 4.0 | 8.0 | 0.00 | 0.05 | 0.05 | 84 | 1015.3 |
| 20260831205431 | 75 | 163 | 3.0 | 8.0 | 0.00 | 0.05 | 0.05 | 84 | 1015.3 |
| 20260831205324 | 75 | 128 | 3.0 | 8.0 | 0.00 | 0.05 | 0.05 | 84 | 1015.3 |
| 20260831205219 | 75 | 176 | 1.0 | 8.0 | 0.00 | 0.05 | 0.05 | 85 | 1014.9 |
| 20260831205113 | 75 | 185 | 1.0 | 8.0 | 0.00 | 0.05 | 0.05 | 85 | 1015.3 |
| 20260831205036 | 75 | 173 | 3.0 | 8.0 | 0.00 | 0.05 | 0.05 | 85 | 1015.3 |
| 20260831205007 | 75 | 193 | 2.0 | 8.0 | 0.00 | 0.05 | 0.05 | 85 | 1015.3 |
| 20260831204902 | 75 | 139 | 2.0 | 8.0 | 0.00 | 0.05 | 0.05 | 85 | 1015.3 |
| 20260831204805 | 75 | 145 | 2.0 | 8.0 | 0.00 | 0.05 | 0.05 | 85 | 1015.3 |
| 20260831204756 | 75 | 57 | 1.0 | 8.0 | 0.00 | 0.05 | 0.05 | 84 | 1015.3 |
| 20260831204747 | 75 | 167 | 1.0 | 8.0 | 0.00 | 0.05 | 0.05 | 84 | 1015.3 |
| 20260831204438 | 75 | 154 | 5.0 | 8.0 | 0.00 | 0.05 | 0.05 | 84 | 1015.3 |
| 20260831204332 | 75 | 124 | 4.0 | 8.0 | 0.00 | 0.05 | 0.05 | 85 | 1015.3 |
| 20260831204227 | 75 | 125 | 3.0 | 8.0 | 0.00 | 0.05 | 0.05 | 85 | 1015.3 |
| 20260831204120 | 75 | 153 | 4.0 | 8.0 | 0.00 | 0.05 | 0.05 | 85 | 1015.3 |
| 20260831204016 | 75 | 164 | 1.0 | 8.0 | 0.00 | 0.05 | 0.05 | 85 | 1015.3 |
| 20260831203909 | 75 | 186 | 4.0 | 8.0 | 0.00 | 0.05 | 0.05 | 85 | 1014.9 |
| 20260831203804 | 75 | 89 | 3.0 | 8.0 | 0.00 | 0.05 | 0.05 | 85 | 1014.9 |
| 20260831203658 | 75 | 160 | 1.0 | 8.0 | 0.00 | 0.05 | 0.05 | 86 | 1015.3 |
| 20260831203552 | 75 | 186 | 3.0 | 8.0 | 0.00 | 0.05 | 0.05 | 86 | 1015.3 |
| 20260831203514 | 75 | 187 | 3.0 | 8.0 | 0.00 | 0.05 | 0.05 | 86 | 1015.3 |
| 20260831203447 | 75 | 131 | 3.0 | 8.0 | 0.00 | 0.05 | 0.05 | 86 | 1015.3 |
| 20260831203341 | 75 | 122 | 2.0 | 8.0 | 0.00 | 0.05 | 0.05 | 86 | 1014.9 |
| 20260831203248 | 75 | 126 | 2.0 | 8.0 | 0.00 | 0.05 | 0.05 | 86 | 1015.3 |
| 20260831203129 | 75 | 181 | 3.0 | 8.0 | 0.00 | 0.05 | 0.05 | 87 | 1015.3 |
| 20260831203024 | 75 | 193 | 3.0 | 8.0 | 0.00 | 0.05 | 0.05 | 87 | 1015.3 |
| 20260831203008 | 75 | 194 | 3.0 | 8.0 | 0.00 | 0.05 | 0.05 | 87 | 1015.3 |
| 20260831202918 | 75 | 159 | 4.0 | 8.0 | 0.00 | 0.05 | 0.05 | 87 | 1015.3 |
| 20260831202812 | 75 | 133 | 3.0 | 8.0 | 0.00 | 0.05 | 0.05 | 87 | 1015.3 |
| 20260831202720 | 75 | 160 | 1.0 | 6.0 | 0.00 | 0.05 | 0.05 | 87 | 1015.6 |
| 20260831202600 | 75 | 177 | 2.0 | 6.0 | 0.00 | 0.05 | 0.05 | 87 | 1015.3 |
| 20260831202503 | 75 | 116 | 2.0 | 6.0 | 0.00 | 0.05 | 0.05 | 87 | 1015.3 |
| 20260831202455 | 75 | 147 | 1.0 | 6.0 | 0.00 | 0.05 | 0.05 | 87 | 1015.3 |
| 20260831202350 | 75 | 164 | 1.0 | 6.0 | 0.00 | 0.05 | 0.05 | 87 | 1015.3 |
| 20260831202244 | 75 | 183 | 1.0 | 8.0 | 0.00 | 0.05 | 0.05 | 87 | 1015.3 |
| 20260831202225 | 75 | 139 | 1.0 | 8.0 | 0.00 | 0.05 | 0.05 | 87 | 1015.6 |
| 20260831202221 | 75 | 179 | 4.0 | 8.0 | 0.00 | 0.05 | 0.05 | 87 | 1015.6 |
| 20260831202212 | 75 | 102 | 4.0 | 8.0 | 0.00 | 0.05 | 0.05 | 86 | 1015.6 |
| 20260831201926 | 75 | 160 | 1.0 | 8.0 | 0.00 | 0.05 | 0.05 | 87 | 1015.3 |
| 20260831201821 | 75 | 163 | 3.0 | 8.0 | 0.00 | 0.05 | 0.05 | 87 | 1015.3 |
| 20260831201715 | 75 | 78 | 1.0 | 8.0 | 0.00 | 0.05 | 0.05 | 87 | 1015.6 |
| 20260831201608 | 75 | 160 | 2.0 | 8.0 | 0.00 | 0.05 | 0.05 | 86 | 1015.3 |
| 20260831201504 | 74 | 107 | 2.0 | 8.0 | 0.00 | 0.05 | 0.05 | 87 | 1015.3 |
| 20260831201448 | 74 | 168 | 2.0 | 8.0 | 0.00 | 0.05 | 0.05 | 87 | 1015.3 |
| 20260831201357 | 74 | 142 | 2.0 | 8.0 | 0.00 | 0.05 | 0.05 | 87 | 1015.3 |
| 20260831201252 | 74 | 95 | 4.0 | 7.0 | 0.00 | 0.05 | 0.05 | 87 | 1015.3 |
| 20260831201147 | 74 | 186 | 3.0 | 6.0 | 0.00 | 0.05 | 0.05 | 87 | 1015.3 |
| 20260831201053 | 74 | 132 | 1.0 | 6.0 | 0.00 | 0.05 | 0.05 | 88 | 1015.3 |
| 20260831200935 | 74 | 211 | 2.0 | 6.0 | 0.00 | 0.05 | 0.05 | 88 | 1015.3 |
| 20260831200828 | 74 | 134 | 1.0 | 6.0 | 0.00 | 0.05 | 0.05 | 88 | 1015.6 |
| 20260831200723 | 74 | 139 | 1.0 | 9.0 | 0.00 | 0.05 | 0.05 | 88 | 1015.3 |
| 20260831200630 | 74 | 127 | 2.0 | 9.0 | 0.00 | 0.05 | 0.05 | 88 | 1015.6 |
| 20260831200512 | 74 | 113 | 2.0 | 9.0 | 0.00 | 0.05 | 0.05 | 88 | 1015.6 |
| 20260831200434 | 74 | 129 | 2.0 | 9.0 | 0.00 | 0.05 | 0.05 | 88 | 1015.6 |
| 20260831200406 | 74 | 200 | 1.0 | 9.0 | 0.00 | 0.05 | 0.05 | 88 | 1015.6 |
| 20260831200300 | 74 | 131 | 4.0 | 9.0 | 0.00 | 0.05 | 0.05 | 87 | 1015.3 |
| 20260831200154 | 74 | 117 | 2.0 | 9.0 | 0.00 | 0.05 | 0.05 | 87 | 1015.6 |
| 20260831195943 | 74 | 139 | 0.0 | 9.0 | 0.00 | 0.05 | 0.05 | 87 | 1015.9 |
| 20260831195927 | 74 | 74 | 1.0 | 9.0 | 0.00 | 0.05 | 0.05 | 87 | 1015.6 |
| 20260831195837 | 74 | 101 | 2.0 | 9.0 | 0.00 | 0.05 | 0.05 | 86 | 1015.6 |
| 20260831195732 | 74 | 181 | 1.0 | 8.0 | 0.00 | 0.05 | 0.05 | 87 | 1015.9 |
| 20260831195625 | 74 | 150 | 3.0 | 11.0 | 0.00 | 0.05 | 0.05 | 87 | 1015.9 |
| 20260831195520 | 75 | 315 | 3.0 | 11.0 | 0.00 | 0.05 | 0.05 | 87 | 1015.9 |
| 20260831195421 | 75 | 89 | 2.0 | 11.0 | 0.00 | 0.05 | 0.05 | 88 | 1015.9 |
| 20260831195415 | 75 | 338 | 4.0 | 11.0 | 0.00 | 0.05 | 0.05 | 87 | 1015.9 |
| 20260831195309 | 75 | 145 | 0.0 | 11.0 | 0.00 | 0.05 | 0.05 | 89 | 1016.3 |
| 20260831195203 | 75 | 137 | 1.0 | 11.0 | 0.00 | 0.05 | 0.05 | 89 | 1015.9 |
| 20260831195058 | 75 | 167 | 2.0 | 11.0 | 0.00 | 0.05 | 0.05 | 89 | 1015.9 |
| 20260831194951 | 75 | 139 | 2.0 | 11.0 | 0.00 | 0.05 | 0.05 | 88 | 1015.9 |
| 20260831194915 | 75 | 92 | 0.0 | 11.0 | 0.00 | 0.05 | 0.05 | 89 | 1015.9 |
| 20260831194846 | 75 | 194 | 0.0 | 11.0 | 0.01 | 0.05 | 0.05 | 89 | 1015.9 |
| 20260831194740 | 75 | 155 | 0.0 | 11.0 | 0.01 | 0.05 | 0.05 | 89 | 1015.9 |
| 20260831194647 | 75 | 131 | 0.0 | 3.0 | 0.01 | 0.05 | 0.05 | 90 | 1016.3 |
| 20260831194643 | 75 | 84 | 4.0 | 8.0 | 0.01 | 0.05 | 0.05 | 89 | 1016.3 |
| 20260831194635 | 75 | 182 | 4.0 | 7.0 | 0.01 | 0.05 | 0.05 | 89 | 1015.9 |
| 20260831194626 | 75 | 127 | 0.0 | 3.0 | 0.01 | 0.05 | 0.05 | 90 | 1016.3 |
| 20260831194317 | 75 | 55 | 1.0 | 3.0 | 0.01 | 0.05 | 0.05 | 90 | 1016.3 |
| 20260831194225 | 75 | 122 | 1.0 | 3.0 | 0.01 | 0.05 | 0.05 | 89 | 1016.3 |
| 20260831194106 | 75 | 328 | 1.0 | 3.0 | 0.01 | 0.05 | 0.05 | 89 | 1016.3 |
| 20260831194000 | 75 | 63 | 0.0 | 2.0 | 0.01 | 0.05 | 0.05 | 91 | 1016.3 |
| 20260831193901 | 75 | 349 | 1.0 | 2.0 | 0.01 | 0.05 | 0.05 | 91 | 1016.3 |
| 20260831193855 | 75 | 349 | 1.0 | 2.0 | 0.01 | 0.05 | 0.05 | 91 | 1016.3 |
| 20260831193750 | 74 | 71 | 0.0 | 2.0 | 0.01 | 0.05 | 0.05 | 91 | 1016.3 |
| 20260831193643 | 74 | 117 | 0.0 | 2.0 | 0.01 | 0.05 | 0.05 | 91 | 1016.3 |
| 20260831193538 | 74 | 83 | 1.0 | 2.0 | 0.01 | 0.05 | 0.05 | 91 | 1016.6 |
| 20260831193431 | 74 | 354 | 0.0 | 2.0 | 0.01 | 0.05 | 0.05 | 92 | 1016.3 |
| 20260831193355 | 74 | 354 | 0.0 | 2.0 | 0.01 | 0.05 | 0.05 | 92 | 1016.3 |
| 20260831193326 | 74 | 354 | 0.0 | 2.0 | 0.01 | 0.05 | 0.05 | 92 | 1016.3 |
| 20260831193220 | 74 | 355 | 0.0 | 2.0 | 0.01 | 0.05 | 0.05 | 92 | 1016.3 |
| 20260831193116 | 74 | 86 | 1.0 | 2.0 | 0.01 | 0.05 | 0.05 | 92 | 1016.3 |
| 20260831193009 | 74 | 3 | 1.0 | 2.0 | 0.01 | 0.05 | 0.05 | 92 | 1016.3 |
| 20260831192904 | 74 | 51 | 0.0 | 2.0 | 0.01 | 0.05 | 0.05 | 92 | 1016.3 |
| 20260831192848 | 74 | 45 | 0.0 | 2.0 | 0.01 | 0.05 | 0.05 | 92 | 1016.3 |
| 20260831192758 | 74 | 44 | 0.0 | 2.0 | 0.01 | 0.05 | 0.05 | 92 | 1016.6 |
| 20260831192652 | 74 | 43 | 0.0 | 2.0 | 0.01 | 0.05 | 0.05 | 92 | 1016.3 |
| 20260831192547 | 74 | 35 | 0.0 | 2.0 | 0.01 | 0.05 | 0.05 | 92 | 1016.6 |
| 20260831192440 | 74 | 350 | 0.0 | 2.0 | 0.01 | 0.05 | 0.05 | 91 | 1016.6 |
| 20260831192341 | 74 | 354 | 0.0 | 4.0 | 0.01 | 0.05 | 0.05 | 91 | 1016.6 |
| 20260831192334 | 74 | 351 | 0.0 | 4.0 | 0.01 | 0.05 | 0.05 | 91 | 1016.3 |
| 20260831192229 | 74 | 9 | 0.0 | 4.0 | 0.01 | 0.05 | 0.05 | 91 | 1016.3 |
| 20260831192123 | 74 | 28 | 1.0 | 4.0 | 0.01 | 0.05 | 0.05 | 91 | 1016.3 |
| 20260831192017 | 74 | 95 | 0.0 | 4.0 | 0.01 | 0.05 | 0.05 | 91 | 1016.3 |
| 20260831191912 | 74 | 91 | 0.0 | 4.0 | 0.01 | 0.05 | 0.05 | 91 | 1016.3 |
| 20260831191834 | 74 | 98 | 0.0 | 4.0 | 0.01 | 0.05 | 0.05 | 91 | 1016.3 |
| 20260831191806 | 74 | 168 | 1.0 | 4.0 | 0.01 | 0.05 | 0.05 | 90 | 1016.3 |
| 20260831191700 | 74 | 126 | 0.0 | 4.0 | 0.01 | 0.05 | 0.05 | 91 | 1016.3 |
| 20260831191555 | 74 | 115 | 0.0 | 4.0 | 0.01 | 0.05 | 0.05 | 91 | 1016.3 |
| 20260831191450 | 74 | 166 | 2.0 | 4.0 | 0.01 | 0.05 | 0.05 | 91 | 1015.9 |
| 20260831191343 | 74 | 116 | 2.0 | 3.0 | 0.01 | 0.05 | 0.05 | 91 | 1016.3 |
| 20260831191327 | 74 | 107 | 1.0 | 3.0 | 0.01 | 0.05 | 0.05 | 91 | 1016.3 |
| 20260831191240 | 74 | 97 | 0.0 | 3.0 | 0.01 | 0.05 | 0.05 | 91 | 1016.3 |
| 20260831191131 | 74 | 101 | 1.0 | 1.0 | 0.01 | 0.05 | 0.05 | 91 | 1016.3 |
| 20260831191026 | 74 | 37 | 0.0 | 1.0 | 0.01 | 0.05 | 0.05 | 91 | 1016.3 |
| 20260831190920 | 74 | 37 | 0.0 | 1.0 | 0.01 | 0.05 | 0.05 | 91 | 1016.3 |
| 20260831190814 | 74 | 38 | 0.0 | 1.0 | 0.01 | 0.05 | 0.05 | 91 | 1016.3 |
| 20260831190709 | 74 | 40 | 0.0 | 1.0 | 0.01 | 0.05 | 0.05 | 91 | 1016.3 |
| 20260831190604 | 74 | 35 | 0.0 | 1.0 | 0.01 | 0.05 | 0.05 | 91 | 1016.3 |
| 20260831190458 | 74 | 41 | 0.0 | 1.0 | 0.01 | 0.05 | 0.05 | 91 | 1016.3 |
| 20260831190351 | 74 | 42 | 0.0 | 1.0 | 0.01 | 0.05 | 0.05 | 91 | 1016.6 |
| 20260831190315 | 74 | 42 | 0.0 | 2.0 | 0.01 | 0.05 | 0.05 | 91 | 1016.6 |
| 20260831190247 | 74 | 42 | 0.0 | 2.0 | 0.01 | 0.05 | 0.05 | 91 | 1016.6 |
| 20260831190153 | 74 | 43 | 0.0 | 2.0 | 0.01 | 0.05 | 0.05 | 91 | 1016.3 |
| 20260831190101 | 74 | 34 | 0.0 | 2.0 | 0.01 | 0.05 | 0.05 | 91 | 1016.6 |
| 20260831190057 | 74 | 37 | 0.0 | 2.0 | 0.01 | 0.05 | 0.05 | 91 | 1016.6 |
| 20260831190036 | 74 | 13 | 0.0 | 2.0 | 0.01 | 0.05 | 0.05 | 90 | 1016.3 |
| 20260831190027 | 74 | 26 | 1.0 | 2.0 | 0.01 | 0.05 | 0.05 | 91 | 1016.6 |
| 20260831185718 | 74 | 22 | 0.0 | 2.0 | 0.01 | 0.05 | 0.05 | 90 | 1016.6 |
| 20260831185612 | 74 | 56 | 0.0 | 2.0 | 0.01 | 0.05 | 0.05 | 90 | 1016.6 |
| 20260831185506 | 74 | 139 | 1.0 | 2.0 | 0.01 | 0.05 | 0.05 | 90 | 1016.6 |
| 20260831185400 | 74 | 132 | 1.0 | 2.0 | 0.01 | 0.05 | 0.05 | 89 | 1016.6 |
| 20260831185301 | 74 | 99 | 0.0 | 2.0 | 0.01 | 0.05 | 0.05 | 91 | 1016.6 |
| 20260831185254 | 74 | 90 | 0.0 | 2.0 | 0.01 | 0.05 | 0.05 | 91 | 1016.6 |
| 20260831185149 | 74 | 131 | 0.0 | 2.0 | 0.01 | 0.05 | 0.05 | 91 | 1016.6 |
| 20260831185043 | 74 | 132 | 0.0 | 2.0 | 0.01 | 0.05 | 0.05 | 91 | 1016.6 |
| 20260831184938 | 74 | 131 | 1.0 | 2.0 | 0.01 | 0.05 | 0.05 | 90 | 1016.6 |
| 20260831184832 | 74 | 111 | 0.0 | 2.0 | 0.00 | 0.04 | 0.04 | 91 | 1016.3 |
| 20260831184754 | 74 | 111 | 0.0 | 2.0 | 0.00 | 0.04 | 0.04 | 91 | 1016.3 |
| 20260831184727 | 74 | 110 | 0.0 | 2.0 | 0.00 | 0.04 | 0.04 | 91 | 1016.3 |
| 20260831184620 | 74 | 110 | 0.0 | 2.0 | 0.00 | 0.04 | 0.04 | 90 | 1016.6 |
| 20260831184515 | 74 | 51 | 0.0 | 2.0 | 0.00 | 0.04 | 0.04 | 91 | 1016.6 |
| 20260831184410 | 74 | 50 | 0.0 | 2.0 | 0.00 | 0.04 | 0.04 | 91 | 1016.9 |
| 20260831184303 | 74 | 9 | 1.0 | 2.0 | 0.00 | 0.04 | 0.04 | 91 | 1016.9 |
| 20260831184248 | 74 | 17 | 0.0 | 2.0 | 0.00 | 0.04 | 0.04 | 91 | 1016.9 |
| 20260831184158 | 74 | 39 | 1.0 | 2.0 | 0.00 | 0.04 | 0.04 | 91 | 1016.9 |
| 20260831184052 | 74 | 18 | 0.0 | 2.0 | 0.00 | 0.04 | 0.04 | 91 | 1016.9 |
| 20260831183946 | 74 | 102 | 1.0 | 2.0 | 0.00 | 0.04 | 0.04 | 91 | 1017.3 |
| 20260831183841 | 74 | 74 | 0.0 | 2.0 | 0.00 | 0.04 | 0.04 | 90 | 1017.3 |
| 20260831183742 | 74 | 54 | 0.0 | 2.0 | 0.00 | 0.04 | 0.04 | 90 | 1017.3 |
| 20260831183735 | 74 | 54 | 0.0 | 2.0 | 0.00 | 0.04 | 0.04 | 90 | 1016.9 |
| 20260831183629 | 74 | 58 | 0.0 | 2.0 | 0.00 | 0.04 | 0.04 | 90 | 1017.3 |
| 20260831183524 | 74 | 51 | 0.0 | 1.0 | 0.00 | 0.04 | 0.04 | 90 | 1016.9 |
| 20260831183417 | 74 | 61 | 1.0 | 1.0 | 0.00 | 0.04 | 0.04 | 90 | 1016.9 |
| 20260831183312 | 74 | 42 | 0.0 | 1.0 | 0.00 | 0.04 | 0.04 | 90 | 1016.9 |
| 20260831183235 | 74 | 7 | 0.0 | 1.0 | 0.00 | 0.04 | 0.04 | 89 | 1016.9 |
| 20260831183206 | 75 | 10 | 1.0 | 1.0 | 0.00 | 0.04 | 0.04 | 89 | 1016.6 |
| 20260831183100 | 75 | 4 | 0.0 | 1.0 | 0.00 | 0.04 | 0.04 | 89 | 1016.6 |
| 20260831183009 | 75 | 133 | 0.0 | 1.0 | 0.00 | 0.04 | 0.04 | 88 | 1016.3 |
| 20260831183005 | 75 | 97 | 0.0 | 1.0 | 0.00 | 0.04 | 0.04 | 89 | 1016.6 |
| 20260831182957 | 75 | 90 | 0.0 | 1.0 | 0.00 | 0.04 | 0.04 | 89 | 1016.3 |
| 20260831182948 | 75 | 132 | 0.0 | 1.0 | 0.00 | 0.04 | 0.04 | 88 | 1016.6 |
| 20260831182636 | 75 | 134 | 0.0 | 2.0 | 0.00 | 0.04 | 0.04 | 88 | 1016.3 |
| 20260831182531 | 75 | 134 | 0.0 | 3.0 | 0.00 | 0.04 | 0.04 | 88 | 1016.3 |
| 20260831182426 | 75 | 133 | 0.0 | 3.0 | 0.00 | 0.04 | 0.04 | 87 | 1016.3 |
| 20260831182319 | 75 | 131 | 0.0 | 3.0 | 0.00 | 0.04 | 0.04 | 87 | 1015.9 |
| 20260831182220 | 75 | 130 | 0.0 | 3.0 | 0.00 | 0.04 | 0.04 | 87 | 1015.9 |
| 20260831182215 | 75 | 130 | 0.0 | 3.0 | 0.00 | 0.04 | 0.04 | 86 | 1015.9 |
| 20260831182108 | 75 | 125 | 1.0 | 4.0 | 0.00 | 0.04 | 0.04 | 86 | 1015.9 |
| 20260831182003 | 75 | 123 | 0.0 | 4.0 | 0.00 | 0.04 | 0.04 | 86 | 1016.3 |
| 20260831181857 | 75 | 116 | 1.0 | 4.0 | 0.00 | 0.04 | 0.04 | 86 | 1015.9 |
| 20260831181751 | 75 | 132 | 1.0 | 4.0 | 0.00 | 0.04 | 0.04 | 85 | 1016.3 |
| 20260831181714 | 75 | 130 | 2.0 | 4.0 | 0.00 | 0.04 | 0.04 | 84 | 1015.9 |
| 20260831181645 | 76 | 127 | 2.0 | 4.0 | 0.00 | 0.04 | 0.04 | 84 | 1015.9 |
| 20260831181538 | 76 | 121 | 1.0 | 4.0 | 0.00 | 0.04 | 0.04 | 84 | 1015.9 |
| 20260831181433 | 76 | 115 | 0.0 | 4.0 | 0.00 | 0.04 | 0.04 | 83 | 1016.3 |
| 20260831181327 | 76 | 116 | 3.0 | 4.0 | 0.00 | 0.04 | 0.04 | 84 | 1016.3 |
| 20260831181222 | 76 | 87 | 4.0 | 4.0 | 0.00 | 0.04 | 0.04 | 83 | 1016.3 |
| 20260831181205 | 76 | 104 | 1.0 | 3.0 | 0.00 | 0.04 | 0.04 | 85 | 1016.3 |
| 20260831181115 | 76 | 132 | 1.0 | 3.0 | 0.00 | 0.04 | 0.04 | 85 | 1015.9 |
| 20260831181009 | 76 | 129 | 1.0 | 3.0 | 0.00 | 0.04 | 0.04 | 86 | 1016.3 |
| 20260831180904 | 76 | 132 | 0.0 | 3.0 | 0.00 | 0.04 | 0.04 | 84 | 1016.3 |
| 20260831180759 | 76 | 131 | 1.0 | 3.0 | 0.00 | 0.04 | 0.04 | 85 | 1015.9 |
| 20260831180659 | 76 | 125 | 0.0 | 3.0 | 0.00 | 0.04 | 0.04 | 84 | 1015.9 |
| 20260831180653 | 76 | 124 | 1.0 | 3.0 | 0.00 | 0.04 | 0.04 | 83 | 1015.9 |
| 20260831180547 | 76 | 121 | 1.0 | 3.0 | 0.00 | 0.04 | 0.04 | 83 | 1015.9 |
| 20260831180447 | 76 | 183 | 0.0 | 3.0 | 0.00 | 0.04 | 0.04 | 86 | 1015.9 |
| 20260831180442 | 77 | 129 | 0.0 | 3.0 | 0.00 | 0.04 | 0.04 | 85 | 1015.9 |
| 20260831180434 | 77 | 128 | 2.0 | 3.0 | 0.00 | 0.04 | 0.04 | 86 | 1015.9 |
| 20260831180412 | 76 | 129 | 0.0 | 3.0 | 0.00 | 0.04 | 0.04 | 86 | 1015.9 |
| 20260831180135 | 76 | 181 | 1.0 | 3.0 | 0.00 | 0.04 | 0.04 | 85 | 1016.3 |
| 20260831180018 | 76 | 180 | 0.0 | 3.0 | 0.00 | 0.04 | 0.04 | 85 | 1016.3 |
| 20260831175922 | 76 | 177 | 1.0 | 3.0 | 0.00 | 0.04 | 0.04 | 86 | 1015.9 |
| 20260831175913 | 76 | 176 | 1.0 | 3.0 | 0.00 | 0.04 | 0.04 | 86 | 1015.9 |
| 20260831175905 | 76 | 95 | 2.0 | 2.0 | 0.00 | 0.04 | 0.04 | 87 | 1015.6 |
| 20260831175554 | 76 | 134 | 0.0 | 1.0 | 0.00 | 0.04 | 0.04 | 89 | 1015.9 |
| 20260831175449 | 76 | 131 | 0.0 | 1.0 | 0.00 | 0.04 | 0.04 | 87 | 1015.9 |
| 20260831175344 | 75 | 157 | 0.0 | 0.0 | 0.00 | 0.04 | 0.04 | 89 | 1015.9 |
| 20260831175237 | 75 | 165 | 0.0 | 0.0 | 0.00 | 0.04 | 0.04 | 88 | 1015.9 |
| 20260831175138 | 75 | 120 | 0.0 | 0.0 | 0.00 | 0.04 | 0.04 | 88 | 1015.9 |
| 20260831175131 | 75 | 122 | 0.0 | 0.0 | 0.00 | 0.04 | 0.04 | 88 | 1015.9 |
| 20260831175026 | 75 | 163 | 0.0 | 0.0 | 0.00 | 0.04 | 0.04 | 88 | 1015.9 |
| 20260831174919 | 74 | 168 | 0.0 | 0.0 | 0.00 | 0.04 | 0.04 | 88 | 1015.9 |
| 20260831174815 | 74 | 193 | 0.0 | 0.0 | 0.00 | 0.04 | 0.04 | 88 | 1015.9 |
| 20260831174709 | 74 | 179 | 0.0 | 0.0 | 0.00 | 0.04 | 0.04 | 87 | 1015.9 |
| 20260831174632 | 74 | 232 | 0.0 | 0.0 | 0.00 | 0.04 | 0.04 | 87 | 1015.9 |
| 20260831174604 | 74 | 201 | 0.0 | 0.0 | 0.00 | 0.04 | 0.04 | 88 | 1015.9 |
| 20260831174457 | 74 | 191 | 0.0 | 0.0 | 0.01 | 0.04 | 0.04 | 88 | 1015.9 |
| 20260831174351 | 74 | 215 | 0.0 | 0.0 | 0.01 | 0.04 | 0.04 | 88 | 1016.3 |
| 20260831174246 | 74 | 214 | 0.0 | 0.0 | 0.01 | 0.04 | 0.04 | 90 | 1016.3 |
| 20260831174141 | 74 | 224 | 0.0 | 0.0 | 0.01 | 0.04 | 0.04 | 90 | 1016.3 |
| 20260831174124 | 74 | 237 | 0.0 | 0.0 | 0.01 | 0.04 | 0.04 | 89 | 1016.3 |
| 20260831174035 | 74 | 216 | 0.0 | 0.0 | 0.01 | 0.04 | 0.04 | 91 | 1016.3 |
| 20260831173928 | 74 | 222 | 0.0 | 0.0 | 0.01 | 0.04 | 0.04 | 91 | 1016.3 |
| 20260831173902 | 73 | 150 | 0.0 | 1.0 | 0.02 | 0.04 | 0.04 | 91 | 1016.3 |
| 20260831173857 | 73 | 231 | 0.0 | 1.0 | 0.02 | 0.04 | 0.04 | 91 | 1016.3 |
| 20260831173836 | 73 | 209 | 0.0 | 1.0 | 0.02 | 0.04 | 0.04 | 91 | 1016.3 |
| 20260831173612 | 73 | 141 | 0.0 | 1.0 | 0.02 | 0.04 | 0.04 | 91 | 1016.3 |
| 20260831173506 | 73 | 165 | 0.0 | 1.0 | 0.02 | 0.04 | 0.04 | 91 | 1015.9 |
| 20260831173400 | 73 | 169 | 0.0 | 1.0 | 0.02 | 0.04 | 0.04 | 90 | 1016.6 |
| 20260831173255 | 73 | 204 | 0.0 | 1.0 | 0.02 | 0.04 | 0.04 | 90 | 1016.3 |
| 20260831173149 | 73 | 202 | 0.0 | 1.0 | 0.02 | 0.04 | 0.04 | 90 | 1016.3 |
| 20260831173112 | 73 | 181 | 0.0 | 1.0 | 0.02 | 0.04 | 0.04 | 91 | 1016.3 |
| 20260831173043 | 73 | 194 | 0.0 | 1.0 | 0.02 | 0.04 | 0.04 | 91 | 1016.3 |
| 20260831172937 | 73 | 220 | 0.0 | 1.0 | 0.02 | 0.04 | 0.04 | 91 | 1016.3 |
| 20260831172832 | 73 | 220 | 0.0 | 1.0 | 0.02 | 0.04 | 0.04 | 91 | 1016.6 |
| 20260831172726 | 73 | 204 | 0.0 | 1.0 | 0.02 | 0.04 | 0.04 | 91 | 1016.6 |
| 20260831172604 | 73 | 204 | 0.0 | 1.0 | 0.02 | 0.04 | 0.04 | 92 | 1016.6 |
| 20260831172521 | 72 | 205 | 0.0 | 1.0 | 0.02 | 0.04 | 0.04 | 91 | 1016.6 |
| 20260831172409 | 72 | 182 | 0.0 | 1.0 | 0.02 | 0.04 | 0.04 | 91 | 1016.6 |
| 20260831172306 | 73 | 182 | 0.0 | 2.0 | 0.04 | 0.04 | 0.04 | 91 | 1016.3 |
| 20260831172157 | 73 | 147 | 1.0 | 2.0 | 0.04 | 0.04 | 0.04 | 91 | 1016.3 |
| 20260831172058 | 73 | 177 | 0.0 | 2.0 | 0.04 | 0.04 | 0.04 | 92 | 1016.3 |
| 20260831172052 | 73 | 191 | 0.0 | 2.0 | 0.04 | 0.04 | 0.04 | 92 | 1016.3 |
| 20260831171946 | 73 | 201 | 1.0 | 2.0 | 0.04 | 0.04 | 0.04 | 92 | 1016.3 |
| 20260831171840 | 72 | 229 | 0.0 | 2.0 | 0.04 | 0.04 | 0.04 | 93 | 1016.6 |
| 20260831171735 | 72 | 230 | 0.0 | 2.0 | 0.04 | 0.04 | 0.04 | 93 | 1016.3 |
| 20260831171628 | 72 | 183 | 0.0 | 2.0 | 0.04 | 0.04 | 0.04 | 93 | 1016.3 |
| 20260831171552 | 72 | 205 | 0.0 | 2.0 | 0.04 | 0.04 | 0.04 | 93 | 1016.3 |
| 20260831171523 | 72 | 216 | 0.0 | 2.0 | 0.04 | 0.04 | 0.04 | 93 | 1016.3 |
| 20260831171417 | 72 | 215 | 2.0 | 2.0 | 0.04 | 0.04 | 0.04 | 93 | 1016.3 |
| 20260831171311 | 72 | 206 | 1.0 | 2.0 | 0.04 | 0.04 | 0.04 | 94 | 1016.6 |
| 20260831171206 | 72 | 202 | 0.0 | 2.0 | 0.04 | 0.04 | 0.04 | 93 | 1016.3 |
| 20260831171101 | 72 | 204 | 0.0 | 2.0 | 0.04 | 0.04 | 0.04 | 94 | 1016.3 |
| 20260831171045 | 72 | 201 | 0.0 | 2.0 | 0.04 | 0.04 | 0.04 | 94 | 1016.3 |
| 20260831170955 | 72 | 282 | 0.0 | 2.0 | 0.04 | 0.04 | 0.04 | 94 | 1016.6 |
| 20260831170849 | 72 | 197 | 1.0 | 2.0 | 0.04 | 0.04 | 0.04 | 94 | 1016.3 |
| 20260831170743 | 72 | 197 | 0.0 | 1.0 | 0.04 | 0.06 | 0.04 | 94 | 1016.6 |
| 20260831170638 | 72 | 185 | 0.0 | 0.0 | 0.04 | 0.06 | 0.04 | 94 | 1016.6 |
| 20260831170538 | 72 | 192 | 0.0 | 0.0 | 0.04 | 0.06 | 0.04 | 94 | 1016.3 |
| 20260831170532 | 72 | 225 | 0.0 | 0.0 | 0.04 | 0.06 | 0.04 | 94 | 1016.3 |
| 20260831170426 | 72 | 199 | 0.0 | 0.0 | 0.04 | 0.06 | 0.04 | 93 | 1016.3 |
| 20260831170320 | 72 | 215 | 0.0 | 0.0 | 0.04 | 0.06 | 0.04 | 94 | 1016.3 |
| 20260831170214 | 72 | 201 | 0.0 | 0.0 | 0.04 | 0.06 | 0.04 | 93 | 1016.3 |
| 20260831170121 | 72 | 185 | 0.0 | 0.0 | 0.04 | 0.06 | 0.04 | 93 | 1015.9 |
| 20260831170032 | 72 | 178 | 0.0 | 0.0 | 0.04 | 0.06 | 0.04 | 93 | 1016.3 |
| 20260831170004 | 72 | 178 | 0.0 | 0.0 | 0.04 | 0.06 | 0.04 | 93 | 1016.3 |
| 20260831165858 | 72 | 184 | 0.0 | 0.0 | 0.04 | 0.06 | 0.04 | 93 | 1016.3 |
| 20260831165751 | 72 | 195 | 0.0 | 0.0 | 0.04 | 0.06 | 0.04 | 93 | 1016.3 |
| 20260831165646 | 72 | 181 | 0.0 | 0.0 | 0.04 | 0.06 | 0.04 | 93 | 1016.3 |
| 20260831165540 | 72 | 188 | 0.0 | 0.0 | 0.04 | 0.06 | 0.04 | 93 | 1016.6 |
| 20260831165525 | 72 | 188 | 0.0 | 0.0 | 0.04 | 0.06 | 0.04 | 93 | 1016.3 |
| 20260831165434 | 72 | 170 | 0.0 | 0.0 | 0.04 | 0.06 | 0.04 | 92 | 1016.6 |
| 20260831165328 | 72 | 171 | 0.0 | 0.0 | 0.04 | 0.06 | 0.04 | 92 | 1016.3 |
| 20260831165223 | 72 | 155 | 0.0 | 0.0 | 0.04 | 0.06 | 0.04 | 92 | 1016.6 |
| 20260831165118 | 72 | 143 | 0.0 | 0.0 | 0.04 | 0.06 | 0.04 | 92 | 1016.3 |
| 20260831165018 | 72 | 138 | 0.0 | 0.0 | 0.04 | 0.06 | 0.04 | 91 | 1016.6 |
| 20260831165012 | 72 | 138 | 0.0 | 0.0 | 0.04 | 0.06 | 0.04 | 91 | 1016.6 |
| 20260831164905 | 73 | 138 | 0.0 | 0.0 | 0.04 | 0.06 | 0.04 | 91 | 1016.9 |
| 20260831164800 | 73 | 138 | 0.0 | 0.0 | 0.04 | 0.06 | 0.04 | 91 | 1016.9 |
| 20260831164653 | 73 | 127 | 0.0 | 1.0 | 0.04 | 0.06 | 0.04 | 90 | 1016.9 |
| 20260831164548 | 73 | 125 | 0.0 | 1.0 | 0.04 | 0.06 | 0.04 | 90 | 1016.9 |
| 20260831164511 | 73 | 125 | 0.0 | 1.0 | 0.03 | 0.05 | 0.04 | 90 | 1016.9 |
| 20260831164443 | 73 | 125 | 0.0 | 1.0 | 0.03 | 0.05 | 0.03 | 90 | 1016.9 |
| 20260831164336 | 73 | 119 | 0.0 | 1.0 | 0.03 | 0.05 | 0.03 | 90 | 1016.9 |
| 20260831164231 | 73 | 125 | 0.0 | 2.0 | 0.03 | 0.05 | 0.03 | 90 | 1017.3 |
| 20260831164126 | 73 | 125 | 0.0 | 3.0 | 0.03 | 0.05 | 0.03 | 90 | 1017.3 |
| 20260831164019 | 73 | 118 | 0.0 | 3.0 | 0.03 | 0.05 | 0.03 | 90 | 1017.3 |
| 20260831164004 | 73 | 118 | 0.0 | 3.0 | 0.03 | 0.05 | 0.03 | 90 | 1017.3 |
| 20260831163913 | 73 | 119 | 0.0 | 3.0 | 0.03 | 0.05 | 0.03 | 90 | 1016.9 |
| 20260831163808 | 73 | 118 | 0.0 | 3.0 | 0.02 | 0.04 | 0.02 | 89 | 1017.7 |
| 20260831163703 | 73 | 48 | 0.0 | 3.0 | 0.02 | 0.04 | 0.02 | 89 | 1017.7 |
| 20260831163556 | 73 | 259 | 0.0 | 3.0 | 0.02 | 0.04 | 0.02 | 88 | 1017.3 |
| 20260831163458 | 73 | 239 | 0.0 | 3.0 | 0.02 | 0.04 | 0.02 | 89 | 1017.7 |
| 20260831163450 | 73 | 236 | 0.0 | 3.0 | 0.02 | 0.04 | 0.02 | 89 | 1017.7 |
| 20260831163345 | 74 | 259 | 1.0 | 3.0 | 0.02 | 0.04 | 0.02 | 88 | 1017.7 |
| 20260831163240 | 74 | 58 | 1.0 | 3.0 | 0.02 | 0.04 | 0.02 | 88 | 1017.7 |
| 20260831163134 | 74 | 39 | 0.0 | 3.0 | 0.02 | 0.04 | 0.02 | 88 | 1017.7 |
| 20260831163029 | 74 | 322 | 1.0 | 3.0 | 0.02 | 0.04 | 0.02 | 87 | 1017.7 |
| 20260831162951 | 74 | 276 | 0.0 | 3.0 | 0.02 | 0.04 | 0.02 | 87 | 1017.7 |
| 20260831162924 | 74 | 355 | 0.0 | 3.0 | 0.02 | 0.06 | 0.02 | 87 | 1018.1 |
| 20260831162817 | 75 | 257 | 0.0 | 3.0 | 0.02 | 0.06 | 0.02 | 87 | 1018.1 |
| 20260831162711 | 75 | 281 | 0.0 | 3.0 | 0.02 | 0.06 | 0.02 | 86 | 1018.1 |
| 20260831162605 | 75 | 123 | 0.0 | 3.0 | 0.02 | 0.06 | 0.02 | 85 | 1018.1 |
| 20260831162444 | 75 | 190 | 0.0 | 3.0 | 0.02 | 0.06 | 0.02 | 85 | 1018.1 |
| 20260831162353 | 75 | 277 | 0.0 | 3.0 | 0.02 | 0.06 | 0.02 | 84 | 1018.1 |
| 20260831162248 | 76 | 342 | 1.0 | 3.0 | 0.00 | 0.04 | 0.00 | 84 | 1018.1 |
| 20260831162142 | 76 | 66 | 1.0 | 2.0 | 0.00 | 0.04 | 0.00 | 83 | 1018.1 |
| 20260831162037 | 76 | 248 | 1.0 | 2.0 | 0.00 | 0.06 | 0.00 | 84 | 1018.1 |
| 20260831161930 | 76 | 275 | 0.0 | 2.0 | 0.00 | 0.06 | 0.00 | 83 | 1018.1 |
| 20260831161825 | 76 | 223 | 0.0 | 2.0 | 0.00 | 0.06 | 0.00 | 83 | 1018.1 |
| 20260831161719 | 76 | 236 | 0.0 | 2.0 | 0.00 | 0.07 | 0.00 | 83 | 1018.1 |
| 20260831161614 | 76 | 235 | 0.0 | 2.0 | 0.00 | 0.07 | 0.00 | 82 | 1017.7 |
| 20260831161509 | 76 | 235 | 1.0 | 2.0 | 0.00 | 0.08 | 0.00 | 82 | 1018.1 |
| 20260831161431 | 76 | 236 | 0.0 | 2.0 | 0.00 | 0.08 | 0.00 | 83 | 1018.1 |
| 20260831161403 | 76 | 236 | 0.0 | 2.0 | 0.00 | 0.08 | 0.00 | 82 | 1018.1 |
| 20260831161256 | 77 | 236 | 0.0 | 2.0 | 0.00 | 0.09 | 0.00 | 82 | 1018.1 |
| 20260831161151 | 77 | 236 | 1.0 | 2.0 | 0.00 | 0.09 | 0.00 | 82 | 1018.1 |
| 20260831161045 | 77 | 236 | 0.0 | 2.0 | 0.00 | 0.09 | 0.00 | 81 | 1018.1 |
| 20260831160940 | 77 | 236 | 2.0 | 2.0 | 0.00 | 0.09 | 0.00 | 81 | 1017.7 |
| 20260831160924 | 77 | 236 | 0.0 | 2.0 | 0.00 | 0.09 | 0.00 | 81 | 1018.1 |
| 20260831160834 | 77 | 236 | 2.0 | 2.0 | 0.00 | 0.09 | 0.00 | 81 | 1017.7 |
| 20260831160728 | 77 | 221 | 0.0 | 2.0 | 0.00 | 0.09 | 0.00 | 83 | 1018.1 |
| 20260831160622 | 77 | 221 | 0.0 | 2.0 | 0.00 | 0.10 | 0.00 | 83 | 1017.7 |
| 20260831160517 | 77 | 222 | 0.0 | 2.0 | 0.00 | 0.10 | 0.00 | 83 | 1017.7 |
| 20260831160418 | 77 | 222 | 0.0 | 3.0 | 0.00 | 0.10 | 0.00 | 83 | 1017.7 |
| 20260831160411 | 77 | 221 | 0.0 | 3.0 | 0.00 | 0.10 | 0.00 | 83 | 1017.7 |
| 20260831160306 | 77 | 221 | 0.0 | 3.0 | 0.00 | 0.10 | 0.00 | 83 | 1017.7 |
| 20260831160200 | 77 | 221 | 0.0 | 3.0 | 0.00 | 0.10 | 0.00 | 82 | 1017.7 |
| 20260831160106 | 77 | 221 | 0.0 | 3.0 | 0.00 | 0.10 | 0.00 | 81 | 1017.7 |
| 20260831155947 | 77 | 221 | 1.0 | 3.0 | 0.00 | 0.10 | 0.00 | 80 | 1017.7 |
| 20260831155910 | 77 | 207 | 0.0 | 3.0 | 0.00 | 0.10 | 0.00 | 80 | 1017.7 |
| 20260831155841 | 77 | 200 | 0.0 | 3.0 | 0.00 | 0.11 | 0.00 | 80 | 1017.7 |
| 20260831155736 | 77 | 198 | 1.0 | 3.0 | 0.00 | 0.11 | 0.00 | 79 | 1017.3 |
| 20260831155630 | 77 | 179 | 0.0 | 3.0 | 0.00 | 0.11 | 0.00 | 79 | 1017.3 |
| 20260831155525 | 78 | 203 | 1.0 | 3.0 | 0.00 | 0.11 | 0.00 | 79 | 1017.3 |
| 20260831155403 | 78 | 152 | 1.0 | 3.0 | 0.00 | 0.11 | 0.00 | 79 | 1017.3 |
| 20260831155314 | 78 | 207 | 1.0 | 3.0 | 0.00 | 0.13 | 0.00 | 79 | 1017.7 |
| 20260831155207 | 78 | 218 | 2.0 | 3.0 | 0.00 | 0.13 | 0.00 | 77 | 1017.3 |
| 20260831155102 | 78 | 216 | 1.0 | 3.0 | 0.00 | 0.13 | 0.00 | 79 | 1017.7 |
| 20260831154956 | 78 | 157 | 0.0 | 3.0 | 0.00 | 0.13 | 0.00 | 78 | 1017.3 |
| 20260831154850 | 78 | 246 | 1.0 | 3.0 | 0.00 | 0.13 | 0.00 | 77 | 1017.3 |
| 20260831154745 | 78 | 195 | 0.0 | 3.0 | 0.00 | 0.15 | 0.00 | 79 | 1017.3 |
| 20260831154639 | 78 | 195 | 0.0 | 3.0 | 0.00 | 0.15 | 0.00 | 77 | 1016.9 |
| 20260831154533 | 78 | 195 | 1.0 | 3.0 | 0.00 | 0.15 | 0.00 | 78 | 1016.9 |
| 20260831154428 | 78 | 186 | 0.0 | 3.0 | 0.00 | 0.15 | 0.00 | 77 | 1017.3 |
| 20260831154351 | 78 | 108 | 1.0 | 3.0 | 0.00 | 0.15 | 0.00 | 77 | 1017.3 |
| 20260831154322 | 78 | 223 | 2.0 | 4.0 | 0.00 | 0.15 | 0.00 | 77 | 1017.3 |
| 20260831154216 | 78 | 220 | 0.0 | 4.0 | 0.00 | 0.15 | 0.00 | 79 | 1016.9 |
| 20260831154110 | 78 | 220 | 2.0 | 4.0 | 0.00 | 0.15 | 0.00 | 77 | 1016.9 |
| 20260831154005 | 78 | 210 | 2.0 | 4.0 | 0.00 | 0.15 | 0.00 | 80 | 1017.3 |
| 20260831153858 | 77 | 200 | 0.0 | 4.0 | 0.00 | 0.15 | 0.00 | 79 | 1017.3 |
| 20260831153843 | 77 | 200 | 0.0 | 4.0 | 0.00 | 0.15 | 0.00 | 79 | 1017.3 |
| 20260831153753 | 77 | 223 | 1.0 | 4.0 | 0.00 | 0.15 | 0.00 | 79 | 1017.3 |
| 20260831153647 | 77 | 196 | 1.0 | 4.0 | 0.00 | 0.15 | 0.00 | 81 | 1017.3 |
| 20260831153541 | 76 | 155 | 1.0 | 4.0 | 0.00 | 0.15 | 0.00 | 81 | 1017.3 |
| 20260831153436 | 76 | 205 | 0.0 | 4.0 | 0.00 | 0.15 | 0.00 | 81 | 1016.9 |
| 20260831153337 | 76 | 201 | 3.0 | 4.0 | 0.00 | 0.15 | 0.00 | 81 | 1016.9 |
| 20260831153330 | 76 | 169 | 2.0 | 4.0 | 0.00 | 0.15 | 0.00 | 81 | 1017.3 |
| 20260831153225 | 76 | 186 | 2.0 | 4.0 | 0.00 | 0.15 | 0.00 | 81 | 1017.3 |
| 20260831153118 | 76 | 187 | 1.0 | 4.0 | 0.00 | 0.15 | 0.00 | 81 | 1016.9 |
| 20260831153011 | 76 | 225 | 0.0 | 4.0 | 0.00 | 0.15 | 0.00 | 81 | 1017.3 |
| 20260831152906 | 76 | 211 | 3.0 | 4.0 | 0.00 | 0.15 | 0.00 | 81 | 1017.3 |
| 20260831152829 | 76 | 191 | 2.0 | 4.0 | 0.00 | 0.15 | 0.00 | 82 | 1017.3 |
| 20260831152759 | 76 | 281 | 0.0 | 4.0 | 0.00 | 0.15 | 0.00 | 82 | 1017.3 |
| 20260831152654 | 76 | 157 | 3.0 | 4.0 | 0.00 | 0.15 | 0.00 | 82 | 1017.3 |
| 20260831152549 | 75 | 203 | 1.0 | 3.0 | 0.00 | 0.15 | 0.00 | 83 | 1016.9 |
| 20260831152443 | 75 | 182 | 1.0 | 3.0 | 0.00 | 0.15 | 0.00 | 84 | 1017.3 |
| 20260831152337 | 75 | 155 | 1.0 | 3.0 | 0.00 | 0.15 | 0.00 | 84 | 1016.9 |
| 20260831152322 | 75 | 155 | 1.0 | 3.0 | 0.00 | 0.15 | 0.00 | 84 | 1017.3 |
| 20260831152231 | 75 | 209 | 1.0 | 3.0 | 0.00 | 0.15 | 0.00 | 85 | 1016.9 |
| 20260831152125 | 75 | 221 | 1.0 | 3.0 | 0.00 | 0.15 | 0.00 | 85 | 1016.9 |
| 20260831152020 | 75 | 227 | 1.0 | 3.0 | 0.00 | 0.17 | 0.00 | 84 | 1016.9 |
| 20260831151914 | 75 | 202 | 1.0 | 2.0 | 0.00 | 0.17 | 0.00 | 84 | 1016.9 |
| 20260831151816 | 75 | 235 | 0.0 | 3.0 | 0.00 | 0.17 | 0.00 | 85 | 1016.9 |
| 20260831151809 | 75 | 235 | 1.0 | 3.0 | 0.00 | 0.18 | 0.00 | 85 | 1016.9 |
| 20260831151703 | 75 | 233 | 0.0 | 3.0 | 0.00 | 0.18 | 0.00 | 85 | 1016.9 |
| 20260831151557 | 75 | 233 | 0.0 | 3.0 | 0.00 | 0.18 | 0.00 | 86 | 1016.9 |
| 20260831151452 | 75 | 233 | 0.0 | 3.0 | 0.00 | 0.18 | 0.00 | 85 | 1016.9 |
| 20260831151316 | 75 | 233 | 0.0 | 4.0 | 0.00 | 0.19 | 0.00 | 85 | 1016.9 |
| 20260831151236 | 74 | 233 | 2.0 | 4.0 | 0.00 | 0.19 | 0.00 | 85 | 1016.9 |
| 20260831151131 | 74 | 222 | 0.0 | 4.0 | 0.00 | 0.19 | 0.00 | 86 | 1016.9 |
| 20260831151025 | 74 | 181 | 1.0 | 4.0 | 0.00 | 0.19 | 0.00 | 86 | 1016.9 |
| 20260831150920 | 74 | 249 | 2.0 | 4.0 | 0.00 | 0.19 | 0.00 | 86 | 1016.9 |
| 20260831150813 | 74 | 278 | 1.0 | 4.0 | 0.00 | 0.19 | 0.00 | 87 | 1016.9 |
| 20260831150708 | 74 | 290 | 1.0 | 4.0 | 0.00 | 0.19 | 0.00 | 87 | 1016.9 |
| 20260831150602 | 74 | 290 | 0.0 | 4.0 | 0.00 | 0.19 | 0.00 | 87 | 1016.9 |
| 20260831150534 | 74 | 196 | 0.0 | 0.0 | 0.00 | 0.19 | 0.00 | 88 | 1016.9 |
| 20260831150529 | 74 | 290 | 1.0 | 4.0 | 0.00 | 0.19 | 0.00 | 88 | 1016.6 |
| 20260831150521 | 74 | 205 | 0.0 | 0.0 | 0.00 | 0.19 | 0.00 | 88 | 1016.9 |
| 20260831150245 | 74 | 195 | 0.0 | 0.0 | 0.00 | 0.19 | 0.00 | 88 | 1016.9 |
| 20260831150140 | 74 | 188 | 0.0 | 0.0 | 0.00 | 0.19 | 0.00 | 89 | 1017.3 |
| 20260831150034 | 74 | 203 | 0.0 | 0.0 | 0.00 | 0.20 | 0.00 | 89 | 1016.9 |
| 20260831145928 | 74 | 204 | 0.0 | 0.0 | 0.00 | 0.20 | 0.00 | 88 | 1016.9 |
| 20260831145822 | 74 | 205 | 0.0 | 0.0 | 0.00 | 0.20 | 0.00 | 89 | 1016.9 |
| 20260831145755 | 74 | 200 | 0.0 | 0.0 | 0.00 | 0.20 | 0.00 | 89 | 1016.9 |
| 20260831145716 | 74 | 199 | 0.0 | 0.0 | 0.00 | 0.20 | 0.00 | 89 | 1016.9 |
| 20260831145610 | 74 | 199 | 0.0 | 0.0 | 0.00 | 0.20 | 0.00 | 89 | 1016.9 |
| 20260831145505 | 74 | 199 | 0.0 | 0.0 | 0.00 | 0.20 | 0.00 | 89 | 1016.6 |
| 20260831145359 | 74 | 200 | 0.0 | 0.0 | 0.00 | 0.20 | 0.00 | 89 | 1016.9 |
| 20260831145252 | 74 | 200 | 0.0 | 0.0 | 0.00 | 0.21 | 0.00 | 89 | 1016.9 |
| 20260831145147 | 74 | 199 | 0.0 | 0.0 | 0.00 | 0.21 | 0.00 | 89 | 1016.6 |
| 20260831145042 | 74 | 199 | 0.0 | 0.0 | 0.00 | 0.21 | 0.00 | 89 | 1016.6 |
| 20260831144935 | 74 | 199 | 0.0 | 0.0 | 0.00 | 0.21 | 0.00 | 89 | 1016.6 |
| 20260831144830 | 73 | 199 | 0.0 | 0.0 | 0.00 | 0.21 | 0.00 | 89 | 1016.6 |
| 20260831144742 | 73 | 199 | 0.0 | 0.0 | 0.00 | 0.21 | 0.00 | 89 | 1016.6 |
| 20260831144724 | 73 | 199 | 0.0 | 0.0 | 0.00 | 0.21 | 0.00 | 89 | 1016.6 |
| 20260831144619 | 73 | 196 | 0.0 | 0.0 | 0.00 | 0.22 | 0.00 | 89 | 1016.6 |
| 20260831144513 | 73 | 196 | 0.0 | 0.0 | 0.00 | 0.22 | 0.00 | 89 | 1016.3 |
| 20260831144407 | 73 | 196 | 0.0 | 0.0 | 0.00 | 0.22 | 0.00 | 90 | 1016.3 |
| 20260831144302 | 73 | 196 | 0.0 | 0.0 | 0.00 | 0.22 | 0.00 | 90 | 1016.3 |
| 20260831144235 | 73 | 151 | 0.0 | 0.0 | 0.00 | 0.22 | 0.00 | 90 | 1016.3 |
| 20260831144156 | 72 | 183 | 0.0 | 0.0 | 0.00 | 0.22 | 0.00 | 91 | 1016.6 |
| 20260831144050 | 72 | 181 | 0.0 | 0.0 | 0.00 | 0.22 | 0.00 | 91 | 1016.3 |
| 20260831143944 | 72 | 194 | 0.0 | 0.0 | 0.00 | 0.22 | 0.00 | 91 | 1016.6 |
| 20260831143839 | 72 | 188 | 0.0 | 0.0 | 0.00 | 0.22 | 0.00 | 92 | 1016.3 |
| 20260831143733 | 72 | 188 | 0.0 | 0.0 | 0.00 | 0.22 | 0.00 | 92 | 1016.6 |
| 20260831143627 | 72 | 188 | 0.0 | 0.0 | 0.00 | 0.23 | 0.00 | 93 | 1016.3 |
| 20260831143521 | 72 | 174 | 0.0 | 0.0 | 0.00 | 0.23 | 0.00 | 93 | 1016.3 |
| 20260831143418 | 72 | 196 | 0.0 | 0.0 | 0.00 | 0.23 | 0.00 | 93 | 1016.3 |
| 20260831143310 | 72 | 196 | 0.0 | 0.0 | 0.00 | 0.23 | 0.00 | 93 | 1016.3 |
| 20260831143223 | 71 | 196 | 0.0 | 0.0 | 0.00 | 0.23 | 0.00 | 94 | 1016.3 |
| 20260831143205 | 71 | 196 | 0.0 | 0.0 | 0.00 | 0.24 | 0.00 | 94 | 1016.3 |
| 20260831143058 | 71 | 197 | 0.0 | 0.0 | 0.00 | 0.24 | 0.00 | 94 | 1016.6 |
| 20260831142953 | 71 | 193 | 0.0 | 0.0 | 0.00 | 0.24 | 0.00 | 94 | 1016.3 |
| 20260831142850 | 71 | 181 | 0.0 | 0.0 | 0.00 | 0.25 | 0.00 | 94 | 1016.6 |
| 20260831142741 | 71 | 183 | 0.0 | 0.0 | 0.00 | 0.25 | 0.00 | 94 | 1016.6 |
| 20260831142715 | 71 | 180 | 0.0 | 0.0 | 0.00 | 0.25 | 0.00 | 94 | 1016.3 |
| 20260831142635 | 71 | 178 | 0.0 | 0.0 | 0.00 | 0.25 | 0.00 | 95 | 1016.3 |
| 20260831142530 | 71 | 193 | 0.0 | 0.0 | 0.00 | 0.26 | 0.00 | 95 | 1016.6 |
| 20260831142446 | 71 | 183 | 0.0 | 0.0 | 0.00 | 0.26 | 0.00 | 95 | 1016.3 |
| 20260831142437 | 71 | 197 | 0.0 | 0.0 | 0.00 | 0.26 | 0.00 | 95 | 1016.6 |
| 20260831142427 | 70 | 198 | 0.0 | 0.0 | 0.00 | 0.26 | 0.00 | 95 | 1016.6 |
| 20260831142107 | 70 | 196 | 0.0 | 0.0 | 0.00 | 0.26 | 0.00 | 95 | 1016.6 |
| 20260831142001 | 70 | 191 | 0.0 | 0.0 | 0.00 | 0.26 | 0.00 | 95 | 1016.6 |
| 20260831141933 | 70 | 200 | 0.0 | 0.0 | 0.00 | 0.26 | 0.00 | 95 | 1016.6 |
| 20260831141929 | 70 | 191 | 0.0 | 0.0 | 0.00 | 0.26 | 0.00 | 95 | 1016.3 |
| 20260831141921 | 70 | 197 | 0.0 | 0.0 | 0.00 | 0.26 | 0.00 | 95 | 1016.6 |
| 20260831141644 | 70 | 200 | 0.0 | 0.0 | 0.00 | 0.26 | 0.00 | 95 | 1016.6 |
| 20260831141539 | 70 | 200 | 0.0 | 0.0 | 0.00 | 0.26 | 0.00 | 95 | 1016.3 |
| 20260831141434 | 70 | 201 | 0.0 | 0.0 | 0.00 | 0.26 | 0.00 | 95 | 1016.3 |
| 20260831141341 | 70 | 201 | 0.0 | 0.0 | 0.00 | 0.26 | 0.00 | 95 | 1016.6 |
| 20260831141222 | 70 | 189 | 0.0 | 0.0 | 0.00 | 0.26 | 0.00 | 96 | 1016.6 |
| 20260831141207 | 70 | 189 | 0.0 | 0.0 | 0.00 | 0.28 | 0.00 | 96 | 1016.3 |
| 20260831141201 | 70 | 189 | 0.0 | 0.0 | 0.00 | 0.26 | 0.00 | 95 | 1016.6 |
| 20260831141157 | 70 | 189 | 0.0 | 0.0 | 0.00 | 0.28 | 0.00 | 96 | 1016.6 |
| 20260831141148 | 70 | 189 | 0.0 | 0.0 | 0.00 | 0.28 | 0.00 | 95 | 1016.3 |
| 20260831140925 | 70 | 189 | 0.0 | 0.0 | 0.00 | 0.28 | 0.00 | 96 | 1016.6 |
| 20260831140916 | 70 | 189 | 0.0 | 0.0 | 0.00 | 0.28 | 0.00 | 96 | 1016.3 |
| 20260831140905 | 70 | 189 | 0.0 | 0.0 | 0.00 | 0.28 | 0.00 | 96 | 1016.3 |
| 20260831140645 | 70 | 188 | 0.0 | 0.0 | 0.00 | 0.30 | 0.00 | 96 | 1016.3 |
| 20260831140640 | 70 | 188 | 0.0 | 0.0 | 0.00 | 0.28 | 0.00 | 96 | 1016.3 |
| 20260831140632 | 70 | 188 | 0.0 | 0.0 | 0.00 | 0.28 | 0.00 | 96 | 1016.3 |
| 20260831140408 | 70 | 188 | 0.0 | 0.0 | 0.00 | 0.30 | 0.00 | 96 | 1016.6 |
| 20260831140400 | 70 | 188 | 0.0 | 0.0 | 0.00 | 0.30 | 0.00 | 96 | 1016.3 |
| 20260831140125 | 70 | 188 | 0.0 | 0.0 | 0.00 | 0.30 | 0.00 | 96 | 1016.3 |
| 20260831140017 | 70 | 188 | 0.0 | 0.0 | 0.00 | 0.31 | 0.00 | 96 | 1016.3 |
| 20260831135915 | 70 | 188 | 0.0 | 0.0 | 0.00 | 0.31 | 0.00 | 96 | 1016.3 |
| 20260831135901 | 70 | 188 | 0.0 | 0.0 | 0.00 | 0.31 | 0.00 | 96 | 1016.6 |
| 20260831135852 | 70 | 188 | 0.0 | 0.0 | 0.00 | 0.31 | 0.00 | 96 | 1016.6 |
| 20260831135553 | 70 | 188 | 0.0 | 0.0 | 0.00 | 0.32 | 0.00 | 96 | 1016.6 |
| 20260831135449 | 69 | 188 | 0.0 | 0.0 | 0.00 | 0.32 | 0.00 | 96 | 1016.6 |
| 20260831135404 | 69 | 188 | 0.0 | 0.0 | 0.00 | 0.33 | 0.00 | 96 | 1016.6 |
| 20260831135355 | 69 | 188 | 0.0 | 0.0 | 0.00 | 0.33 | 0.00 | 96 | 1016.6 |
| 20260831135344 | 69 | 188 | 0.0 | 0.0 | 0.00 | 0.33 | 0.00 | 96 | 1016.3 |
| 20260831135025 | 69 | 188 | 0.0 | 0.0 | 0.00 | 0.34 | 0.00 | 96 | 1016.6 |
| 20260831134920 | 69 | 188 | 0.0 | 0.0 | 0.00 | 0.34 | 0.00 | 96 | 1016.3 |
| 20260831134815 | 69 | 188 | 0.0 | 0.0 | 0.00 | 0.35 | 0.00 | 96 | 1016.3 |
| 20260831134709 | 69 | 188 | 0.0 | 0.0 | 0.00 | 0.35 | 0.00 | 96 | 1016.3 |
| 20260831134618 | 69 | 188 | 0.0 | 0.0 | 0.00 | 0.35 | 0.00 | 96 | 1016.3 |
| 20260831134600 | 69 | 187 | 0.0 | 0.0 | 0.00 | 0.36 | 0.00 | 96 | 1016.3 |
| 20260831134455 | 69 | 187 | 0.0 | 0.0 | 0.00 | 0.36 | 0.00 | 96 | 1016.6 |
| 20260831134349 | 69 | 187 | 0.0 | 0.0 | 0.00 | 0.37 | 0.00 | 96 | 1016.3 |
| 20260831134243 | 69 | 188 | 0.0 | 0.0 | 0.00 | 0.37 | 0.00 | 96 | 1016.3 |
| 20260831134138 | 69 | 188 | 0.0 | 0.0 | 0.00 | 0.38 | 0.00 | 96 | 1016.3 |
| 20260831134111 | 69 | 188 | 0.0 | 0.0 | 0.00 | 0.38 | 0.00 | 96 | 1016.3 |
| 20260831134032 | 69 | 188 | 0.0 | 0.0 | 0.00 | 0.38 | 0.00 | 96 | 1016.3 |
| 20260831133926 | 69 | 188 | 0.0 | 0.0 | 0.00 | 0.39 | 0.00 | 97 | 1016.3 |
| 20260831133820 | 69 | 188 | 0.0 | 0.0 | 0.00 | 0.39 | 0.00 | 97 | 1016.3 |
| 20260831133714 | 69 | 188 | 0.0 | 0.0 | 0.00 | 0.39 | 0.00 | 97 | 1016.3 |
| 20260831133608 | 69 | 188 | 0.0 | 0.0 | 0.00 | 0.39 | 0.00 | 97 | 1016.3 |
| 20260831133503 | 69 | 188 | 0.0 | 0.0 | 0.00 | 0.39 | 0.00 | 97 | 1016.3 |
| 20260831133358 | 69 | 188 | 0.0 | 0.0 | 0.00 | 0.41 | 0.00 | 96 | 1016.3 |
| 20260831133251 | 69 | 187 | 0.0 | 0.0 | 0.00 | 0.41 | 0.00 | 97 | 1016.3 |
| 20260831133146 | 69 | 187 | 0.0 | 0.0 | 0.00 | 0.41 | 0.00 | 97 | 1016.3 |
| 20260831133058 | 69 | 192 | 0.0 | 0.0 | 0.00 | 0.41 | 0.00 | 97 | 1016.3 |
| 20260831133040 | 69 | 188 | 0.0 | 0.0 | 0.00 | 0.41 | 0.00 | 97 | 1016.3 |
| 20260831132934 | 69 | 192 | 0.0 | 0.0 | 0.00 | 0.41 | 0.00 | 97 | 1016.6 |
| 20260831132829 | 68 | 192 | 0.0 | 0.0 | 0.00 | 0.41 | 0.00 | 97 | 1016.6 |
| 20260831132723 | 68 | 192 | 0.0 | 0.0 | 0.00 | 0.43 | 0.00 | 97 | 1016.3 |
| 20260831132618 | 68 | 191 | 0.0 | 0.0 | 0.00 | 0.43 | 0.00 | 97 | 1016.6 |
| 20260831132551 | 68 | 189 | 0.0 | 0.0 | 0.00 | 0.43 | 0.00 | 97 | 1016.6 |
| 20260831132512 | 68 | 195 | 0.0 | 0.0 | 0.00 | 0.43 | 0.00 | 97 | 1016.6 |
| 20260831132405 | 68 | 195 | 0.0 | 0.0 | 0.00 | 0.44 | 0.00 | 97 | 1016.6 |
| 20260831132300 | 68 | 195 | 0.0 | 2.0 | 0.00 | 0.44 | 0.00 | 97 | 1016.3 |
| 20260831132155 | 68 | 195 | 0.0 | 2.0 | 0.00 | 0.45 | 0.00 | 97 | 1016.3 |
| 20260831132049 | 68 | 196 | 0.0 | 2.0 | 0.00 | 0.45 | 0.00 | 97 | 1016.6 |
| 20260831131944 | 68 | 191 | 0.0 | 2.0 | 0.00 | 0.45 | 0.00 | 97 | 1016.3 |
| 20260831131837 | 68 | 188 | 0.0 | 2.0 | 0.00 | 0.46 | 0.00 | 97 | 1016.3 |
| 20260831131732 | 68 | 188 | 0.0 | 2.0 | 0.00 | 0.47 | 0.00 | 97 | 1016.3 |
| 20260831131626 | 68 | 193 | 0.0 | 2.0 | 0.00 | 0.47 | 0.00 | 97 | 1016.3 |
| 20260831131537 | 68 | 203 | 0.0 | 2.0 | 0.00 | 0.47 | 0.00 | 97 | 1016.3 |
| 20260831131533 | 68 | 207 | 0.0 | 2.0 | 0.00 | 0.48 | 0.00 | 97 | 1016.3 |
| 20260831131414 | 68 | 194 | 0.0 | 2.0 | 0.00 | 0.48 | 0.00 | 97 | 1016.3 |
| 20260831131310 | 68 | 194 | 0.0 | 2.0 | 0.00 | 0.49 | 0.00 | 97 | 1016.3 |
| 20260831131203 | 68 | 205 | 1.0 | 2.0 | 0.00 | 0.49 | 0.00 | 97 | 1016.3 |
| 20260831131057 | 68 | 207 | 1.0 | 2.0 | 0.00 | 0.50 | 0.00 | 97 | 1016.3 |
| 20260831131031 | 68 | 186 | 2.0 | 2.0 | 0.00 | 0.50 | 0.00 | 97 | 1016.3 |
| 20260831130951 | 68 | 199 | 2.0 | 2.0 | 0.00 | 0.50 | 0.00 | 97 | 1016.3 |
| 20260831130846 | 68 | 194 | 0.0 | 0.0 | 0.00 | 0.51 | 0.00 | 97 | 1016.3 |
| 20260831130741 | 68 | 192 | 0.0 | 0.0 | 0.00 | 0.52 | 0.00 | 97 | 1015.9 |
| 20260831130635 | 68 | 195 | 0.0 | 0.0 | 0.00 | 0.52 | 0.00 | 97 | 1016.3 |
| 20260831130528 | 68 | 191 | 0.0 | 0.0 | 0.00 | 0.52 | 0.00 | 97 | 1016.3 |
| 20260831130423 | 68 | 191 | 0.0 | 0.0 | 0.00 | 0.52 | 0.00 | 97 | 1015.9 |
| 20260831130318 | 68 | 189 | 0.0 | 0.0 | 0.00 | 0.54 | 0.00 | 97 | 1016.3 |
| 20260831130211 | 68 | 191 | 0.0 | 0.0 | 0.00 | 0.54 | 0.00 | 97 | 1016.3 |
| 20260831130113 | 68 | 189 | 0.0 | 0.0 | 0.00 | 0.54 | 0.00 | 97 | 1016.3 |
| 20260831130017 | 68 | 187 | 0.0 | 0.0 | 0.00 | 0.54 | 0.00 | 97 | 1016.3 |
| 20260831125959 | 68 | 187 | 0.0 | 0.0 | 0.00 | 0.54 | 0.00 | 97 | 1016.3 |
| 20260831125854 | 68 | 185 | 0.0 | 0.0 | 0.00 | 0.56 | 0.00 | 97 | 1016.3 |
| 20260831125748 | 68 | 185 | 0.0 | 0.0 | 0.00 | 0.56 | 0.00 | 97 | 1016.3 |
| 20260831125739 | 68 | 185 | 0.0 | 0.0 | 0.00 | 0.57 | 0.00 | 97 | 1015.9 |
| 20260831125731 | 68 | 185 | 0.0 | 0.0 | 0.00 | 0.57 | 0.00 | 97 | 1016.3 |
| 20260831125431 | 68 | 185 | 0.0 | 0.0 | 0.00 | 0.57 | 0.00 | 97 | 1016.3 |
| 20260831125326 | 68 | 185 | 0.0 | 0.0 | 0.00 | 0.58 | 0.00 | 97 | 1016.3 |
| 20260831125219 | 68 | 185 | 0.0 | 0.0 | 0.00 | 0.58 | 0.00 | 97 | 1016.3 |
| 20260831125114 | 68 | 185 | 0.0 | 0.0 | 0.00 | 0.59 | 0.00 | 97 | 1016.3 |
| 20260831125008 | 68 | 185 | 0.0 | 0.0 | 0.00 | 0.59 | 0.00 | 97 | 1016.3 |
| 20260831124902 | 68 | 177 | 0.0 | 0.0 | 0.00 | 0.60 | 0.00 | 97 | 1016.3 |
| 20260831124758 | 68 | 171 | 0.0 | 0.0 | 0.00 | 0.60 | 0.00 | 97 | 1015.9 |
| 20260831124652 | 68 | 171 | 0.0 | 0.0 | 0.00 | 0.60 | 0.00 | 97 | 1015.9 |
| 20260831124547 | 68 | 171 | 0.0 | 0.0 | 0.00 | 0.61 | 0.00 | 97 | 1016.3 |
| 20260831124459 | 68 | 166 | 0.0 | 0.0 | 0.00 | 0.61 | 0.00 | 97 | 1015.9 |
| 20260831124441 | 68 | 161 | 0.0 | 0.0 | 0.00 | 0.61 | 0.00 | 97 | 1015.9 |
| 20260831124336 | 68 | 161 | 0.0 | 0.0 | 0.00 | 0.61 | 0.00 | 97 | 1016.3 |
| 20260831124235 | 68 | 161 | 0.0 | 0.0 | 0.00 | 0.63 | 0.00 | 97 | 1016.3 |
| 20260831124231 | 68 | 161 | 0.0 | 0.0 | 0.00 | 0.62 | 0.00 | 97 | 1016.3 |
| 20260831124223 | 68 | 161 | 0.0 | 0.0 | 0.00 | 0.62 | 0.00 | 97 | 1016.3 |
| 20260831124214 | 68 | 161 | 0.0 | 0.0 | 0.00 | 0.63 | 0.00 | 97 | 1016.3 |
| 20260831123912 | 68 | 161 | 0.0 | 0.0 | 0.00 | 0.63 | 0.00 | 97 | 1016.3 |
| 20260831123807 | 68 | 161 | 0.0 | 0.0 | 0.00 | 0.63 | 0.00 | 97 | 1016.3 |
| 20260831123702 | 68 | 161 | 0.0 | 0.0 | 0.00 | 0.64 | 0.00 | 97 | 1016.3 |
| 20260831123556 | 68 | 161 | 0.0 | 0.0 | 0.00 | 0.64 | 0.00 | 97 | 1015.9 |
| 20260831123450 | 68 | 161 | 0.0 | 0.0 | 0.00 | 0.64 | 0.00 | 97 | 1016.3 |
| 20260831123345 | 68 | 161 | 0.0 | 0.0 | 0.00 | 0.64 | 0.00 | 97 | 1016.3 |
| 20260831123238 | 68 | 161 | 0.0 | 0.0 | 0.00 | 0.65 | 0.00 | 97 | 1015.9 |
| 20260831123133 | 68 | 161 | 0.0 | 0.0 | 0.00 | 0.65 | 0.00 | 97 | 1016.3 |
| 20260831123027 | 68 | 161 | 0.0 | 0.0 | 0.00 | 0.65 | 0.00 | 97 | 1015.9 |
| 20260831122939 | 67 | 161 | 0.0 | 0.0 | 0.00 | 0.65 | 0.00 | 97 | 1015.9 |
| 20260831122921 | 67 | 161 | 0.0 | 0.0 | 0.00 | 0.65 | 0.00 | 97 | 1016.3 |
| 20260831122816 | 67 | 161 | 0.0 | 0.0 | 0.00 | 0.65 | 0.00 | 97 | 1016.3 |
| 20260831122711 | 67 | 161 | 0.0 | 0.0 | 0.00 | 0.65 | 0.00 | 97 | 1016.3 |
| 20260831122604 | 67 | 161 | 0.0 | 0.0 | 0.00 | 0.65 | 0.00 | 97 | 1016.3 |
| 20260831122459 | 67 | 161 | 0.0 | 0.0 | 0.00 | 0.65 | 0.00 | 97 | 1016.3 |
| 20260831122432 | 67 | 161 | 0.0 | 0.0 | 0.00 | 0.65 | 0.00 | 97 | 1016.3 |
| 20260831122353 | 67 | 161 | 0.0 | 0.0 | 0.00 | 0.65 | 0.00 | 97 | 1016.3 |
| 20260831122247 | 67 | 161 | 0.0 | 0.0 | 0.00 | 0.65 | 0.00 | 97 | 1016.3 |
| 20260831122141 | 67 | 161 | 0.0 | 0.0 | 0.00 | 0.67 | 0.00 | 97 | 1016.3 |
| 20260831122036 | 67 | 161 | 0.0 | 0.0 | 0.00 | 0.67 | 0.00 | 97 | 1016.3 |
| 20260831121930 | 67 | 161 | 0.0 | 0.0 | 0.00 | 0.67 | 0.00 | 97 | 1016.3 |
| 20260831121824 | 67 | 161 | 0.0 | 0.0 | 0.00 | 0.68 | 0.00 | 97 | 1016.3 |
| 20260831121719 | 67 | 161 | 0.0 | 0.0 | 0.00 | 0.68 | 0.00 | 97 | 1016.3 |
| 20260831121613 | 67 | 161 | 0.0 | 0.0 | 0.00 | 0.69 | 0.00 | 97 | 1015.9 |
| 20260831121507 | 67 | 161 | 0.0 | 0.0 | 0.00 | 0.69 | 0.00 | 97 | 1016.3 |
| 20260831121419 | 67 | 161 | 0.0 | 0.0 | 0.00 | 0.69 | 0.00 | 97 | 1015.9 |
| 20260831121402 | 67 | 161 | 0.0 | 0.0 | 0.00 | 0.69 | 0.00 | 97 | 1015.9 |
| 20260831121256 | 67 | 161 | 0.0 | 0.0 | 0.00 | 0.69 | 0.00 | 97 | 1016.3 |
| 20260831121150 | 67 | 161 | 0.0 | 0.0 | 0.00 | 0.69 | 0.00 | 97 | 1016.3 |
| 20260831121045 | 67 | 161 | 0.0 | 0.0 | 0.00 | 0.69 | 0.00 | 97 | 1016.3 |
| 20260831120938 | 67 | 161 | 0.0 | 0.0 | 0.00 | 0.70 | 0.00 | 97 | 1016.3 |
| 20260831120912 | 67 | 161 | 0.0 | 0.0 | 0.00 | 0.70 | 0.00 | 97 | 1015.9 |
| 20260831120833 | 67 | 161 | 0.0 | 0.0 | 0.00 | 0.70 | 0.00 | 97 | 1016.3 |
| 20260831120740 | 67 | 161 | 0.0 | 0.0 | 0.00 | 0.70 | 0.00 | 97 | 1016.3 |
| 20260831120622 | 67 | 161 | 0.0 | 0.0 | 0.00 | 0.70 | 0.00 | 97 | 1016.3 |
| 20260831120516 | 67 | 161 | 0.0 | 0.0 | 0.00 | 0.70 | 0.00 | 97 | 1016.3 |
| 20260831120410 | 67 | 161 | 0.0 | 0.0 | 0.00 | 0.70 | 0.00 | 97 | 1016.3 |
| 20260831120304 | 67 | 161 | 0.0 | 0.0 | 0.00 | 0.70 | 0.00 | 97 | 1016.3 |
| 20260831120156 | 67 | 161 | 0.0 | 0.0 | 0.00 | 0.71 | 0.00 | 97 | 1016.3 |
| 20260831120104 | 67 | 161 | 0.0 | 0.0 | 0.00 | 0.71 | 0.00 | 97 | 1016.3 |
| 20260831115945 | 67 | 161 | 0.0 | 0.0 | 0.00 | 0.71 | 0.00 | 97 | 1016.3 |
| 20260831115857 | 67 | 161 | 0.0 | 0.0 | 0.00 | 0.71 | 0.00 | 97 | 1015.9 |
| 20260831115840 | 67 | 161 | 0.0 | 0.0 | 0.00 | 0.72 | 0.00 | 97 | 1015.9 |
| 20260831115735 | 67 | 161 | 0.0 | 0.0 | 0.00 | 0.72 | 0.00 | 97 | 1015.9 |
| 20260831115629 | 67 | 161 | 0.0 | 0.0 | 0.00 | 0.72 | 0.00 | 97 | 1016.3 |
| 20260831115523 | 67 | 161 | 0.0 | 0.0 | 0.00 | 0.72 | 0.00 | 97 | 1016.3 |
| 20260831115417 | 67 | 161 | 0.0 | 0.0 | 0.00 | 0.72 | 0.00 | 97 | 1016.3 |
| 20260831115351 | 67 | 161 | 0.0 | 0.0 | 0.00 | 0.72 | 0.00 | 97 | 1016.3 |
| 20260831115311 | 67 | 161 | 0.0 | 0.0 | 0.00 | 0.72 | 0.00 | 97 | 1016.3 |
| 20260831115205 | 67 | 161 | 0.0 | 0.0 | 0.00 | 0.72 | 0.00 | 97 | 1015.9 |
| 20260831115100 | 67 | 161 | 0.0 | 0.0 | 0.00 | 0.72 | 0.00 | 97 | 1016.3 |
| 20260831114954 | 67 | 161 | 0.0 | 0.0 | 0.00 | 0.72 | 0.00 | 97 | 1016.6 |
| 20260831114848 | 67 | 161 | 0.0 | 0.0 | 0.00 | 0.72 | 0.00 | 97 | 1016.3 |
| 20260831114743 | 67 | 161 | 0.0 | 0.0 | 0.00 | 0.72 | 0.00 | 97 | 1016.3 |
| 20260831114635 | 67 | 161 | 0.0 | 0.0 | 0.00 | 0.72 | 0.00 | 97 | 1016.3 |
| 20260831114530 | 67 | 161 | 0.0 | 0.0 | 0.00 | 0.72 | 0.00 | 97 | 1016.3 |
| 20260831114424 | 67 | 161 | 0.0 | 0.0 | 0.00 | 0.72 | 0.00 | 97 | 1016.3 |
| 20260831114319 | 67 | 161 | 0.0 | 0.0 | 0.00 | 0.72 | 0.00 | 97 | 1016.3 |
| 20260831114212 | 67 | 161 | 0.0 | 0.0 | 0.00 | 0.72 | 0.00 | 97 | 1016.3 |
| 20260831114107 | 67 | 160 | 0.0 | 0.0 | 0.00 | 0.72 | 0.00 | 97 | 1016.3 |
| 20260831114002 | 67 | 160 | 0.0 | 0.0 | 0.00 | 0.72 | 0.00 | 97 | 1016.6 |
| 20260831113829 | 67 | 160 | 0.0 | 0.0 | 0.00 | 0.72 | 0.00 | 97 | 1016.3 |
| 20260831113750 | 67 | 160 | 0.0 | 0.0 | 0.00 | 0.72 | 0.00 | 97 | 1016.3 |
| 20260831113644 | 67 | 160 | 0.0 | 0.0 | 0.00 | 0.72 | 0.00 | 97 | 1016.6 |
| 20260831113538 | 67 | 160 | 0.0 | 0.0 | 0.00 | 0.72 | 0.00 | 97 | 1016.3 |
| 20260831113433 | 67 | 160 | 0.0 | 0.0 | 0.00 | 0.72 | 0.00 | 97 | 1016.3 |
| 20260831113327 | 67 | 160 | 0.0 | 0.0 | 0.00 | 0.72 | 0.00 | 97 | 1016.3 |
| 20260831113222 | 67 | 160 | 0.0 | 0.0 | 0.00 | 0.72 | 0.00 | 97 | 1016.3 |
| 20260831113115 | 67 | 160 | 0.0 | 0.0 | 0.00 | 0.72 | 0.00 | 97 | 1016.3 |
| 20260831113021 | 67 | 160 | 0.0 | 0.0 | 0.00 | 0.72 | 0.00 | 97 | 1016.3 |
| 20260831112903 | 67 | 160 | 0.0 | 0.0 | 0.00 | 0.72 | 0.00 | 97 | 1016.3 |
| 20260831112815 | 67 | 160 | 0.0 | 0.0 | 0.00 | 0.72 | 0.00 | 97 | 1016.3 |
| 20260831112757 | 67 | 160 | 0.0 | 0.0 | 0.00 | 0.72 | 0.00 | 97 | 1016.3 |
| 20260831112652 | 67 | 160 | 0.0 | 0.0 | 0.00 | 0.72 | 0.00 | 97 | 1016.3 |
| 20260831112559 | 67 | 160 | 0.0 | 0.0 | 0.00 | 0.72 | 0.00 | 97 | 1016.3 |
| 20260831112440 | 67 | 160 | 0.0 | 0.0 | 0.00 | 0.72 | 0.00 | 97 | 1016.6 |
| 20260831112335 | 67 | 160 | 0.0 | 0.0 | 0.00 | 0.72 | 0.00 | 97 | 1016.3 |
| 20260831112308 | 67 | 160 | 0.0 | 0.0 | 0.00 | 0.72 | 0.00 | 97 | 1016.3 |
| 20260831112229 | 67 | 160 | 0.0 | 0.0 | 0.00 | 0.72 | 0.00 | 97 | 1016.3 |
| 20260831112123 | 67 | 160 | 0.0 | 0.0 | 0.00 | 0.72 | 0.00 | 97 | 1016.3 |
| 20260831112018 | 67 | 160 | 0.0 | 0.0 | 0.00 | 0.72 | 0.00 | 97 | 1016.3 |
| 20260831111912 | 67 | 160 | 0.0 | 0.0 | 0.00 | 0.72 | 0.00 | 97 | 1016.3 |
| 20260831111805 | 67 | 160 | 0.0 | 0.0 | 0.00 | 0.72 | 0.00 | 97 | 1016.3 |
| 20260831111700 | 67 | 160 | 0.0 | 0.0 | 0.00 | 0.72 | 0.00 | 97 | 1016.3 |
| 20260831111555 | 67 | 160 | 0.0 | 0.0 | 0.00 | 0.72 | 0.00 | 97 | 1016.3 |
| 20260831111448 | 67 | 160 | 0.0 | 0.0 | 0.00 | 0.72 | 0.00 | 97 | 1016.3 |
| 20260831111356 | 67 | 160 | 0.0 | 0.0 | 0.00 | 0.72 | 0.00 | 97 | 1016.3 |
| 20260831111238 | 67 | 160 | 0.0 | 0.0 | 0.00 | 0.72 | 0.00 | 97 | 1016.6 |
| 20260831111132 | 67 | 160 | 0.0 | 0.0 | 0.00 | 0.72 | 0.00 | 97 | 1016.3 |
| 20260831111026 | 67 | 160 | 0.0 | 0.0 | 0.00 | 0.72 | 0.00 | 97 | 1016.3 |
| 20260831110920 | 67 | 160 | 0.0 | 0.0 | 0.00 | 0.72 | 0.00 | 97 | 1016.3 |
| 20260831110814 | 67 | 160 | 0.0 | 0.0 | 0.00 | 0.72 | 0.00 | 97 | 1016.3 |
| 20260831110749 | 67 | 160 | 0.0 | 0.0 | 0.00 | 0.72 | 0.00 | 97 | 1016.3 |
| 20260831110709 | 67 | 160 | 0.0 | 0.0 | 0.00 | 0.72 | 0.00 | 97 | 1016.6 |
| 20260831110603 | 66 | 160 | 0.0 | 0.0 | 0.00 | 0.72 | 0.00 | 97 | 1016.6 |
| 20260831110457 | 66 | 160 | 0.0 | 0.0 | 0.00 | 0.72 | 0.00 | 97 | 1016.3 |
| 20260831110352 | 66 | 160 | 0.0 | 0.0 | 0.00 | 0.72 | 0.00 | 97 | 1016.3 |
| 20260831110246 | 66 | 160 | 0.0 | 0.0 | 0.00 | 0.72 | 0.00 | 97 | 1016.3 |
| 20260831110140 | 66 | 160 | 0.0 | 0.0 | 0.00 | 0.72 | 0.00 | 97 | 1016.6 |
| 20260831110035 | 66 | 160 | 0.0 | 0.0 | 0.00 | 0.72 | 0.00 | 97 | 1016.3 |
| 20260831105930 | 66 | 160 | 0.0 | 0.0 | 0.00 | 0.72 | 0.00 | 97 | 1016.3 |
| 20260831105823 | 66 | 160 | 0.0 | 0.0 | 0.00 | 0.72 | 0.00 | 97 | 1016.3 |
| 20260831105716 | 66 | 160 | 0.0 | 0.0 | 0.00 | 0.72 | 0.00 | 97 | 1016.3 |
| 20260831105611 | 66 | 160 | 0.0 | 0.0 | 0.00 | 0.72 | 0.00 | 97 | 1016.3 |
| 20260831105506 | 66 | 160 | 0.0 | 0.0 | 0.00 | 0.72 | 0.00 | 97 | 1016.3 |
| 20260831105359 | 66 | 160 | 0.0 | 0.0 | 0.00 | 0.72 | 0.00 | 97 | 1016.3 |
| 20260831105229 | 66 | 160 | 0.0 | 0.0 | 0.00 | 0.72 | 0.00 | 97 | 1016.3 |
| 20260831105148 | 66 | 160 | 0.0 | 0.0 | 0.00 | 0.72 | 0.00 | 97 | 1016.3 |
| 20260831105042 | 66 | 160 | 0.0 | 0.0 | 0.00 | 0.72 | 0.00 | 97 | 1016.3 |
| 20260831104937 | 66 | 160 | 0.0 | 0.0 | 0.00 | 0.72 | 0.00 | 97 | 1016.3 |
| 20260831104831 | 66 | 160 | 0.0 | 0.0 | 0.00 | 0.72 | 0.00 | 97 | 1016.3 |
| 20260831104724 | 66 | 160 | 0.0 | 0.0 | 0.00 | 0.72 | 0.00 | 97 | 1016.3 |
| 20260831104619 | 66 | 160 | 0.0 | 0.0 | 0.00 | 0.72 | 0.00 | 97 | 1016.3 |
| 20260831104514 | 66 | 160 | 0.0 | 0.0 | 0.00 | 0.72 | 0.00 | 97 | 1016.3 |
| 20260831104408 | 66 | 160 | 0.0 | 0.0 | 0.00 | 0.72 | 0.00 | 97 | 1016.3 |
| 20260831104302 | 66 | 160 | 0.0 | 0.0 | 0.00 | 0.72 | 0.00 | 97 | 1016.3 |
| 20260831104215 | 66 | 160 | 0.0 | 0.0 | 0.00 | 0.72 | 0.00 | 97 | 1016.3 |
| 20260831104157 | 66 | 160 | 0.0 | 0.0 | 0.00 | 0.72 | 0.00 | 97 | 1016.3 |
| 20260831104051 | 66 | 160 | 0.0 | 0.0 | 0.00 | 0.72 | 0.00 | 97 | 1016.3 |
| 20260831103945 | 66 | 160 | 0.0 | 0.0 | 0.00 | 0.73 | 0.00 | 97 | 1016.3 |
| 20260831103840 | 66 | 160 | 0.0 | 0.0 | 0.00 | 0.73 | 0.00 | 97 | 1016.3 |
| 20260831103708 | 66 | 160 | 0.0 | 0.0 | 0.00 | 0.73 | 0.00 | 97 | 1016.3 |
| 20260831103628 | 66 | 160 | 0.0 | 0.0 | 0.00 | 0.73 | 0.00 | 97 | 1016.3 |
| 20260831103522 | 66 | 160 | 0.0 | 0.0 | 0.00 | 0.73 | 0.00 | 97 | 1016.3 |
| 20260831103417 | 66 | 160 | 0.0 | 0.0 | 0.00 | 0.73 | 0.00 | 97 | 1015.9 |
| 20260831103311 | 66 | 160 | 0.0 | 0.0 | 0.00 | 0.73 | 0.00 | 97 | 1016.3 |
| 20260831103206 | 66 | 160 | 0.0 | 0.0 | 0.00 | 0.73 | 0.00 | 97 | 1016.3 |
| 20260831103100 | 66 | 160 | 0.0 | 0.0 | 0.00 | 0.73 | 0.00 | 97 | 1015.9 |
| 20260831102954 | 66 | 160 | 0.0 | 0.0 | 0.00 | 0.73 | 0.00 | 97 | 1015.9 |
| 20260831102848 | 66 | 160 | 0.0 | 0.0 | 0.00 | 0.73 | 0.00 | 97 | 1016.3 |
| 20260831102743 | 66 | 160 | 0.0 | 0.0 | 0.00 | 0.73 | 0.00 | 97 | 1016.3 |
| 20260831102637 | 66 | 160 | 0.0 | 0.0 | 0.00 | 0.73 | 0.00 | 97 | 1016.3 |
| 20260831102531 | 66 | 160 | 0.0 | 0.0 | 0.00 | 0.73 | 0.00 | 97 | 1016.3 |
| 20260831102426 | 66 | 160 | 0.0 | 0.0 | 0.00 | 0.73 | 0.00 | 97 | 1015.9 |
| 20260831102418 | 66 | 160 | 0.0 | 0.0 | 0.00 | 0.73 | 0.00 | 97 | 1016.3 |
| 20260831102414 | 66 | 160 | 0.0 | 0.0 | 0.00 | 0.73 | 0.00 | 97 | 1016.3 |
| 20260831102405 | 66 | 160 | 0.0 | 0.0 | 0.00 | 0.73 | 0.00 | 97 | 1016.3 |
| 20260831102108 | 66 | 160 | 0.0 | 0.0 | 0.00 | 0.73 | 0.00 | 97 | 1016.3 |
| 20260831102003 | 66 | 160 | 0.0 | 0.0 | 0.00 | 0.73 | 0.00 | 97 | 1016.3 |
| 20260831101856 | 66 | 160 | 0.0 | 0.0 | 0.00 | 0.73 | 0.00 | 97 | 1015.9 |
| 20260831101751 | 66 | 160 | 0.0 | 0.0 | 0.00 | 0.73 | 0.00 | 97 | 1015.9 |
| 20260831101645 | 66 | 160 | 0.0 | 0.0 | 0.00 | 0.73 | 0.00 | 97 | 1016.3 |
| 20260831101539 | 66 | 161 | 0.0 | 0.0 | 0.00 | 0.73 | 0.00 | 97 | 1016.3 |
| 20260831101434 | 66 | 161 | 0.0 | 0.0 | 0.00 | 0.73 | 0.00 | 97 | 1015.9 |
| 20260831101328 | 66 | 161 | 0.0 | 0.0 | 0.00 | 0.73 | 0.00 | 97 | 1016.3 |
| 20260831101224 | 66 | 161 | 0.0 | 0.0 | 0.00 | 0.73 | 0.00 | 97 | 1016.3 |
| 20260831101205 | 66 | 161 | 0.0 | 0.0 | 0.00 | 0.73 | 0.00 | 97 | 1015.9 |
| 20260831101159 | 66 | 161 | 0.0 | 0.0 | 0.00 | 0.73 | 0.00 | 97 | 1016.3 |
| 20260831101155 | 66 | 161 | 0.0 | 0.0 | 0.00 | 0.73 | 0.00 | 97 | 1015.9 |
| 20260831101146 | 66 | 161 | 0.0 | 0.0 | 0.00 | 0.73 | 0.00 | 97 | 1015.9 |
| 20260831100926 | 66 | 161 | 0.0 | 0.0 | 0.00 | 0.73 | 0.00 | 97 | 1016.3 |
| 20260831100918 | 66 | 161 | 0.0 | 0.0 | 0.00 | 0.73 | 0.00 | 97 | 1016.3 |
| 20260831100657 | 66 | 161 | 0.0 | 0.0 | 0.00 | 0.73 | 0.00 | 97 | 1016.3 |
| 20260831100647 | 66 | 161 | 0.0 | 0.0 | 0.00 | 0.73 | 0.00 | 97 | 1015.9 |
| 20260831100642 | 66 | 161 | 0.0 | 0.0 | 0.00 | 0.73 | 0.00 | 97 | 1015.9 |
| 20260831100634 | 66 | 161 | 0.0 | 0.0 | 0.00 | 0.73 | 0.00 | 97 | 1016.3 |
| 20260831100410 | 66 | 161 | 0.0 | 0.0 | 0.00 | 0.73 | 0.00 | 97 | 1015.9 |
| 20260831100401 | 66 | 161 | 0.0 | 0.0 | 0.00 | 0.73 | 0.00 | 97 | 1015.9 |
| 20260831100351 | 66 | 161 | 0.0 | 0.0 | 0.00 | 0.73 | 0.00 | 97 | 1015.9 |
| 20260831100019 | 66 | 161 | 0.0 | 0.0 | 0.00 | 0.73 | 0.00 | 97 | 1016.3 |
| 20260831095914 | 66 | 161 | 0.0 | 0.0 | 0.00 | 0.73 | 0.00 | 97 | 1016.3 |
| 20260831095809 | 66 | 161 | 0.0 | 0.0 | 0.00 | 0.73 | 0.00 | 97 | 1015.9 |
| 20260831095703 | 66 | 161 | 0.0 | 0.0 | 0.00 | 0.73 | 0.00 | 97 | 1015.9 |
| 20260831095615 | 66 | 161 | 0.0 | 0.0 | 0.00 | 0.73 | 0.00 | 97 | 1016.3 |
| 20260831095557 | 66 | 161 | 0.0 | 0.0 | 0.00 | 0.73 | 0.00 | 97 | 1016.3 |
| 20260831095452 | 66 | 161 | 0.0 | 0.0 | 0.00 | 0.73 | 0.00 | 97 | 1016.3 |
| 20260831095400 | 66 | 161 | 0.0 | 0.0 | 0.00 | 0.73 | 0.00 | 97 | 1016.3 |
| 20260831095346 | 66 | 161 | 0.0 | 0.0 | 0.00 | 0.73 | 0.00 | 97 | 1015.9 |
| 20260831095337 | 66 | 161 | 0.0 | 0.0 | 0.00 | 0.73 | 0.00 | 97 | 1015.9 |
| 20260831095039 | 66 | 161 | 0.0 | 0.0 | 0.00 | 0.73 | 0.00 | 97 | 1015.9 |
| 20260831094934 | 66 | 161 | 0.0 | 0.0 | 0.00 | 0.74 | 0.00 | 97 | 1015.9 |
| 20260831094848 | 66 | 161 | 0.0 | 0.0 | 0.00 | 0.74 | 0.00 | 97 | 1016.3 |
| 20260831094840 | 66 | 161 | 0.0 | 0.0 | 0.00 | 0.74 | 0.00 | 97 | 1015.9 |
| 20260831094829 | 66 | 161 | 0.0 | 0.0 | 0.00 | 0.74 | 0.00 | 97 | 1016.3 |
| 20260831094511 | 66 | 161 | 0.0 | 0.0 | 0.00 | 0.74 | 0.00 | 97 | 1015.9 |
| 20260831094405 | 66 | 161 | 0.0 | 0.0 | 0.00 | 0.74 | 0.00 | 97 | 1015.9 |
| 20260831094336 | 66 | 160 | 0.0 | 0.0 | 0.00 | 0.75 | 0.00 | 97 | 1015.6 |
| 20260831094332 | 66 | 160 | 0.0 | 0.0 | 0.00 | 0.74 | 0.00 | 97 | 1015.9 |
| 20260831094323 | 66 | 160 | 0.0 | 0.0 | 0.00 | 0.75 | 0.00 | 97 | 1015.9 |
| 20260831094047 | 66 | 160 | 0.0 | 0.0 | 0.00 | 0.75 | 0.00 | 97 | 1015.6 |
| 20260831093942 | 66 | 160 | 0.0 | 0.0 | 0.00 | 0.75 | 0.00 | 97 | 1015.9 |
| 20260831093837 | 66 | 159 | 0.0 | 0.0 | 0.00 | 0.75 | 0.00 | 97 | 1015.9 |
| 20260831093731 | 66 | 161 | 0.0 | 0.0 | 0.00 | 0.75 | 0.00 | 97 | 1015.9 |
| 20260831093625 | 66 | 161 | 0.0 | 0.0 | 0.00 | 0.75 | 0.00 | 97 | 1015.9 |
| 20260831093559 | 66 | 161 | 0.0 | 0.0 | 0.00 | 0.75 | 0.00 | 97 | 1015.9 |
| 20260831093520 | 66 | 161 | 0.0 | 0.0 | 0.00 | 0.75 | 0.00 | 97 | 1015.9 |
| 20260831093414 | 66 | 161 | 0.0 | 0.0 | 0.00 | 0.75 | 0.00 | 97 | 1015.9 |
| 20260831093308 | 66 | 161 | 0.0 | 0.0 | 0.00 | 0.75 | 0.00 | 97 | 1015.9 |
| 20260831093202 | 66 | 161 | 0.0 | 0.0 | 0.00 | 0.75 | 0.00 | 97 | 1015.9 |
| 20260831093056 | 66 | 161 | 0.0 | 0.0 | 0.00 | 0.75 | 0.00 | 97 | 1015.9 |
| 20260831092950 | 66 | 161 | 0.0 | 0.0 | 0.00 | 0.75 | 0.00 | 97 | 1015.9 |
| 20260831092845 | 66 | 161 | 0.0 | 0.0 | 0.00 | 0.75 | 0.00 | 97 | 1015.9 |
| 20260831092740 | 66 | 161 | 0.0 | 0.0 | 0.00 | 0.76 | 0.00 | 97 | 1015.9 |
| 20260831092646 | 66 | 161 | 0.0 | 0.0 | 0.00 | 0.76 | 0.00 | 97 | 1015.9 |
| 20260831092545 | 66 | 161 | 0.0 | 0.0 | 0.00 | 0.76 | 0.00 | 97 | 1015.9 |
| 20260831092528 | 66 | 161 | 0.0 | 0.0 | 0.00 | 0.76 | 0.00 | 97 | 1016.3 |
| 20260831092422 | 66 | 161 | 0.0 | 0.0 | 0.00 | 0.76 | 0.00 | 97 | 1016.3 |
| 20260831092316 | 66 | 161 | 0.0 | 0.0 | 0.00 | 0.76 | 0.00 | 97 | 1016.3 |
| 20260831092308 | 66 | 161 | 0.0 | 0.0 | 0.00 | 0.76 | 0.00 | 97 | 1016.3 |
| 20260831092259 | 66 | 161 | 0.0 | 0.0 | 0.00 | 0.76 | 0.00 | 97 | 1016.3 |
| 20260831091959 | 66 | 161 | 0.0 | 0.0 | 0.00 | 0.76 | 0.00 | 97 | 1015.9 |
| 20260831091854 | 66 | 161 | 0.0 | 0.0 | 0.00 | 0.76 | 0.00 | 97 | 1016.3 |
| 20260831091810 | 66 | 161 | 0.0 | 0.0 | 0.00 | 0.76 | 0.00 | 97 | 1015.9 |
| 20260831091801 | 66 | 161 | 0.0 | 0.0 | 0.00 | 0.76 | 0.00 | 97 | 1015.9 |
| 20260831091751 | 66 | 157 | 0.0 | 0.0 | 0.00 | 0.76 | 0.00 | 97 | 1016.3 |
| 20260831091431 | 66 | 157 | 0.0 | 0.0 | 0.00 | 0.76 | 0.00 | 97 | 1016.3 |
| 20260831091325 | 66 | 156 | 0.0 | 0.0 | 0.00 | 0.76 | 0.00 | 97 | 1015.9 |
| 20260831091220 | 66 | 156 | 0.0 | 0.0 | 0.00 | 0.76 | 0.00 | 97 | 1016.3 |
| 20260831091114 | 66 | 156 | 0.0 | 0.0 | 0.00 | 0.76 | 0.00 | 97 | 1016.3 |
| 20260831091025 | 66 | 156 | 0.0 | 0.0 | 0.00 | 0.76 | 0.00 | 97 | 1015.9 |
| 20260831091008 | 66 | 156 | 0.0 | 0.0 | 0.00 | 0.76 | 0.00 | 97 | 1015.9 |
| 20260831090903 | 66 | 156 | 0.0 | 0.0 | 0.00 | 0.76 | 0.00 | 97 | 1015.9 |
| 20260831090756 | 66 | 156 | 0.0 | 0.0 | 0.00 | 0.76 | 0.00 | 97 | 1015.9 |
| 20260831090651 | 66 | 156 | 0.0 | 0.0 | 0.00 | 0.76 | 0.00 | 97 | 1015.9 |
| 20260831090545 | 66 | 156 | 0.0 | 0.0 | 0.00 | 0.76 | 0.00 | 97 | 1016.3 |
| 20260831090519 | 66 | 156 | 0.0 | 0.0 | 0.00 | 0.76 | 0.00 | 97 | 1015.9 |
| 20260831090440 | 66 | 156 | 0.0 | 0.0 | 0.00 | 0.76 | 0.00 | 97 | 1015.9 |
| 20260831090334 | 66 | 156 | 0.0 | 0.0 | 0.00 | 0.76 | 0.00 | 97 | 1015.9 |
| 20260831090228 | 66 | 156 | 0.0 | 0.0 | 0.00 | 0.76 | 0.00 | 97 | 1016.3 |
| 20260831090124 | 66 | 156 | 0.0 | 0.0 | 0.00 | 0.76 | 0.00 | 97 | 1016.3 |
| 20260831090017 | 66 | 156 | 0.0 | 0.0 | 0.00 | 0.76 | 0.00 | 97 | 1016.3 |
| 20260831085909 | 66 | 156 | 0.0 | 0.0 | 0.00 | 0.77 | 0.00 | 97 | 1016.3 |
| 20260831085802 | 66 | 156 | 0.0 | 0.0 | 0.00 | 0.77 | 0.00 | 97 | 1016.3 |
| 20260831085656 | 66 | 156 | 0.0 | 0.0 | 0.00 | 0.77 | 0.00 | 97 | 1016.3 |
| 20260831085551 | 66 | 156 | 0.0 | 0.0 | 0.00 | 0.77 | 0.00 | 97 | 1016.3 |
| 20260831085513 | 66 | 156 | 0.0 | 0.0 | 0.00 | 0.77 | 0.00 | 97 | 1016.3 |
| 20260831085445 | 66 | 156 | 0.0 | 0.0 | 0.00 | 0.77 | 0.00 | 97 | 1016.3 |
| 20260831085328 | 66 | 156 | 0.0 | 0.0 | 0.00 | 0.77 | 0.00 | 97 | 1016.3 |
| 20260831085222 | 66 | 156 | 0.0 | 0.0 | 0.00 | 0.77 | 0.00 | 96 | 1016.3 |
| 20260831085117 | 66 | 156 | 0.0 | 0.0 | 0.00 | 0.77 | 0.00 | 96 | 1015.9 |
| 20260831085011 | 66 | 156 | 0.0 | 0.0 | 0.00 | 0.77 | 0.00 | 96 | 1016.3 |
| 20260831084956 | 66 | 156 | 0.0 | 0.0 | 0.00 | 0.77 | 0.00 | 96 | 1016.3 |
| 20260831084905 | 66 | 156 | 0.0 | 0.0 | 0.00 | 0.77 | 0.00 | 96 | 1016.3 |
| 20260831084800 | 66 | 156 | 0.0 | 0.0 | 0.00 | 0.77 | 0.00 | 96 | 1016.3 |
| 20260831084653 | 66 | 156 | 0.0 | 0.0 | 0.00 | 0.77 | 0.00 | 96 | 1016.3 |
| 20260831084548 | 66 | 156 | 0.0 | 0.0 | 0.00 | 0.77 | 0.00 | 96 | 1016.6 |
| 20260831084443 | 66 | 156 | 0.0 | 0.0 | 0.00 | 0.77 | 0.00 | 96 | 1016.3 |
| 20260831084336 | 66 | 153 | 0.0 | 0.0 | 0.00 | 0.77 | 0.00 | 96 | 1016.3 |
| 20260831084231 | 66 | 153 | 0.0 | 0.0 | 0.00 | 0.77 | 0.00 | 96 | 1016.3 |
| 20260831084125 | 66 | 154 | 0.0 | 0.0 | 0.00 | 0.77 | 0.00 | 96 | 1016.3 |
| 20260831084019 | 66 | 154 | 0.0 | 0.0 | 0.00 | 0.77 | 0.00 | 96 | 1016.3 |
| 20260831083914 | 66 | 154 | 0.0 | 0.0 | 0.00 | 0.77 | 0.00 | 96 | 1016.3 |
| 20260831083808 | 66 | 152 | 0.0 | 0.0 | 0.00 | 0.77 | 0.00 | 96 | 1015.9 |
| 20260831083702 | 66 | 153 | 0.0 | 0.0 | 0.00 | 0.77 | 0.00 | 96 | 1016.3 |
| 20260831083557 | 66 | 153 | 0.0 | 0.0 | 0.00 | 0.77 | 0.00 | 96 | 1016.3 |
| 20260831083435 | 66 | 152 | 0.0 | 0.0 | 0.00 | 0.78 | 0.00 | 96 | 1015.9 |
| 20260831083346 | 66 | 153 | 0.0 | 0.0 | 0.00 | 0.78 | 0.00 | 96 | 1015.9 |
| 20260831083239 | 66 | 153 | 0.0 | 0.0 | 0.00 | 0.78 | 0.00 | 96 | 1016.3 |
| 20260831083134 | 66 | 154 | 0.0 | 0.0 | 0.00 | 0.78 | 0.00 | 96 | 1015.9 |
| 20260831083028 | 66 | 153 | 0.0 | 0.0 | 0.00 | 0.78 | 0.00 | 96 | 1015.9 |
| 20260831082923 | 66 | 153 | 0.0 | 0.0 | 0.00 | 0.78 | 0.00 | 96 | 1015.9 |
| 20260831082816 | 66 | 153 | 0.0 | 0.0 | 0.00 | 0.78 | 0.00 | 96 | 1015.9 |
| 20260831082711 | 66 | 154 | 0.0 | 0.0 | 0.00 | 0.78 | 0.00 | 96 | 1015.9 |
| 20260831082606 | 66 | 154 | 0.0 | 0.0 | 0.00 | 0.78 | 0.00 | 96 | 1015.9 |
| 20260831082459 | 66 | 154 | 0.0 | 0.0 | 0.00 | 0.78 | 0.00 | 96 | 1015.9 |
| 20260831082423 | 66 | 154 | 0.0 | 0.0 | 0.00 | 0.78 | 0.00 | 96 | 1015.9 |
| 20260831082354 | 66 | 154 | 0.0 | 0.0 | 0.00 | 0.78 | 0.00 | 96 | 1015.9 |
| 20260831082248 | 66 | 153 | 0.0 | 0.0 | 0.00 | 0.78 | 0.00 | 96 | 1015.9 |
| 20260831082142 | 66 | 153 | 0.0 | 0.0 | 0.00 | 0.78 | 0.00 | 96 | 1015.6 |
| 20260831082036 | 66 | 153 | 0.0 | 0.0 | 0.00 | 0.78 | 0.00 | 96 | 1015.9 |
| 20260831081915 | 66 | 153 | 0.0 | 0.0 | 0.00 | 0.78 | 0.00 | 96 | 1015.6 |
| 20260831081825 | 66 | 153 | 0.0 | 0.0 | 0.00 | 0.78 | 0.00 | 96 | 1015.6 |
| 20260831081718 | 66 | 153 | 0.0 | 0.0 | 0.00 | 0.78 | 0.00 | 96 | 1015.9 |
| 20260831081613 | 66 | 153 | 0.0 | 0.0 | 0.00 | 0.78 | 0.00 | 96 | 1015.9 |
| 20260831081507 | 66 | 153 | 0.0 | 0.0 | 0.00 | 0.78 | 0.00 | 96 | 1015.9 |
| 20260831081407 | 66 | 153 | 0.0 | 0.0 | 0.00 | 0.78 | 0.00 | 96 | 1016.3 |
| 20260831081401 | 66 | 153 | 0.0 | 0.0 | 0.00 | 0.78 | 0.00 | 96 | 1016.3 |
| 20260831081256 | 66 | 152 | 0.0 | 0.0 | 0.00 | 0.78 | 0.00 | 96 | 1015.9 |
| 20260831081151 | 66 | 152 | 0.0 | 0.0 | 0.00 | 0.78 | 0.00 | 96 | 1015.9 |
| 20260831081044 | 66 | 152 | 0.0 | 0.0 | 0.00 | 0.78 | 0.00 | 96 | 1015.9 |
| 20260831080939 | 66 | 152 | 0.0 | 0.0 | 0.00 | 0.78 | 0.00 | 96 | 1015.6 |
| 20260831080901 | 66 | 152 | 0.0 | 0.0 | 0.00 | 0.78 | 0.00 | 96 | 1015.9 |
| 20260831080833 | 66 | 152 | 0.0 | 0.0 | 0.00 | 0.78 | 0.00 | 96 | 1015.9 |
| 20260831080728 | 66 | 152 | 0.0 | 0.0 | 0.00 | 0.78 | 0.00 | 96 | 1015.6 |
| 20260831080621 | 66 | 152 | 0.0 | 0.0 | 0.00 | 0.78 | 0.00 | 96 | 1015.9 |
| 20260831080516 | 66 | 152 | 0.0 | 0.0 | 0.00 | 0.78 | 0.00 | 96 | 1015.9 |
| 20260831080410 | 67 | 152 | 0.0 | 0.0 | 0.00 | 0.78 | 0.00 | 96 | 1015.9 |
| 20260831080354 | 67 | 152 | 0.0 | 0.0 | 0.00 | 0.78 | 0.00 | 96 | 1015.9 |
| 20260831080318 | 67 | 152 | 0.0 | 0.0 | 0.00 | 0.78 | 0.00 | 96 | 1015.9 |
| 20260831080158 | 67 | 152 | 0.0 | 0.0 | 0.00 | 0.78 | 0.00 | 96 | 1015.9 |
| 20260831080105 | 66 | 152 | 0.0 | 0.0 | 0.00 | 0.78 | 0.00 | 96 | 1015.9 |
| 20260831075946 | 66 | 152 | 0.0 | 0.0 | 0.00 | 0.78 | 0.00 | 96 | 1015.9 |
| 20260831075841 | 66 | 152 | 0.0 | 0.0 | 0.00 | 0.78 | 0.00 | 96 | 1015.9 |
| 20260831075735 | 66 | 152 | 0.0 | 0.0 | 0.00 | 0.78 | 0.00 | 96 | 1016.3 |
| 20260831075630 | 67 | 157 | 0.0 | 0.0 | 0.00 | 0.78 | 0.00 | 96 | 1016.3 |
| 20260831075524 | 67 | 157 | 0.0 | 0.0 | 0.00 | 0.78 | 0.00 | 96 | 1015.9 |
| 20260831075418 | 67 | 157 | 0.0 | 0.0 | 0.00 | 0.78 | 0.00 | 96 | 1015.9 |
| 20260831075312 | 67 | 157 | 0.0 | 0.0 | 0.00 | 0.78 | 0.00 | 96 | 1015.9 |
| 20260831075206 | 67 | 157 | 0.0 | 0.0 | 0.00 | 0.80 | 0.00 | 96 | 1015.9 |
| 20260831075101 | 67 | 157 | 0.0 | 0.0 | 0.00 | 0.80 | 0.00 | 96 | 1015.9 |
| 20260831074954 | 67 | 157 | 0.0 | 0.0 | 0.00 | 0.80 | 0.00 | 96 | 1016.3 |
| 20260831074834 | 67 | 157 | 0.0 | 0.0 | 0.00 | 0.80 | 0.00 | 96 | 1015.9 |
| 20260831074744 | 67 | 157 | 0.0 | 0.0 | 0.00 | 0.80 | 0.00 | 96 | 1015.9 |
| 20260831074636 | 67 | 157 | 0.0 | 0.0 | 0.00 | 0.80 | 0.00 | 96 | 1016.3 |
| 20260831074531 | 67 | 157 | 0.0 | 0.0 | 0.00 | 0.80 | 0.00 | 96 | 1015.9 |
| 20260831074424 | 67 | 157 | 0.0 | 0.0 | 0.00 | 0.80 | 0.00 | 96 | 1015.9 |
| 20260831074319 | 67 | 157 | 0.0 | 0.0 | 0.00 | 0.80 | 0.00 | 96 | 1015.9 |
| 20260831074214 | 67 | 157 | 0.0 | 0.0 | 0.00 | 0.80 | 0.00 | 96 | 1015.9 |
| 20260831074107 | 67 | 157 | 0.0 | 0.0 | 0.00 | 0.80 | 0.00 | 96 | 1015.9 |
| 20260831074002 | 67 | 157 | 0.0 | 0.0 | 0.00 | 0.80 | 0.00 | 96 | 1015.9 |
| 20260831073857 | 67 | 157 | 0.0 | 0.0 | 0.00 | 0.80 | 0.00 | 96 | 1015.9 |
| 20260831073819 | 67 | 157 | 0.0 | 0.0 | 0.00 | 0.80 | 0.00 | 96 | 1015.9 |
| 20260831073751 | 67 | 157 | 0.0 | 0.0 | 0.00 | 0.80 | 0.00 | 96 | 1015.9 |
| 20260831073644 | 67 | 157 | 0.0 | 0.0 | 0.00 | 0.80 | 0.00 | 96 | 1015.9 |
| 20260831073539 | 67 | 157 | 0.0 | 0.0 | 0.00 | 0.80 | 0.00 | 96 | 1015.9 |
| 20260831073433 | 67 | 157 | 0.0 | 0.0 | 0.00 | 0.80 | 0.00 | 96 | 1015.9 |
| 20260831073312 | 67 | 157 | 0.0 | 0.0 | 0.00 | 0.80 | 0.00 | 96 | 1015.6 |
| 20260831073222 | 67 | 157 | 0.0 | 0.0 | 0.00 | 0.80 | 0.00 | 96 | 1015.6 |
| 20260831073116 | 67 | 157 | 0.0 | 0.0 | 0.00 | 0.80 | 0.00 | 96 | 1015.9 |
| 20260831073011 | 67 | 157 | 0.0 | 0.0 | 0.00 | 0.80 | 0.00 | 96 | 1015.9 |
| 20260831072918 | 67 | 157 | 0.0 | 0.0 | 0.00 | 0.80 | 0.00 | 96 | 1015.9 |
| 20260831072806 | 67 | 157 | 0.0 | 0.0 | 0.00 | 0.80 | 0.00 | 96 | 1015.6 |
| 20260831072800 | 67 | 157 | 0.0 | 0.0 | 0.00 | 0.80 | 0.00 | 96 | 1015.6 |
| 20260831072653 | 67 | 144 | 0.0 | 0.0 | 0.00 | 0.80 | 0.00 | 96 | 1015.9 |
| 20260831072548 | 67 | 144 | 0.0 | 0.0 | 0.00 | 0.80 | 0.00 | 96 | 1016.3 |
| 20260831072442 | 67 | 144 | 0.0 | 0.0 | 0.00 | 0.80 | 0.00 | 96 | 1015.9 |
| 20260831072336 | 67 | 102 | 0.0 | 0.0 | 0.00 | 0.80 | 0.00 | 96 | 1015.9 |
| 20260831072258 | 67 | 102 | 0.0 | 0.0 | 0.00 | 0.80 | 0.00 | 96 | 1015.9 |
| 20260831072231 | 67 | 102 | 0.0 | 0.0 | 0.00 | 0.80 | 0.00 | 96 | 1016.3 |
| 20260831072125 | 67 | 102 | 0.0 | 0.0 | 0.00 | 0.80 | 0.00 | 96 | 1016.3 |
| 20260831072019 | 67 | 102 | 0.0 | 0.0 | 0.00 | 0.80 | 0.00 | 96 | 1016.3 |
| 20260831071914 | 67 | 102 | 0.0 | 0.0 | 0.00 | 0.80 | 0.00 | 96 | 1016.3 |
| 20260831071807 | 67 | 102 | 0.0 | 0.0 | 0.00 | 0.80 | 0.00 | 96 | 1016.3 |
| 20260831071752 | 67 | 102 | 0.0 | 0.0 | 0.00 | 0.80 | 0.00 | 96 | 1016.3 |
| 20260831071702 | 67 | 102 | 0.0 | 0.0 | 0.00 | 0.80 | 0.00 | 96 | 1015.9 |
| 20260831071556 | 67 | 102 | 0.0 | 0.0 | 0.00 | 0.80 | 0.00 | 96 | 1015.9 |
| 20260831071450 | 67 | 102 | 0.0 | 0.0 | 0.00 | 0.80 | 0.00 | 96 | 1015.9 |
| 20260831071345 | 67 | 102 | 0.0 | 0.0 | 0.00 | 0.80 | 0.00 | 96 | 1016.3 |
| 20260831071239 | 67 | 102 | 0.0 | 0.0 | 0.00 | 0.80 | 0.00 | 96 | 1016.3 |
| 20260831071135 | 67 | 102 | 0.0 | 0.0 | 0.00 | 0.80 | 0.00 | 96 | 1016.3 |
| 20260831071028 | 67 | 102 | 0.0 | 0.0 | 0.00 | 0.80 | 0.00 | 96 | 1016.3 |
| 20260831070922 | 67 | 102 | 0.0 | 0.0 | 0.00 | 0.80 | 0.00 | 96 | 1016.3 |
| 20260831070816 | 67 | 102 | 0.0 | 0.0 | 0.00 | 0.80 | 0.00 | 96 | 1016.3 |
| 20260831070711 | 67 | 102 | 0.0 | 0.0 | 0.00 | 0.80 | 0.00 | 96 | 1016.3 |
| 20260831070605 | 67 | 102 | 0.0 | 0.0 | 0.00 | 0.80 | 0.00 | 96 | 1016.3 |
| 20260831070459 | 67 | 102 | 0.0 | 0.0 | 0.00 | 0.80 | 0.00 | 96 | 1016.6 |
| 20260831070354 | 67 | 102 | 0.0 | 0.0 | 0.00 | 0.80 | 0.00 | 96 | 1016.3 |
| 20260831070232 | 67 | 102 | 0.0 | 0.0 | 0.00 | 0.80 | 0.00 | 96 | 1016.3 |
| 20260831070142 | 67 | 102 | 0.0 | 0.0 | 0.00 | 0.80 | 0.00 | 96 | 1016.3 |
| 20260831070037 | 67 | 102 | 0.0 | 0.0 | 0.00 | 0.80 | 0.00 | 96 | 1016.3 |
| 20260831065931 | 67 | 102 | 0.0 | 0.0 | 0.00 | 0.80 | 0.00 | 96 | 1016.3 |
| 20260831065825 | 67 | 102 | 0.0 | 0.0 | 0.00 | 0.80 | 0.00 | 96 | 1016.3 |
| 20260831065720 | 67 | 102 | 0.0 | 0.0 | 0.00 | 0.80 | 0.00 | 96 | 1016.3 |
| 20260831065613 | 67 | 102 | 0.0 | 0.0 | 0.00 | 0.80 | 0.00 | 96 | 1016.3 |
| 20260831065508 | 67 | 102 | 0.0 | 0.0 | 0.00 | 0.80 | 0.00 | 96 | 1015.9 |
| 20260831065405 | 67 | 102 | 0.0 | 0.0 | 0.00 | 0.80 | 0.00 | 96 | 1016.3 |
| 20260831065259 | 67 | 102 | 0.0 | 0.0 | 0.00 | 0.80 | 0.00 | 96 | 1016.6 |
| 20260831065221 | 67 | 102 | 0.0 | 0.0 | 0.00 | 0.80 | 0.00 | 96 | 1016.3 |
| 20260831065153 | 67 | 102 | 0.0 | 0.0 | 0.00 | 0.80 | 0.00 | 95 | 1016.3 |
| 20260831065047 | 67 | 102 | 0.0 | 0.0 | 0.00 | 0.80 | 0.00 | 96 | 1016.3 |
| 20260831064942 | 67 | 102 | 0.0 | 0.0 | 0.00 | 0.80 | 0.00 | 96 | 1016.6 |
| 20260831064837 | 67 | 102 | 0.0 | 0.0 | 0.00 | 0.80 | 0.00 | 95 | 1016.6 |
| 20260831064714 | 67 | 102 | 0.0 | 0.0 | 0.00 | 0.80 | 0.00 | 95 | 1016.3 |
| 20260831064625 | 67 | 102 | 0.0 | 0.0 | 0.00 | 0.80 | 0.00 | 95 | 1016.3 |
| 20260831064519 | 67 | 102 | 0.0 | 0.0 | 0.00 | 0.80 | 0.00 | 95 | 1016.6 |
| 20260831064414 | 67 | 102 | 0.0 | 0.0 | 0.00 | 0.80 | 0.00 | 95 | 1016.6 |
| 20260831064307 | 67 | 102 | 0.0 | 0.0 | 0.00 | 0.80 | 0.00 | 95 | 1016.6 |
| 20260831064208 | 67 | 102 | 0.0 | 0.0 | 0.00 | 0.80 | 0.00 | 95 | 1016.6 |
| 20260831064203 | 67 | 102 | 0.0 | 0.0 | 0.00 | 0.80 | 0.00 | 95 | 1016.6 |
| 20260831064056 | 67 | 102 | 0.0 | 0.0 | 0.00 | 0.80 | 0.00 | 95 | 1016.3 |
| 20260831063950 | 67 | 102 | 0.0 | 0.0 | 0.00 | 0.80 | 0.00 | 95 | 1016.6 |
| 20260831063845 | 67 | 102 | 0.0 | 0.0 | 0.00 | 0.80 | 0.00 | 95 | 1016.3 |
| 20260831063739 | 67 | 102 | 0.0 | 0.0 | 0.00 | 0.80 | 0.00 | 95 | 1016.3 |
| 20260831063701 | 67 | 102 | 0.0 | 0.0 | 0.00 | 0.80 | 0.00 | 95 | 1016.6 |
| 20260831063633 | 67 | 102 | 0.0 | 0.0 | 0.00 | 0.80 | 0.00 | 95 | 1016.3 |
| 20260831063529 | 67 | 102 | 0.0 | 0.0 | 0.00 | 0.80 | 0.00 | 95 | 1016.6 |
| 20260831063422 | 67 | 102 | 0.0 | 0.0 | 0.00 | 0.80 | 0.00 | 95 | 1016.6 |
| 20260831063316 | 67 | 102 | 0.0 | 0.0 | 0.00 | 0.80 | 0.00 | 95 | 1016.6 |
| 20260831063210 | 67 | 102 | 0.0 | 0.0 | 0.00 | 0.80 | 0.00 | 95 | 1016.6 |
| 20260831063154 | 67 | 102 | 0.0 | 0.0 | 0.00 | 0.80 | 0.00 | 95 | 1016.6 |
| 20260831063104 | 67 | 102 | 0.0 | 0.0 | 0.00 | 0.80 | 0.00 | 95 | 1016.3 |
| 20260831062958 | 67 | 102 | 0.0 | 0.0 | 0.00 | 0.80 | 0.00 | 95 | 1016.3 |
| 20260831062853 | 67 | 102 | 0.0 | 0.0 | 0.00 | 0.80 | 0.00 | 95 | 1016.6 |
| 20260831062748 | 67 | 102 | 0.0 | 0.0 | 0.00 | 0.80 | 0.00 | 95 | 1016.3 |
| 20260831062641 | 67 | 102 | 0.0 | 0.0 | 0.00 | 0.80 | 0.00 | 95 | 1016.3 |
| 20260831062536 | 67 | 102 | 0.0 | 0.0 | 0.00 | 0.80 | 0.00 | 95 | 1016.6 |
| 20260831062431 | 67 | 102 | 0.0 | 0.0 | 0.00 | 0.80 | 0.00 | 95 | 1016.6 |
| 20260831062324 | 67 | 102 | 0.0 | 0.0 | 0.00 | 0.80 | 0.00 | 95 | 1016.6 |
| 20260831062218 | 67 | 102 | 0.0 | 0.0 | 0.00 | 0.80 | 0.00 | 95 | 1016.6 |
| 20260831062114 | 67 | 102 | 0.0 | 0.0 | 0.00 | 0.80 | 0.00 | 95 | 1016.6 |
| 20260831062007 | 67 | 105 | 0.0 | 0.0 | 0.00 | 0.80 | 0.00 | 95 | 1016.6 |
| 20260831061901 | 67 | 109 | 0.0 | 0.0 | 0.00 | 0.80 | 0.00 | 95 | 1016.6 |
| 20260831061756 | 67 | 128 | 0.0 | 0.0 | 0.00 | 0.80 | 0.00 | 95 | 1016.6 |
| 20260831061650 | 67 | 142 | 0.0 | 0.0 | 0.00 | 0.80 | 0.00 | 95 | 1016.3 |
| 20260831061634 | 67 | 162 | 0.0 | 0.0 | 0.00 | 0.80 | 0.00 | 95 | 1016.3 |
| 20260831061544 | 67 | 166 | 0.0 | 0.0 | 0.00 | 0.80 | 0.00 | 95 | 1016.6 |
| 20260831061438 | 67 | 167 | 0.0 | 0.0 | 0.00 | 0.80 | 0.00 | 95 | 1016.6 |
| 20260831061345 | 67 | 168 | 0.0 | 0.0 | 0.00 | 0.80 | 0.00 | 95 | 1016.6 |
| 20260831061227 | 67 | 174 | 0.0 | 0.0 | 0.00 | 0.80 | 0.00 | 95 | 1016.6 |
| 20260831061121 | 67 | 174 | 0.0 | 0.0 | 0.00 | 0.80 | 0.00 | 95 | 1016.6 |
| 20260831061016 | 67 | 174 | 0.0 | 0.0 | 0.00 | 0.80 | 0.00 | 95 | 1016.3 |
| 20260831060911 | 67 | 174 | 0.0 | 0.0 | 0.00 | 0.80 | 0.00 | 95 | 1016.6 |
| 20260831060804 | 67 | 179 | 0.0 | 0.0 | 0.00 | 0.80 | 0.00 | 95 | 1016.6 |
| 20260831060659 | 67 | 189 | 0.0 | 0.0 | 0.00 | 0.80 | 0.00 | 95 | 1016.6 |
| 20260831060620 | 67 | 189 | 0.0 | 0.0 | 0.00 | 0.80 | 0.00 | 95 | 1016.3 |
| 20260831060605 | 67 | 189 | 0.0 | 0.0 | 0.00 | 0.80 | 0.00 | 95 | 1016.3 |
| 20260831060447 | 67 | 189 | 0.0 | 0.0 | 0.00 | 0.80 | 0.00 | 95 | 1016.6 |
| 20260831060341 | 67 | 189 | 0.0 | 0.0 | 0.00 | 0.80 | 0.00 | 95 | 1016.6 |
| 20260831060236 | 67 | 190 | 0.0 | 0.0 | 0.00 | 0.80 | 0.00 | 95 | 1016.6 |
| 20260831060114 | 67 | 189 | 0.0 | 0.0 | 0.00 | 0.80 | 0.00 | 95 | 1016.6 |
| 20260831060023 | 67 | 189 | 0.0 | 0.0 | 0.00 | 0.80 | 0.00 | 95 | 1016.3 |
| 20260831055915 | 67 | 189 | 0.0 | 0.0 | 0.00 | 0.80 | 0.00 | 95 | 1016.6 |
| 20260831055808 | 67 | 189 | 0.0 | 0.0 | 0.00 | 0.80 | 0.00 | 95 | 1016.6 |
| 20260831055703 | 67 | 189 | 0.0 | 0.0 | 0.00 | 0.80 | 0.00 | 95 | 1016.6 |
| 20260831055615 | 67 | 189 | 0.0 | 0.0 | 0.00 | 0.80 | 0.00 | 95 | 1016.3 |
| 20260831055557 | 67 | 189 | 0.0 | 0.0 | 0.00 | 0.80 | 0.00 | 95 | 1016.3 |
| 20260831055452 | 68 | 189 | 0.0 | 0.0 | 0.00 | 0.80 | 0.00 | 95 | 1016.3 |
| 20260831055346 | 68 | 189 | 0.0 | 0.0 | 0.00 | 0.80 | 0.00 | 94 | 1016.6 |
| 20260831055240 | 68 | 184 | 0.0 | 0.0 | 0.00 | 0.80 | 0.00 | 94 | 1016.6 |
| 20260831055108 | 68 | 186 | 0.0 | 0.0 | 0.00 | 0.80 | 0.00 | 94 | 1016.3 |
| 20260831055029 | 68 | 186 | 0.0 | 0.0 | 0.00 | 0.80 | 0.00 | 94 | 1016.6 |
| 20260831054922 | 68 | 186 | 0.0 | 0.0 | 0.00 | 0.80 | 0.00 | 94 | 1016.6 |
| 20260831054817 | 68 | 186 | 0.0 | 0.0 | 0.00 | 0.80 | 0.00 | 94 | 1016.6 |
| 20260831054712 | 68 | 186 | 0.0 | 0.0 | 0.00 | 0.80 | 0.00 | 94 | 1016.6 |
| 20260831054606 | 68 | 186 | 0.0 | 0.0 | 0.00 | 0.80 | 0.00 | 94 | 1016.6 |
| 20260831054500 | 68 | 185 | 0.0 | 0.0 | 0.00 | 0.80 | 0.00 | 94 | 1016.6 |
| 20260831054354 | 68 | 185 | 0.0 | 0.0 | 0.00 | 0.80 | 0.00 | 94 | 1016.6 |
| 20260831054249 | 68 | 185 | 0.0 | 0.0 | 0.00 | 0.80 | 0.00 | 94 | 1016.6 |
| 20260831054143 | 68 | 185 | 0.0 | 0.0 | 0.00 | 0.80 | 0.00 | 94 | 1016.6 |
| 20260831054037 | 68 | 185 | 0.0 | 0.0 | 0.00 | 0.80 | 0.00 | 94 | 1016.6 |
| 20260831053931 | 68 | 185 | 0.0 | 0.0 | 0.00 | 0.80 | 0.00 | 94 | 1016.3 |
| 20260831053826 | 68 | 185 | 0.0 | 0.0 | 0.00 | 0.80 | 0.00 | 94 | 1016.6 |
| 20260831053720 | 68 | 185 | 0.0 | 0.0 | 0.00 | 0.80 | 0.00 | 94 | 1016.6 |
| 20260831053615 | 68 | 185 | 0.0 | 0.0 | 0.00 | 0.80 | 0.00 | 94 | 1016.6 |
| 20260831053548 | 68 | 185 | 0.0 | 0.0 | 0.00 | 0.80 | 0.00 | 94 | 1016.6 |
| 20260831053508 | 68 | 185 | 0.0 | 0.0 | 0.00 | 0.80 | 0.00 | 94 | 1016.6 |
| 20260831053403 | 68 | 185 | 0.0 | 0.0 | 0.00 | 0.80 | 0.00 | 94 | 1016.6 |
| 20260831053257 | 68 | 185 | 0.0 | 0.0 | 0.00 | 0.80 | 0.00 | 94 | 1016.9 |
| 20260831053151 | 68 | 185 | 0.0 | 0.0 | 0.00 | 0.80 | 0.00 | 94 | 1016.9 |
| 20260831053046 | 68 | 185 | 0.0 | 0.0 | 0.00 | 0.80 | 0.00 | 93 | 1016.6 |
| 20260831052939 | 68 | 185 | 0.0 | 0.0 | 0.00 | 0.80 | 0.00 | 93 | 1016.9 |
| 20260831052834 | 68 | 185 | 0.0 | 0.0 | 0.00 | 0.80 | 0.00 | 93 | 1016.9 |
| 20260831052729 | 68 | 185 | 0.0 | 0.0 | 0.00 | 0.80 | 0.00 | 93 | 1016.6 |
| 20260831052623 | 68 | 185 | 0.0 | 0.0 | 0.00 | 0.80 | 0.00 | 93 | 1016.6 |
| 20260831052530 | 68 | 185 | 0.0 | 0.0 | 0.00 | 0.80 | 0.00 | 93 | 1016.6 |
| 20260831052412 | 68 | 184 | 0.0 | 0.0 | 0.00 | 0.80 | 0.00 | 93 | 1016.6 |
| 20260831052307 | 68 | 184 | 0.0 | 0.0 | 0.00 | 0.80 | 0.00 | 93 | 1016.6 |
| 20260831052200 | 68 | 182 | 0.0 | 0.0 | 0.00 | 0.80 | 0.00 | 93 | 1016.9 |
| 20260831052028 | 68 | 182 | 0.0 | 0.0 | 0.00 | 0.80 | 0.00 | 93 | 1016.6 |
| 20260831051950 | 68 | 182 | 0.0 | 0.0 | 0.00 | 0.80 | 0.00 | 93 | 1016.6 |
| 20260831051856 | 68 | 182 | 0.0 | 0.0 | 0.00 | 0.80 | 0.00 | 93 | 1016.6 |
| 20260831051737 | 68 | 182 | 0.0 | 0.0 | 0.00 | 0.80 | 0.00 | 93 | 1016.6 |
| 20260831051630 | 68 | 180 | 0.0 | 0.0 | 0.00 | 0.80 | 0.00 | 93 | 1016.6 |
| 20260831051525 | 68 | 180 | 0.0 | 0.0 | 0.00 | 0.80 | 0.00 | 93 | 1016.6 |
| 20260831051419 | 68 | 180 | 0.0 | 0.0 | 0.00 | 0.80 | 0.00 | 93 | 1016.9 |
| 20260831051313 | 68 | 180 | 0.0 | 0.0 | 0.00 | 0.80 | 0.00 | 92 | 1016.9 |
| 20260831051221 | 68 | 180 | 0.0 | 0.0 | 0.00 | 0.80 | 0.00 | 92 | 1016.6 |
| 20260831051102 | 69 | 178 | 0.0 | 0.0 | 0.00 | 0.80 | 0.00 | 92 | 1016.6 |
| 20260831051014 | 69 | 168 | 0.0 | 0.0 | 0.00 | 0.80 | 0.00 | 92 | 1016.6 |
| 20260831050957 | 69 | 168 | 0.0 | 0.0 | 0.00 | 0.80 | 0.00 | 92 | 1016.6 |
| 20260831050850 | 69 | 168 | 0.0 | 0.0 | 0.00 | 0.80 | 0.00 | 92 | 1016.9 |
| 20260831050745 | 69 | 168 | 0.0 | 0.0 | 0.00 | 0.80 | 0.00 | 92 | 1016.6 |
| 20260831050640 | 69 | 168 | 0.0 | 0.0 | 0.00 | 0.80 | 0.00 | 92 | 1016.9 |
| 20260831050507 | 69 | 168 | 0.0 | 0.0 | 0.00 | 0.80 | 0.00 | 92 | 1016.6 |
| 20260831050441 | 69 | 168 | 0.0 | 0.0 | 0.00 | 0.80 | 0.00 | 92 | 1016.9 |
| 20260831050322 | 69 | 168 | 0.0 | 0.0 | 0.00 | 0.80 | 0.00 | 92 | 1016.9 |
| 20260831050216 | 69 | 179 | 0.0 | 0.0 | 0.00 | 0.80 | 0.00 | 92 | 1016.9 |
| 20260831050123 | 69 | 185 | 0.0 | 0.0 | 0.00 | 0.80 | 0.00 | 92 | 1016.6 |
| 20260831050005 | 69 | 185 | 0.0 | 0.0 | 0.00 | 0.80 | 0.00 | 92 | 1016.6 |
| 20260831045859 | 69 | 185 | 0.0 | 0.0 | 0.00 | 0.80 | 0.00 | 92 | 1016.6 |
| 20260831045754 | 69 | 185 | 0.0 | 0.0 | 0.00 | 0.80 | 0.00 | 92 | 1016.6 |
| 20260831045648 | 69 | 185 | 0.0 | 1.0 | 0.00 | 0.80 | 0.00 | 92 | 1016.9 |
| 20260831045542 | 69 | 185 | 0.0 | 2.0 | 0.00 | 0.80 | 0.00 | 92 | 1016.9 |
| 20260831045454 | 69 | 188 | 0.0 | 3.0 | 0.00 | 0.80 | 0.00 | 92 | 1016.9 |
| 20260831045436 | 69 | 189 | 0.0 | 3.0 | 0.00 | 0.80 | 0.00 | 92 | 1016.9 |
| 20260831045331 | 69 | 191 | 0.0 | 3.0 | 0.00 | 0.80 | 0.00 | 92 | 1016.9 |
| 20260831045229 | 69 | 188 | 0.0 | 3.0 | 0.00 | 0.80 | 0.00 | 92 | 1016.9 |
| 20260831045225 | 69 | 190 | 0.0 | 3.0 | 0.00 | 0.80 | 0.00 | 92 | 1016.6 |
| 20260831045217 | 69 | 188 | 0.0 | 3.0 | 0.00 | 0.80 | 0.00 | 92 | 1016.9 |
| 20260831045208 | 69 | 181 | 0.0 | 3.0 | 0.00 | 0.80 | 0.00 | 92 | 1016.9 |
| 20260831044907 | 69 | 188 | 0.0 | 3.0 | 0.00 | 0.80 | 0.00 | 92 | 1016.9 |
| 20260831044802 | 69 | 190 | 0.0 | 3.0 | 0.00 | 0.80 | 0.00 | 92 | 1016.9 |
| 20260831044656 | 69 | 187 | 1.0 | 3.0 | 0.00 | 0.80 | 0.00 | 92 | 1016.6 |
| 20260831044551 | 69 | 184 | 1.0 | 3.0 | 0.00 | 0.80 | 0.00 | 92 | 1016.6 |
| 20260831044445 | 69 | 180 | 2.0 | 3.0 | 0.00 | 0.80 | 0.00 | 92 | 1016.6 |
| 20260831044339 | 69 | 182 | 1.0 | 3.0 | 0.00 | 0.80 | 0.00 | 92 | 1016.9 |
| 20260831044234 | 69 | 207 | 1.0 | 3.0 | 0.00 | 0.80 | 0.00 | 92 | 1016.9 |
| 20260831044128 | 69 | 204 | 2.0 | 3.0 | 0.00 | 0.80 | 0.00 | 92 | 1016.6 |
| 20260831044022 | 69 | 164 | 2.0 | 3.0 | 0.00 | 0.80 | 0.00 | 92 | 1016.9 |
| 20260831043933 | 69 | 202 | 2.0 | 3.0 | 0.00 | 0.80 | 0.00 | 92 | 1016.9 |
| 20260831043917 | 69 | 180 | 3.0 | 3.0 | 0.00 | 0.80 | 0.00 | 92 | 1016.9 |
| 20260831043811 | 69 | 196 | 2.0 | 3.0 | 0.00 | 0.80 | 0.00 | 92 | 1016.9 |
| 20260831043705 | 69 | 182 | 3.0 | 3.0 | 0.00 | 0.80 | 0.00 | 92 | 1016.6 |
| 20260831043559 | 69 | 193 | 1.0 | 3.0 | 0.00 | 0.80 | 0.00 | 92 | 1016.9 |
| 20260831043454 | 69 | 200 | 2.0 | 3.0 | 0.00 | 0.80 | 0.00 | 92 | 1016.6 |
| 20260831043427 | 69 | 185 | 2.0 | 3.0 | 0.00 | 0.80 | 0.00 | 92 | 1016.9 |
| 20260831043348 | 69 | 204 | 1.0 | 4.0 | 0.00 | 0.80 | 0.00 | 92 | 1016.9 |
| 20260831043242 | 69 | 197 | 1.0 | 4.0 | 0.00 | 0.80 | 0.00 | 92 | 1016.6 |
| 20260831043136 | 69 | 187 | 2.0 | 4.0 | 0.00 | 0.80 | 0.00 | 92 | 1016.9 |
| 20260831043031 | 69 | 196 | 2.0 | 4.0 | 0.00 | 0.80 | 0.00 | 92 | 1016.9 |
| 20260831042925 | 69 | 206 | 2.0 | 4.0 | 0.00 | 0.80 | 0.00 | 91 | 1016.9 |
| 20260831042819 | 69 | 200 | 1.0 | 4.0 | 0.00 | 0.80 | 0.00 | 91 | 1016.6 |
| 20260831042714 | 69 | 213 | 2.0 | 4.0 | 0.00 | 0.80 | 0.00 | 91 | 1016.6 |
| 20260831042607 | 69 | 194 | 2.0 | 4.0 | 0.00 | 0.80 | 0.00 | 91 | 1016.9 |
| 20260831042502 | 69 | 189 | 2.0 | 4.0 | 0.00 | 0.80 | 0.00 | 92 | 1016.9 |
| 20260831042414 | 69 | 193 | 3.0 | 4.0 | 0.00 | 0.80 | 0.00 | 92 | 1016.6 |
| 20260831042356 | 69 | 206 | 2.0 | 4.0 | 0.00 | 0.80 | 0.00 | 92 | 1016.6 |
| 20260831042251 | 69 | 198 | 2.0 | 3.0 | 0.00 | 0.80 | 0.00 | 92 | 1016.9 |
| 20260831042145 | 69 | 198 | 2.0 | 3.0 | 0.00 | 0.80 | 0.00 | 92 | 1016.9 |
| 20260831042040 | 69 | 161 | 3.0 | 3.0 | 0.00 | 0.80 | 0.00 | 92 | 1016.9 |
| 20260831041933 | 69 | 211 | 2.0 | 3.0 | 0.00 | 0.80 | 0.00 | 92 | 1016.9 |
| 20260831041907 | 69 | 204 | 2.0 | 3.0 | 0.00 | 0.80 | 0.00 | 92 | 1016.9 |
| 20260831041827 | 69 | 187 | 3.0 | 3.0 | 0.00 | 0.80 | 0.00 | 92 | 1016.9 |
| 20260831041722 | 69 | 206 | 2.0 | 3.0 | 0.00 | 0.80 | 0.00 | 92 | 1016.6 |
| 20260831041616 | 69 | 200 | 2.0 | 3.0 | 0.00 | 0.80 | 0.00 | 92 | 1016.9 |
| 20260831041523 | 69 | 199 | 3.0 | 3.0 | 0.00 | 0.80 | 0.00 | 92 | 1016.9 |
| 20260831041404 | 69 | 203 | 1.0 | 2.0 | 0.00 | 0.80 | 0.00 | 91 | 1016.9 |
| 20260831041258 | 69 | 199 | 0.0 | 0.0 | 0.00 | 0.80 | 0.00 | 91 | 1016.9 |
| 20260831041153 | 69 | 204 | 0.0 | 0.0 | 0.00 | 0.80 | 0.00 | 91 | 1016.9 |
| 20260831041125 | 69 | 183 | 0.0 | 0.0 | 0.00 | 0.80 | 0.00 | 91 | 1016.6 |
| 20260831041120 | 69 | 199 | 0.0 | 0.0 | 0.00 | 0.80 | 0.00 | 91 | 1016.9 |
| 20260831041111 | 69 | 193 | 0.0 | 0.0 | 0.00 | 0.80 | 0.00 | 91 | 1016.6 |
| 20260831040835 | 69 | 183 | 0.0 | 0.0 | 0.00 | 0.80 | 0.00 | 91 | 1016.6 |
| 20260831040730 | 69 | 197 | 0.0 | 0.0 | 0.00 | 0.80 | 0.00 | 91 | 1016.9 |
| 20260831040625 | 69 | 190 | 0.0 | 0.0 | 0.00 | 0.80 | 0.00 | 91 | 1016.9 |
| 20260831040518 | 69 | 198 | 0.0 | 0.0 | 0.00 | 0.80 | 0.00 | 91 | 1016.6 |
| 20260831040413 | 68 | 184 | 0.0 | 0.0 | 0.00 | 0.80 | 0.00 | 92 | 1016.6 |
| 20260831040346 | 68 | 185 | 0.0 | 0.0 | 0.00 | 0.80 | 0.00 | 92 | 1016.6 |
| 20260831040307 | 68 | 188 | 0.0 | 0.0 | 0.00 | 0.80 | 0.00 | 92 | 1016.9 |
| 20260831040202 | 68 | 191 | 0.0 | 0.0 | 0.00 | 0.80 | 0.00 | 92 | 1016.9 |
| 20260831040108 | 68 | 191 | 0.0 | 0.0 | 0.00 | 0.80 | 0.00 | 92 | 1016.9 |
| 20260831035950 | 68 | 191 | 0.0 | 0.0 | 0.00 | 0.80 | 0.80 | 92 | 1016.9 |
| 20260831035844 | 68 | 190 | 0.0 | 0.0 | 0.00 | 0.80 | 0.80 | 92 | 1016.9 |
| 20260831035739 | 68 | 161 | 0.0 | 0.0 | 0.00 | 0.80 | 0.80 | 92 | 1016.9 |
| 20260831035633 | 68 | 210 | 0.0 | 0.0 | 0.00 | 0.80 | 0.80 | 92 | 1016.9 |
| 20260831035527 | 68 | 210 | 0.0 | 0.0 | 0.00 | 0.80 | 0.80 | 92 | 1016.9 |
| 20260831035422 | 68 | 210 | 0.0 | 0.0 | 0.00 | 0.80 | 0.80 | 92 | 1016.9 |
| 20260831035316 | 68 | 210 | 0.0 | 0.0 | 0.00 | 0.80 | 0.80 | 92 | 1016.9 |
| 20260831035210 | 68 | 210 | 0.0 | 0.0 | 0.00 | 0.80 | 0.80 | 92 | 1016.6 |
| 20260831035104 | 68 | 210 | 0.0 | 0.0 | 0.00 | 0.80 | 0.80 | 92 | 1016.9 |
| 20260831034959 | 68 | 210 | 0.0 | 0.0 | 0.00 | 0.80 | 0.80 | 92 | 1016.6 |
| 20260831034853 | 68 | 195 | 0.0 | 0.0 | 0.00 | 0.80 | 0.80 | 92 | 1016.6 |
| 20260831034826 | 68 | 185 | 0.0 | 0.0 | 0.00 | 0.80 | 0.80 | 92 | 1016.9 |
| 20260831034747 | 68 | 191 | 0.0 | 0.0 | 0.00 | 0.80 | 0.80 | 92 | 1016.9 |
| 20260831034642 | 68 | 208 | 0.0 | 0.0 | 0.00 | 0.80 | 0.80 | 92 | 1016.9 |
| 20260831034557 | 68 | 208 | 0.0 | 0.0 | 0.00 | 0.80 | 0.80 | 92 | 1016.9 |
| 20260831034549 | 68 | 184 | 0.0 | 0.0 | 0.00 | 0.80 | 0.80 | 92 | 1016.9 |
| 20260831034539 | 68 | 200 | 0.0 | 0.0 | 0.00 | 0.80 | 0.80 | 93 | 1016.9 |
| 20260831034218 | 68 | 205 | 0.0 | 0.0 | 0.00 | 0.80 | 0.80 | 93 | 1016.6 |
| 20260831034113 | 68 | 177 | 0.0 | 2.0 | 0.00 | 0.80 | 0.80 | 93 | 1016.6 |
| 20260831034045 | 67 | 204 | 0.0 | 4.0 | 0.00 | 0.80 | 0.80 | 93 | 1016.9 |
| 20260831034041 | 67 | 229 | 0.0 | 4.0 | 0.00 | 0.80 | 0.80 | 93 | 1016.9 |
| 20260831034033 | 67 | 206 | 0.0 | 4.0 | 0.00 | 0.80 | 0.80 | 93 | 1016.9 |
| 20260831033756 | 67 | 204 | 0.0 | 4.0 | 0.00 | 0.80 | 0.80 | 93 | 1016.9 |
| 20260831033651 | 67 | 199 | 0.0 | 4.0 | 0.00 | 0.80 | 0.80 | 93 | 1016.9 |
| 20260831033544 | 67 | 169 | 0.0 | 4.0 | 0.00 | 0.80 | 0.80 | 94 | 1016.9 |
| 20260831033438 | 67 | 175 | 0.0 | 4.0 | 0.00 | 0.80 | 0.80 | 94 | 1016.9 |
| 20260831033333 | 67 | 184 | 0.0 | 4.0 | 0.00 | 0.80 | 0.80 | 94 | 1016.9 |
| 20260831033307 | 67 | 210 | 0.0 | 4.0 | 0.00 | 0.80 | 0.80 | 94 | 1016.9 |
| 20260831033228 | 67 | 189 | 0.0 | 4.0 | 0.00 | 0.80 | 0.80 | 94 | 1016.9 |
| 20260831033122 | 67 | 202 | 2.0 | 4.0 | 0.00 | 0.80 | 0.80 | 94 | 1016.9 |
| 20260831033016 | 67 | 196 | 0.0 | 0.0 | 0.00 | 0.80 | 0.80 | 94 | 1016.9 |
| 20260831032910 | 67 | 203 | 0.0 | 0.0 | 0.00 | 0.80 | 0.80 | 95 | 1016.9 |
| 20260831032805 | 67 | 195 | 0.0 | 0.0 | 0.00 | 0.80 | 0.80 | 95 | 1016.9 |
| 20260831032658 | 67 | 195 | 0.0 | 0.0 | 0.00 | 0.80 | 0.80 | 95 | 1016.9 |
| 20260831032606 | 67 | 199 | 0.0 | 0.0 | 0.00 | 0.80 | 0.80 | 95 | 1016.9 |
| 20260831032526 | 67 | 183 | 0.0 | 0.0 | 0.00 | 0.80 | 0.80 | 95 | 1016.9 |
| 20260831032519 | 67 | 193 | 0.0 | 0.0 | 0.00 | 0.80 | 0.80 | 95 | 1016.6 |
| 20260831032511 | 67 | 183 | 0.0 | 0.0 | 0.00 | 0.80 | 0.80 | 95 | 1016.9 |
| 20260831032235 | 67 | 181 | 0.0 | 0.0 | 0.00 | 0.80 | 0.80 | 95 | 1016.9 |
| 20260831032130 | 67 | 181 | 0.0 | 0.0 | 0.00 | 0.80 | 0.80 | 95 | 1016.9 |
| 20260831032025 | 67 | 172 | 0.0 | 0.0 | 0.00 | 0.80 | 0.80 | 95 | 1016.9 |
| 20260831031919 | 67 | 172 | 0.0 | 0.0 | 0.00 | 0.80 | 0.80 | 95 | 1016.9 |
| 20260831031813 | 67 | 166 | 0.0 | 0.0 | 0.00 | 0.80 | 0.80 | 95 | 1016.9 |
| 20260831031747 | 67 | 166 | 0.0 | 0.0 | 0.00 | 0.80 | 0.80 | 95 | 1016.9 |
| 20260831031708 | 67 | 166 | 0.0 | 0.0 | 0.00 | 0.80 | 0.80 | 95 | 1017.3 |
| 20260831031601 | 67 | 166 | 0.0 | 0.0 | 0.00 | 0.80 | 0.80 | 95 | 1016.9 |
| 20260831031456 | 67 | 166 | 0.0 | 0.0 | 0.00 | 0.80 | 0.80 | 95 | 1016.9 |
| 20260831031351 | 67 | 166 | 0.0 | 0.0 | 0.00 | 0.80 | 0.80 | 95 | 1016.6 |
| 20260831031257 | 67 | 166 | 0.0 | 0.0 | 0.00 | 0.80 | 0.80 | 95 | 1016.6 |
| 20260831031138 | 67 | 166 | 0.0 | 0.0 | 0.00 | 0.80 | 0.80 | 95 | 1016.9 |
| 20260831031033 | 67 | 164 | 0.0 | 0.0 | 0.00 | 0.80 | 0.80 | 95 | 1016.9 |
| 20260831030928 | 67 | 161 | 0.0 | 0.0 | 0.00 | 0.80 | 0.80 | 95 | 1016.9 |
| 20260831030821 | 67 | 161 | 0.0 | 0.0 | 0.00 | 0.80 | 0.80 | 95 | 1016.9 |
| 20260831030715 | 67 | 161 | 0.0 | 0.0 | 0.00 | 0.80 | 0.80 | 95 | 1016.9 |
| 20260831030610 | 67 | 161 | 0.0 | 0.0 | 0.00 | 0.80 | 0.80 | 95 | 1016.6 |
| 20260831030517 | 67 | 161 | 0.0 | 0.0 | 0.00 | 0.80 | 0.80 | 95 | 1016.9 |
| 20260831030359 | 67 | 161 | 0.0 | 0.0 | 0.00 | 0.80 | 0.80 | 95 | 1016.9 |
| 20260831030226 | 67 | 161 | 0.0 | 0.0 | 0.00 | 0.80 | 0.80 | 95 | 1016.9 |
| 20260831030147 | 67 | 161 | 0.0 | 0.0 | 0.00 | 0.80 | 0.80 | 95 | 1016.9 |
| 20260831030042 | 67 | 160 | 0.0 | 0.0 | 0.00 | 0.80 | 0.80 | 95 | 1016.6 |
| 20260831025937 | 67 | 160 | 0.0 | 0.0 | 0.00 | 0.80 | 0.80 | 95 | 1016.6 |
| 20260831025827 | 67 | 160 | 0.0 | 0.0 | 0.00 | 0.80 | 0.80 | 95 | 1016.9 |
| 20260831025721 | 67 | 160 | 0.0 | 0.0 | 0.00 | 0.80 | 0.80 | 95 | 1016.9 |
| 20260831025615 | 67 | 160 | 0.0 | 0.0 | 0.00 | 0.80 | 0.80 | 95 | 1016.9 |
| 20260831025509 | 67 | 160 | 0.0 | 0.0 | 0.00 | 0.80 | 0.80 | 95 | 1016.9 |
| 20260831025404 | 67 | 160 | 0.0 | 0.0 | 0.00 | 0.80 | 0.80 | 95 | 1016.6 |
| 20260831025258 | 67 | 160 | 0.0 | 0.0 | 0.00 | 0.80 | 0.80 | 95 | 1016.9 |
| 20260831025221 | 67 | 160 | 0.0 | 0.0 | 0.00 | 0.80 | 0.80 | 95 | 1016.9 |
| 20260831025152 | 67 | 160 | 0.0 | 0.0 | 0.00 | 0.80 | 0.80 | 95 | 1016.9 |
| 20260831025047 | 67 | 160 | 0.0 | 0.0 | 0.00 | 0.80 | 0.80 | 95 | 1016.6 |
| 20260831024941 | 67 | 159 | 0.0 | 0.0 | 0.00 | 0.80 | 0.80 | 95 | 1016.6 |
| 20260831024835 | 67 | 159 | 0.0 | 0.0 | 0.00 | 0.80 | 0.80 | 95 | 1016.6 |
| 20260831024714 | 67 | 159 | 0.0 | 0.0 | 0.00 | 0.80 | 0.80 | 95 | 1016.9 |
| 20260831024624 | 67 | 159 | 0.0 | 0.0 | 0.00 | 0.80 | 0.80 | 95 | 1016.6 |
| 20260831024517 | 67 | 161 | 0.0 | 0.0 | 0.00 | 0.80 | 0.80 | 95 | 1016.9 |
| 20260831024441 | 67 | 161 | 0.0 | 0.0 | 0.00 | 0.80 | 0.80 | 95 | 1016.9 |
| 20260831024437 | 67 | 161 | 0.0 | 0.0 | 0.00 | 0.80 | 0.80 | 95 | 1016.9 |
| 20260831024429 | 67 | 161 | 0.0 | 0.0 | 0.00 | 0.80 | 0.80 | 95 | 1016.6 |
| 20260831024201 | 67 | 161 | 0.0 | 0.0 | 0.00 | 0.80 | 0.80 | 95 | 1016.9 |
| 20260831024055 | 67 | 161 | 0.0 | 0.0 | 0.00 | 0.80 | 0.80 | 95 | 1016.9 |
| 20260831023950 | 67 | 161 | 0.0 | 0.0 | 0.00 | 0.80 | 0.80 | 95 | 1016.6 |
| 20260831023844 | 67 | 161 | 0.0 | 0.0 | 0.00 | 0.80 | 0.80 | 95 | 1016.9 |
| 20260831023738 | 67 | 161 | 0.0 | 0.0 | 0.00 | 0.80 | 0.80 | 95 | 1016.9 |
| 20260831023701 | 67 | 161 | 0.0 | 0.0 | 0.00 | 0.80 | 0.80 | 95 | 1016.9 |
| 20260831023632 | 67 | 161 | 0.0 | 0.0 | 0.00 | 0.80 | 0.80 | 95 | 1016.6 |
| 20260831023527 | 67 | 161 | 0.0 | 0.0 | 0.00 | 0.80 | 0.80 | 95 | 1016.6 |
| 20260831023421 | 67 | 161 | 0.0 | 0.0 | 0.00 | 0.80 | 0.80 | 95 | 1016.6 |
| 20260831023315 | 67 | 161 | 0.0 | 0.0 | 0.00 | 0.80 | 0.80 | 95 | 1016.9 |
| 20260831023209 | 67 | 161 | 0.0 | 0.0 | 0.00 | 0.80 | 0.80 | 95 | 1016.6 |
| 20260831023154 | 67 | 161 | 0.0 | 0.0 | 0.00 | 0.80 | 0.80 | 95 | 1016.6 |
| 20260831023103 | 67 | 161 | 0.0 | 0.0 | 0.00 | 0.80 | 0.80 | 94 | 1016.6 |
| 20260831022958 | 67 | 161 | 0.0 | 0.0 | 0.00 | 0.80 | 0.80 | 94 | 1016.6 |
| 20260831022853 | 67 | 161 | 0.0 | 0.0 | 0.00 | 0.80 | 0.80 | 94 | 1016.9 |
| 20260831022746 | 67 | 161 | 0.0 | 0.0 | 0.00 | 0.80 | 0.80 | 94 | 1016.6 |
| 20260831022641 | 67 | 161 | 0.0 | 0.0 | 0.00 | 0.80 | 0.80 | 94 | 1016.6 |
| 20260831022535 | 67 | 161 | 0.0 | 0.0 | 0.00 | 0.80 | 0.80 | 94 | 1016.9 |
| 20260831022429 | 67 | 161 | 0.0 | 0.0 | 0.00 | 0.80 | 0.80 | 94 | 1016.6 |
| 20260831022324 | 67 | 161 | 0.0 | 0.0 | 0.00 | 0.80 | 0.80 | 94 | 1016.9 |
| 20260831022219 | 67 | 161 | 0.0 | 0.0 | 0.00 | 0.80 | 0.80 | 94 | 1016.6 |
| 20260831022113 | 67 | 161 | 0.0 | 0.0 | 0.00 | 0.80 | 0.80 | 94 | 1016.6 |
| 20260831022007 | 67 | 161 | 0.0 | 0.0 | 0.00 | 0.80 | 0.80 | 94 | 1016.9 |
| 20260831021901 | 67 | 161 | 0.0 | 0.0 | 0.00 | 0.80 | 0.80 | 94 | 1016.6 |
| 20260831021755 | 67 | 161 | 0.0 | 0.0 | 0.00 | 0.80 | 0.80 | 94 | 1016.9 |
| 20260831021635 | 67 | 160 | 0.0 | 0.0 | 0.00 | 0.80 | 0.80 | 94 | 1016.6 |
| 20260831021544 | 67 | 160 | 0.0 | 0.0 | 0.00 | 0.80 | 0.80 | 94 | 1016.6 |
| 20260831021439 | 67 | 161 | 0.0 | 0.0 | 0.00 | 0.80 | 0.80 | 94 | 1016.6 |
| 20260831021333 | 67 | 159 | 0.0 | 0.0 | 0.00 | 0.80 | 0.80 | 94 | 1016.9 |
| 20260831021226 | 68 | 159 | 0.0 | 0.0 | 0.00 | 0.80 | 0.80 | 94 | 1016.9 |
| 20260831021127 | 68 | 159 | 0.0 | 0.0 | 0.00 | 0.80 | 0.80 | 94 | 1016.6 |
| 20260831021121 | 68 | 153 | 0.0 | 0.0 | 0.00 | 0.80 | 0.80 | 94 | 1016.6 |
| 20260831021015 | 68 | 166 | 0.0 | 0.0 | 0.00 | 0.80 | 0.80 | 94 | 1016.9 |
| 20260831020909 | 67 | 163 | 0.0 | 0.0 | 0.00 | 0.80 | 0.80 | 94 | 1016.6 |
| 20260831020852 | 67 | 157 | 0.0 | 0.0 | 0.00 | 0.80 | 0.80 | 94 | 1016.6 |
| 20260831020847 | 67 | 163 | 0.0 | 0.0 | 0.00 | 0.80 | 0.80 | 94 | 1016.6 |
| 20260831020839 | 67 | 160 | 0.0 | 0.0 | 0.00 | 0.80 | 0.80 | 94 | 1016.6 |
| 20260831020553 | 68 | 160 | 0.0 | 0.0 | 0.00 | 0.80 | 0.80 | 94 | 1016.6 |
| 20260831020446 | 68 | 160 | 0.0 | 0.0 | 0.00 | 0.80 | 0.80 | 94 | 1016.9 |
| 20260831020353 | 68 | 160 | 0.0 | 0.0 | 0.00 | 0.80 | 0.80 | 94 | 1016.6 |